[[{"header":{"parameterUnit":"m.s-1","parameterCategory":1,"la1":30.6,"la2":29.2853,"lo1":-89.7004,"lo2":-87.6739,"dy":0.0162,"dx":0.0183,"nx":112,"ny":82,"refTime":"2025-05-17T06:00:00:Z","depth":0,"parameterNumber":2,"parameterNumberName":"U-component_of_WINDS"},"data":[0.0,0.0,0.0,0.0,0.0,0.0,0.0,0.0,0.0,0.0,0.0,0.0,0.0,0.0,0.0,0.0,0.0,0.0,0.0,0.0,0.0,0.0,0.0,0.0,0.0,0.0,0.0,0.0,0.0,0.0,0.0,0.0,0.0,0.0,0.0,0.0,0.0,0.0,0.0,0.0,0.0,0.0,0.0,0.0,0.0,0.0,0.0,0.0,0.0,0.0,0.0,0.0,0.0,0.0,0.0,0.0,0.0,0.0,0.0,0.0,0.0,0.0,0.0,0.0,0.0,0.0,0.0,0.0,0.0,0.0,0.0,0.0,0.0,0.0,0.0,0.0,0.0,0.0,0.0,0.0,0.0,0.0,0.0,0.0,0.0,0.0,0.0,0.0,0.0,0.0,-4.7824,-4.8443,-4.9455,-4.9936,-4.9532,-4.839,-4.7186,-4.5975,0.0,0.0,0.0,0.0,0.0,0.0,0.0,0.0,0.0,0.0,0.0,0.0,0.0,0.0,0.0,0.0,0.0,0.0,0.0,0.0,0.0,0.0,0.0,0.0,0.0,0.0,0.0,0.0,0.0,0.0,0.0,0.0,0.0,0.0,0.0,0.0,0.0,0.0,0.0,0.0,0.0,0.0,0.0,0.0,0.0,0.0,0.0,0.0,0.0,0.0,0.0,0.0,0.0,0.0,0.0,0.0,0.0,0.0,0.0,0.0,0.0,0.0,0.0,0.0,0.0,0.0,0.0,0.0,0.0,0.0,0.0,0.0,0.0,0.0,0.0,0.0,0.0,0.0,0.0,0.0,0.0,0.0,0.0,0.0,0.0,0.0,0.0,0.0,0.0,0.0,0.0,0.0,0.0,0.0,0.0,0.0,0.0,0.0,0.0,0.0,0.0,0.0,0.0,0.0,-4.8294,-5.0106,-5.0183,-4.9936,-4.9532,-4.839,-4.7186,-4.5975,0.0,0.0,0.0,0.0,0.0,0.0,0.0,0.0,0.0,0.0,0.0,0.0,0.0,0.0,0.0,0.0,0.0,0.0,0.0,0.0,0.0,0.0,0.0,0.0,0.0,0.0,0.0,0.0,0.0,0.0,0.0,0.0,0.0,0.0,0.0,0.0,0.0,0.0,0.0,0.0,0.0,0.0,0.0,0.0,0.0,0.0,0.0,0.0,0.0,0.0,0.0,0.0,0.0,0.0,0.0,0.0,0.0,0.0,0.0,0.0,0.0,0.0,0.0,0.0,0.0,0.0,0.0,0.0,0.0,0.0,0.0,0.0,0.0,0.0,0.0,0.0,0.0,0.0,0.0,0.0,0.0,0.0,0.0,0.0,0.0,0.0,0.0,0.0,0.0,0.0,0.0,0.0,0.0,0.0,0.0,0.0,0.0,0.0,0.0,0.0,0.0,0.0,0.0,-4.7712,-4.8505,-5.0197,-4.9999,-4.9603,-4.9202,-4.807,-4.6946,-4.5957,-4.4323,0.0,0.0,0.0,0.0,0.0,0.0,0.0,0.0,0.0,0.0,0.0,0.0,0.0,0.0,0.0,0.0,0.0,0.0,0.0,0.0,0.0,0.0,0.0,0.0,0.0,0.0,0.0,0.0,0.0,0.0,0.0,0.0,0.0,0.0,0.0,0.0,0.0,0.0,0.0,0.0,0.0,0.0,0.0,0.0,0.0,0.0,0.0,0.0,0.0,0.0,0.0,0.0,0.0,0.0,0.0,0.0,0.0,0.0,0.0,0.0,0.0,0.0,0.0,0.0,0.0,0.0,0.0,0.0,0.0,0.0,0.0,0.0,0.0,0.0,0.0,0.0,0.0,0.0,0.0,0.0,0.0,0.0,0.0,0.0,0.0,0.0,0.0,0.0,0.0,0.0,0.0,0.0,0.0,0.0,0.0,0.0,0.0,0.0,0.0,0.0,0.0,0.0,-4.8504,-4.887,-4.9983,-4.9664,-4.9234,-4.893,-4.7793,-4.6746,-4.5957,-4.4083,0.0,0.0,0.0,0.0,0.0,0.0,0.0,0.0,0.0,0.0,0.0,0.0,0.0,0.0,0.0,0.0,0.0,0.0,0.0,0.0,0.0,0.0,0.0,0.0,0.0,0.0,0.0,0.0,0.0,0.0,0.0,0.0,0.0,0.0,0.0,0.0,0.0,0.0,0.0,0.0,0.0,0.0,0.0,0.0,0.0,0.0,0.0,0.0,0.0,0.0,0.0,0.0,0.0,0.0,0.0,0.0,0.0,0.0,0.0,0.0,0.0,0.0,0.0,0.0,0.0,0.0,0.0,0.0,0.0,0.0,0.0,0.0,0.0,0.0,0.0,0.0,0.0,0.0,0.0,0.0,0.0,0.0,0.0,0.0,0.0,0.0,0.0,0.0,0.0,0.0,0.0,0.0,0.0,0.0,0.0,0.0,0.0,0.0,0.0,0.0,0.0,0.0,-4.8681,-4.9587,-5.0049,-4.9416,-4.893,-4.8897,-4.7793,-4.6746,-4.5957,-4.4083,0.0,0.0,0.0,0.0,0.0,0.0,0.0,0.0,0.0,0.0,0.0,0.0,0.0,0.0,0.0,0.0,0.0,0.0,0.0,0.0,0.0,0.0,0.0,0.0,0.0,0.0,0.0,0.0,0.0,0.0,0.0,0.0,0.0,0.0,0.0,0.0,0.0,0.0,0.0,0.0,0.0,0.0,0.0,0.0,0.0,0.0,0.0,0.0,0.0,0.0,0.0,0.0,0.0,0.0,0.0,0.0,0.0,0.0,0.0,0.0,0.0,0.0,0.0,0.0,0.0,0.0,0.0,0.0,0.0,0.0,0.0,0.0,0.0,0.0,0.0,0.0,0.0,0.0,0.0,0.0,0.0,0.0,0.0,0.0,0.0,0.0,0.0,0.0,0.0,0.0,0.0,0.0,0.0,0.0,0.0,0.0,0.0,0.0,0.0,0.0,0.0,0.0,-4.7957,-4.8857,-4.9296,-4.9075,-4.8609,-4.783,-4.7353,-4.6544,-4.5241,0.0,0.0,0.0,0.0,0.0,0.0,0.0,0.0,0.0,0.0,0.0,0.0,0.0,0.0,0.0,0.0,0.0,0.0,0.0,0.0,0.0,0.0,0.0,0.0,0.0,0.0,0.0,0.0,0.0,0.0,0.0,0.0,0.0,0.0,0.0,0.0,0.0,0.0,0.0,0.0,0.0,0.0,0.0,0.0,0.0,0.0,0.0,0.0,0.0,0.0,0.0,0.0,0.0,0.0,0.0,0.0,0.0,0.0,0.0,0.0,0.0,0.0,0.0,0.0,0.0,0.0,0.0,0.0,0.0,0.0,0.0,0.0,0.0,0.0,0.0,0.0,0.0,0.0,0.0,0.0,0.0,0.0,0.0,0.0,0.0,0.0,0.0,0.0,0.0,0.0,0.0,0.0,0.0,0.0,0.0,0.0,0.0,0.0,0.0,0.0,0.0,0.0,-4.6345,-4.7292,-4.8015,-4.8466,-4.8406,-4.7883,-4.6801,-4.647,-4.5755,-4.4397,0.0,0.0,0.0,0.0,0.0,0.0,0.0,0.0,0.0,0.0,0.0,0.0,0.0,0.0,0.0,0.0,0.0,0.0,0.0,0.0,0.0,0.0,0.0,0.0,0.0,0.0,0.0,0.0,0.0,0.0,0.0,0.0,0.0,0.0,0.0,0.0,0.0,0.0,0.0,0.0,0.0,0.0,0.0,0.0,0.0,0.0,0.0,0.0,0.0,0.0,0.0,0.0,0.0,0.0,0.0,0.0,0.0,0.0,0.0,0.0,0.0,0.0,0.0,0.0,0.0,0.0,0.0,0.0,0.0,0.0,0.0,0.0,0.0,0.0,0.0,0.0,0.0,0.0,0.0,0.0,0.0,0.0,0.0,0.0,0.0,0.0,0.0,0.0,0.0,0.0,0.0,0.0,0.0,0.0,0.0,0.0,0.0,0.0,0.0,0.0,0.0,0.0,-4.6222,-4.6833,-4.7242,-4.7636,-4.7331,-4.6746,-4.5957,-4.5168,-4.436,0.0,0.0,0.0,0.0,0.0,0.0,0.0,0.0,0.0,0.0,0.0,0.0,0.0,0.0,0.0,0.0,0.0,0.0,0.0,0.0,0.0,0.0,0.0,0.0,0.0,0.0,0.0,0.0,0.0,0.0,0.0,0.0,0.0,0.0,0.0,0.0,0.0,0.0,0.0,0.0,0.0,0.0,0.0,0.0,0.0,0.0,0.0,0.0,0.0,0.0,0.0,0.0,0.0,0.0,0.0,0.0,0.0,0.0,0.0,0.0,0.0,0.0,0.0,0.0,0.0,0.0,0.0,0.0,0.0,0.0,0.0,0.0,0.0,0.0,0.0,0.0,0.0,0.0,0.0,0.0,0.0,0.0,0.0,0.0,0.0,0.0,0.0,0.0,0.0,0.0,0.0,0.0,0.0,0.0,0.0,0.0,0.0,0.0,0.0,0.0,0.0,0.0,0.0,-4.5085,-4.5827,-4.6305,-4.6412,-4.6323,-4.5938,-4.5131,-4.4838,-4.4121,-4.2745,0.0,0.0,0.0,0.0,0.0,0.0,0.0,0.0,0.0,0.0,0.0,0.0,0.0,0.0,0.0,0.0,0.0,0.0,0.0,0.0,0.0,0.0,0.0,0.0,0.0,0.0,0.0,0.0,0.0,0.0,0.0,0.0,0.0,0.0,0.0,0.0,0.0,0.0,0.0,0.0,0.0,0.0,0.0,0.0,0.0,0.0,0.0,0.0,0.0,0.0,0.0,0.0,0.0,0.0,0.0,0.0,0.0,0.0,0.0,0.0,0.0,0.0,0.0,0.0,0.0,0.0,0.0,0.0,0.0,0.0,0.0,0.0,0.0,0.0,0.0,0.0,0.0,0.0,0.0,0.0,0.0,0.0,0.0,0.0,0.0,0.0,0.0,0.0,0.0,0.0,0.0,0.0,0.0,0.0,0.0,0.0,0.0,0.0,0.0,0.0,0.0,0.0,-4.4085,-4.4929,-4.5424,-4.5424,-4.5424,-4.5094,-4.4287,-4.4213,-4.3534,-4.1919,0.0,0.0,0.0,0.0,0.0,0.0,0.0,0.0,0.0,0.0,0.0,0.0,0.0,0.0,0.0,0.0,0.0,0.0,0.0,0.0,0.0,0.0,0.0,0.0,0.0,0.0,0.0,0.0,0.0,0.0,0.0,0.0,0.0,0.0,0.0,0.0,0.0,0.0,0.0,0.0,0.0,0.0,0.0,0.0,0.0,0.0,0.0,0.0,0.0,0.0,0.0,0.0,0.0,0.0,0.0,0.0,0.0,0.0,0.0,0.0,0.0,0.0,0.0,0.0,0.0,0.0,0.0,0.0,0.0,0.0,0.0,0.0,0.0,0.0,0.0,0.0,0.0,0.0,0.0,0.0,0.0,0.0,0.0,0.0,0.0,0.0,0.0,0.0,0.0,0.0,0.0,0.0,0.0,0.0,0.0,0.0,0.0,0.0,0.0,0.0,0.0,0.0,-4.3185,-4.4085,-4.4599,-4.4599,-4.4599,-4.4287,-4.3552,-4.3515,-4.28,-4.1187,0.0,0.0,0.0,0.0,0.0,0.0,0.0,0.0,0.0,0.0,0.0,0.0,0.0,0.0,0.0,0.0,0.0,0.0,0.0,0.0,0.0,0.0,0.0,0.0,0.0,0.0,0.0,0.0,0.0,0.0,0.0,0.0,0.0,0.0,0.0,0.0,0.0,0.0,0.0,0.0,0.0,0.0,0.0,0.0,0.0,0.0,0.0,0.0,0.0,0.0,0.0,0.0,0.0,0.0,0.0,0.0,0.0,0.0,0.0,0.0,-4.6894,-4.622,0.0,0.0,0.0,0.0,0.0,0.0,0.0,0.0,0.0,0.0,0.0,0.0,0.0,0.0,0.0,0.0,0.0,0.0,0.0,0.0,0.0,0.0,0.0,0.0,0.0,0.0,0.0,0.0,0.0,0.0,0.0,0.0,0.0,0.0,0.0,0.0,0.0,0.0,0.0,0.0,-4.2433,-4.3259,-4.3754,-4.3754,-4.3754,-4.3681,-4.3497,-4.3515,-4.28,-4.1187,-4.126,0.0,0.0,0.0,0.0,0.0,0.0,0.0,0.0,0.0,0.0,0.0,0.0,0.0,0.0,0.0,0.0,0.0,0.0,0.0,0.0,0.0,0.0,0.0,0.0,0.0,0.0,0.0,0.0,0.0,0.0,0.0,0.0,0.0,0.0,0.0,0.0,0.0,0.0,0.0,0.0,0.0,0.0,0.0,0.0,0.0,0.0,0.0,0.0,0.0,0.0,0.0,0.0,0.0,0.0,0.0,0.0,0.0,0.0,0.0,-4.7663,-4.7221,0.0,0.0,0.0,0.0,0.0,0.0,0.0,0.0,0.0,0.0,0.0,0.0,0.0,0.0,0.0,0.0,0.0,0.0,0.0,0.0,0.0,0.0,0.0,0.0,0.0,0.0,0.0,0.0,0.0,0.0,0.0,0.0,0.0,0.0,0.0,0.0,0.0,0.0,0.0,0.0,-4.168,-4.2763,-4.3515,-4.3515,-4.3515,-4.3515,-4.3515,-4.3515,-4.28,-4.1187,-4.1095,0.0,0.0,0.0,0.0,0.0,0.0,0.0,0.0,0.0,0.0,0.0,0.0,0.0,0.0,0.0,0.0,0.0,0.0,0.0,0.0,0.0,0.0,0.0,0.0,0.0,0.0,0.0,0.0,0.0,0.0,0.0,0.0,0.0,0.0,0.0,0.0,0.0,0.0,0.0,0.0,0.0,0.0,0.0,0.0,0.0,0.0,0.0,0.0,0.0,0.0,0.0,0.0,0.0,-4.849,-4.8548,-4.8548,-4.8548,-4.8548,-4.8548,-4.8548,-4.8375,-4.8038,-4.7328,0.0,0.0,0.0,0.0,0.0,0.0,0.0,0.0,0.0,0.0,0.0,0.0,0.0,0.0,0.0,0.0,0.0,0.0,0.0,0.0,0.0,0.0,-4.3515,-4.3515,-4.2983,-4.2323,-4.1645,0.0,0.0,0.0,0.0,0.0,0.0,0.0,0.0,0.0,0.0,0.0,-4.1279,-4.2598,-4.3515,-4.3515,-4.3515,-4.3515,-4.3515,-4.3515,-4.28,-4.1187,-4.1095,-3.9869,0.0,0.0,0.0,0.0,0.0,0.0,0.0,0.0,0.0,0.0,0.0,0.0,0.0,0.0,0.0,0.0,0.0,0.0,0.0,0.0,0.0,0.0,0.0,0.0,0.0,0.0,0.0,0.0,0.0,0.0,0.0,0.0,-4.758,-4.8457,0.0,0.0,0.0,0.0,0.0,0.0,0.0,0.0,0.0,0.0,0.0,0.0,0.0,-4.8314,-4.7952,-4.8798,-4.9221,-4.924,-4.999,-5.0366,-5.0366,-5.0366,-5.0366,-5.0366,-5.0366,0.0,-4.8068,-4.7656,0.0,0.0,0.0,0.0,0.0,0.0,0.0,0.0,0.0,0.0,0.0,0.0,0.0,0.0,0.0,0.0,0.0,0.0,0.0,0.0,0.0,0.0,-4.3515,-4.3515,-4.3423,-4.3296,-4.3221,-4.2084,-4.1058,-4.0948,-4.093,-4.0689,0.0,0.0,0.0,0.0,0.0,0.0,-4.2047,-4.2928,-4.3515,-4.3515,-4.3515,-4.3515,-4.3515,-4.3515,-4.28,-4.1187,-4.1095,-4.009,-3.7855,-3.7201,0.0,0.0,0.0,0.0,0.0,0.0,0.0,0.0,0.0,0.0,0.0,0.0,0.0,0.0,0.0,0.0,0.0,0.0,0.0,0.0,0.0,0.0,0.0,0.0,0.0,0.0,0.0,0.0,0.0,-4.7574,-4.814,-4.8164,-4.8262,-4.7949,0.0,0.0,0.0,0.0,0.0,0.0,0.0,0.0,0.0,-4.7951,-4.8774,-4.9097,-4.8817,-4.9702,-5.0125,-5.0144,-5.0519,-5.0712,-5.0673,-5.0183,-4.9971,-4.9933,-4.9452,-4.8817,-4.8096,-4.7933,-4.7147,-4.5924,0.0,0.0,0.0,0.0,-4.3726,-4.3693,-4.3548,-4.3515,-4.3441,-4.2965,0.0,0.0,0.0,0.0,0.0,0.0,0.0,-4.3515,-4.3515,-4.3515,-4.3515,-4.3515,-4.3515,-4.3515,-4.3515,-4.2947,-4.2323,-4.1864,-4.1772,-4.1387,-4.012,-4.0267,0.0,0.0,0.0,-4.1901,-4.2249,-4.3002,-4.3515,-4.3515,-4.3515,-4.3331,-4.2855,-4.2818,-4.2139,-4.0524,-4.0432,-3.9802,-3.8421,-3.7617,-3.6572,0.0,0.0,0.0,0.0,0.0,0.0,0.0,0.0,0.0,0.0,0.0,0.0,0.0,0.0,0.0,0.0,0.0,0.0,0.0,0.0,0.0,0.0,0.0,0.0,0.0,0.0,0.0,0.0,-4.8269,-4.859,-4.83,-4.8848,-4.8633,0.0,0.0,0.0,0.0,0.0,0.0,-4.8906,-4.9101,-4.9128,-4.8889,-4.9702,-5.0028,-4.9784,-5.0394,-5.0712,-5.0712,-5.0481,-5.0366,-5.0346,-4.9452,-4.9067,-4.9029,-4.8375,-4.799,-4.7798,-4.7798,-4.7008,-4.5725,-4.4913,-4.4154,-4.3515,-4.3515,-4.3515,-4.3515,-4.3515,-4.3515,-4.3387,-4.28,-4.247,-4.2231,-4.1827,0.0,0.0,0.0,0.0,-4.3515,-4.3515,-4.3515,-4.3515,-4.3515,-4.3515,-4.3515,-4.3515,-4.3515,-4.3331,-4.2708,-4.2598,-4.2158,-4.0763,-4.102,0.0,-4.0598,-4.1534,-4.2378,-4.258,-4.313,-4.3515,-4.3515,-4.3331,-4.2947,-4.2359,-4.2121,-4.1387,-3.9989,-3.99,-3.9533,-3.8726,-3.812,-3.7247,-3.6098,0.0,0.0,0.0,0.0,0.0,0.0,0.0,0.0,0.0,0.0,0.0,0.0,0.0,0.0,0.0,0.0,0.0,0.0,0.0,0.0,0.0,0.0,0.0,0.0,0.0,0.0,0.0,0.0,0.0,-4.9961,-5.0117,0.0,0.0,0.0,0.0,-4.8828,-4.8887,-4.8906,-4.8906,-4.9687,-5.0073,-4.993,-5.0646,-5.0961,-5.0835,-5.0747,-5.0712,-5.0693,-4.9856,-4.9471,-4.9433,-4.8567,-4.8163,-4.8163,-4.8125,-4.7682,-4.6962,-4.6962,-4.6511,-4.5725,-4.4913,-4.4154,-4.3515,-4.3515,-4.3515,-4.3515,-4.3515,-4.3515,-4.3496,-4.346,-4.291,-4.2433,-4.3149,-4.2873,0.0,0.0,-4.3515,-4.3515,-4.3515,-4.3515,-4.3515,-4.3515,-4.3515,-4.3515,-4.3515,-4.3515,-4.3496,-4.346,-4.3441,-4.3167,-4.2323,0.0,-4.2231,-4.2194,-4.2249,-4.258,-4.3332,-4.3478,-4.3515,-4.3515,-4.2818,-4.2341,-4.2304,-4.159,-4.0799,-3.9937,-3.99,-3.9533,-3.8726,-3.867,-3.8248,-3.7426,-3.6619,0.0,0.0,0.0,0.0,0.0,0.0,0.0,0.0,0.0,0.0,0.0,0.0,0.0,0.0,0.0,0.0,0.0,0.0,0.0,0.0,0.0,0.0,0.0,0.0,0.0,0.0,0.0,0.0,-5.0156,-5.0195,0.0,-4.8984,-4.9414,-4.9746,-4.9746,-5.0215,-5.0508,-5.0508,-5.0801,-5.0913,-5.0774,-5.1021,-5.1078,-5.0889,-5.0859,-5.0493,-4.9856,-4.9548,-4.9106,-4.8548,-4.7721,-4.7336,-4.7298,-4.6721,-4.6336,-4.6067,-4.6067,-4.5773,-4.5318,-4.5033,-4.4468,-4.3836,-4.3836,-4.3695,-4.3515,-4.3515,-4.3515,-4.3515,-4.3515,-4.3296,-4.313,-4.3423,-4.3313,-4.313,-4.3423,-4.3515,-4.3515,-4.3515,-4.3515,-4.3515,-4.3515,-4.3515,-4.3515,-4.3515,-4.3515,-4.3515,-4.3515,-4.3515,-4.3239,-4.2433,-4.2727,-4.2708,-4.168,-4.1974,-4.2213,-4.1992,-4.1974,-4.1974,-4.1974,-4.1699,-4.1332,-4.0799,-4.0487,-3.9974,-3.9184,-3.9129,-3.9001,-3.8707,-3.8707,-3.8322,-3.7529,-3.7217,-3.6062,0.0,0.0,0.0,0.0,0.0,0.0,0.0,0.0,0.0,0.0,0.0,0.0,0.0,0.0,0.0,0.0,0.0,0.0,0.0,0.0,0.0,0.0,0.0,0.0,0.0,-4.9543,-5.0055,-5.0175,-5.0449,-5.0273,-4.9414,-5.0117,-5.0605,-5.0605,-5.1094,-5.1406,-5.1406,-5.1406,-5.1365,-5.1268,-5.1213,-5.1136,-5.0966,-5.0634,-5.0093,-4.9394,-4.8836,-4.8259,-4.7682,-4.6836,-4.6471,-4.6432,-4.5845,-4.5594,-4.5594,-4.5594,-4.5476,-4.5243,-4.503,-4.4548,-4.3986,-4.3881,-4.3677,-4.3515,-4.3515,-4.3515,-4.3515,-4.3515,-4.3515,-4.3515,-4.3515,-4.3515,-4.3515,-4.3515,-4.3515,-4.3515,-4.3515,-4.3515,-4.3515,-4.3515,-4.3515,-4.3515,-4.3515,-4.3515,-4.3423,-4.3149,-4.3296,-4.3239,-4.2433,-4.2745,-4.2635,-4.1297,-4.1535,-4.1699,-4.1168,-4.1095,-4.1095,-4.1095,-4.0857,-4.0487,-3.9937,-3.9643,-3.9276,-3.8726,-3.8707,-3.8707,-3.8707,-3.8432,-3.8028,-3.7511,-3.7235,-3.6024,-3.3807,0.0,0.0,0.0,0.0,0.0,0.0,0.0,0.0,0.0,0.0,0.0,0.0,0.0,0.0,0.0,0.0,0.0,0.0,0.0,0.0,0.0,0.0,0.0,-4.9785,-4.9946,-5.009,-5.0214,-5.0937,-5.1094,-5.0312,-5.0937,-5.1406,-5.1406,-5.1406,-5.1406,-5.1406,-5.1406,-5.1406,-5.1406,-5.127,-5.1167,-5.1094,-5.0119,-4.9521,-4.9336,-4.7702,-4.6885,-4.6827,-4.599,-4.5594,-4.5594,-4.5594,-4.5594,-4.5594,-4.5594,-4.5594,-4.555,-4.4877,-4.4392,-4.4001,-4.3679,-4.3531,-4.3513,-4.3496,-4.3515,-4.3515,-4.3515,-4.3515,-4.3515,-4.3515,-4.3515,-4.3515,-4.3515,-4.3515,-4.3515,-4.3515,-4.3515,-4.3515,-4.3515,-4.3515,-4.3515,-4.3515,-4.3478,-4.3222,-4.2451,-4.291,-4.3167,-4.2396,-4.2268,-4.1992,-4.1168,-4.1058,0.0,-4.1022,-4.1022,-4.1022,-4.1022,-4.0322,-3.9845,-3.9845,-3.9148,-3.8707,-3.8707,-3.8707,-3.8707,-3.8707,-3.7936,-3.7529,-3.7492,-3.674,-3.5514,-3.3844,0.0,0.0,0.0,0.0,0.0,0.0,0.0,0.0,0.0,0.0,0.0,0.0,0.0,0.0,0.0,0.0,0.0,0.0,0.0,0.0,0.0,-4.8724,-4.954,-4.9771,-5.0417,-5.091,-5.1054,-5.1269,-5.1308,-5.1094,-5.1269,-5.1406,-5.1406,-5.1406,-5.1406,-5.1406,-5.1406,-5.1406,-5.1406,-5.1366,-5.1275,-5.1094,-5.0208,-4.931,-4.8432,-4.7413,-4.6567,-4.5951,-4.571,-4.5594,-4.5594,-4.5594,-4.5594,-4.5594,-4.5594,-4.5594,-4.5577,-4.541,-4.5118,-4.4793,-4.4688,-4.4318,-4.3836,-4.358,-4.3515,-4.3515,-4.3515,-4.3515,-4.3515,-4.3515,-4.3515,-4.3515,-4.3515,-4.3515,-4.3515,-4.3515,-4.3515,-4.3515,-4.3515,-4.3515,-4.3515,-4.3515,-4.3039,-4.2561,-4.2341,-4.2011,-4.1682,-4.1462,-4.1425,-4.1167,-4.0359,-4.023,-4.0029,-3.9441,-3.9368,-3.9368,-3.9368,-3.9166,-3.9038,-3.9038,-3.8836,-3.8707,-3.8707,-3.8707,-3.8707,-3.8707,-3.8487,-3.8102,-3.7511,-3.729,-3.634,0.0,0.0,0.0,0.0,0.0,0.0,0.0,0.0,0.0,0.0,0.0,0.0,0.0,0.0,0.0,0.0,0.0,0.0,0.0,0.0,0.0,0.0,-4.9375,-5.0012,-5.024,-5.0776,-5.1202,-5.1296,-5.1366,-5.1406,-5.1406,-5.1406,-5.1406,-5.1406,-5.1406,-5.1406,-5.1406,-5.1406,-5.1406,-5.1406,-5.1406,-5.116,-5.0642,-4.9729,-4.8718,-4.7621,-4.6765,-4.6086,-4.5594,-4.5594,-4.5594,-4.5594,-4.5594,-4.5594,-4.5594,-4.5594,-4.5594,-4.5586,0.0,0.0,0.0,0.0,-4.4508,-4.3971,-4.3772,-4.3631,-4.3515,-4.3515,-4.3515,-4.3515,-4.3515,-4.3515,-4.3515,-4.3515,-4.3515,-4.3515,-4.3515,-4.3515,-4.3515,-4.3515,-4.3239,-4.3002,-4.3002,-4.2378,-4.1699,-4.135,-4.0928,0.0,-4.0141,-4.0361,-4.0322,-3.9515,-3.9405,-3.9239,-3.8762,-3.8707,-3.8707,-3.8707,-3.8707,-3.8707,-3.8707,-3.8707,0.0,0.0,0.0,-3.856,-3.8212,-3.8193,0.0,0.0,0.0,0.0,0.0,-3.689,0.0,0.0,-3.6817,-3.6982,0.0,0.0,0.0,0.0,0.0,0.0,0.0,0.0,0.0,0.0,0.0,0.0,0.0,0.0,0.0,0.0,-5.0125,-5.0749,-5.0867,-5.0991,-5.1102,-5.1194,-5.132,-5.1406,-5.1406,-5.1406,-5.1406,-5.1406,-5.1406,-5.1406,-5.1406,-5.1406,0.0,0.0,0.0,-5.0815,-4.9855,-4.8865,-4.7907,-4.7002,-4.6042,-4.5594,-4.5594,-4.5594,-4.5594,-4.5594,-4.5594,-4.5594,-4.5594,-4.5594,-4.5594,-4.5568,-4.5263,-4.5169,-4.5107,-4.4769,-4.4428,-4.4117,-4.4073,0.0,0.0,-4.3563,-4.3565,-4.3548,-4.3496,-4.3515,-4.3515,-4.3515,-4.3515,-4.3478,-4.3404,-4.3368,-4.3332,-4.324,-4.2671,-4.2158,-4.2158,-4.1534,-4.0747,-4.0029,-3.9827,-3.9533,-3.8817,-3.9294,-3.9515,-3.8817,-3.8707,-3.8707,-3.8707,-3.8707,-3.8707,-3.8707,-3.8707,0.0,-3.8707,-3.8707,-3.8707,-3.8707,-3.8707,-3.8377,-3.7658,-3.7639,-3.7272,-3.645,-3.7235,-3.7584,-3.7492,-3.8303,-3.8707,-3.867,-3.7239,-3.6945,0.0,0.0,0.0,0.0,0.0,0.0,0.0,0.0,0.0,0.0,0.0,0.0,0.0,0.0,0.0,-4.9384,-5.0125,-5.0702,-5.074,-5.0859,-5.1,-5.1188,-5.132,-5.1406,-5.1406,-5.1406,-5.1406,-5.1406,-5.1406,-5.1406,-5.1406,-5.1406,-5.1094,-5.0449,-5.043,-4.9956,-4.8955,-4.7946,-4.73,-4.7002,-4.6042,0.0,-4.5594,-4.5594,-4.5594,-4.5594,-4.5594,-4.5594,-4.5594,-4.5594,-4.5594,-4.5586,-4.5522,-4.5504,-4.5457,-4.5118,-4.4954,-4.4842,-4.458,-4.4447,-4.4337,-4.4001,-4.3893,-4.3849,-4.358,-4.3515,0.0,-4.3515,-4.3515,-4.3349,-4.269,-4.2525,-4.2378,-4.1735,-4.1444,-4.1334,-4.1334,-4.0708,-4.0084,-3.9918,-3.9386,-3.8891,-3.8726,-3.8836,-3.8891,-3.8726,-3.8707,-3.8707,-3.8707,-3.8707,-3.8707,-3.8707,-3.8707,-3.8707,-3.8707,-3.8707,-3.8707,-3.8707,-3.8707,-3.8634,-3.8469,-3.8469,-3.8083,-3.729,-3.8065,-3.8138,-3.7492,-3.8303,-3.8707,-3.8689,-3.8377,-3.8322,0.0,0.0,0.0,0.0,0.0,0.0,0.0,0.0,0.0,0.0,0.0,-4.8971,-4.9317,0.0,-5.0183,-5.0587,-5.0683,-5.0712,-5.0712,-5.0814,-5.0953,-5.1121,-5.1249,-5.1322,-5.1387,-5.1406,-5.1406,-5.1406,-5.1406,-5.1406,-5.1406,-5.1016,-5.0625,-5.0215,-4.9785,-4.91,-4.8151,-4.7522,-4.6946,-4.643,-4.5858,-4.5594,-4.5594,-4.5594,-4.5594,-4.5594,-4.5594,-4.5594,-4.5594,-4.5594,-4.5594,-4.5594,-4.5594,-4.5594,-4.5577,-4.541,-4.5243,-4.5074,-4.4908,-4.4751,-4.4567,-4.4378,-4.4161,-4.3971,-4.3804,-4.3629,-4.3423,-4.3002,-4.2892,-4.2708,-4.1919,-4.1699,-4.159,-4.1187,-4.0799,-4.0506,-4.0506,-3.9863,-3.9294,-3.9294,-3.8964,-3.8707,-3.8707,-3.8707,-3.8707,-3.8707,-3.8707,-3.8707,-3.8707,-3.8707,-3.8707,-3.8707,-3.8707,-3.8707,-3.8707,-3.8707,-3.8707,-3.8707,-3.8707,-3.8707,-3.8707,-3.8303,-3.7915,-3.7511,-3.7496,-3.7496,-3.7492,-3.7915,-3.8303,-3.8707,-3.8707,-3.8707,0.0,0.0,0.0,0.0,0.0,0.0,0.0,0.0,-4.7432,-4.7605,-4.8836,-5.0048,-5.0596,-5.0827,-5.1087,-5.1587,-5.1125,-5.0712,-5.0712,-5.0799,-5.0903,-5.1056,-5.1144,-5.124,-5.1344,-5.1386,-5.1406,-5.1406,-5.1269,-5.1172,-5.1172,-5.0391,-4.9863,-4.9707,-4.9004,-4.8223,-4.7363,-4.7106,-4.6629,-4.5899,-4.5715,-4.5637,-4.5594,-4.5594,-4.5594,-4.5594,-4.5594,-4.5594,-4.5594,-4.5594,-4.5594,-4.5594,-4.5594,-4.5594,-4.5594,-4.5594,-4.5429,-4.5201,-4.5201,-4.5011,-4.4781,-4.4726,-4.4468,-4.4204,-4.4132,-4.3865,-4.3431,-4.2621,-4.2353,-4.2084,-4.113,-4.0873,-4.082,-4.0673,-4.0139,-3.9662,-3.9662,-3.9166,-3.8707,-3.8707,-3.8707,-3.8707,-3.8707,-3.8707,-3.8707,-3.8707,-3.8707,-3.8707,-3.8707,-3.8707,-3.8707,-3.8707,-3.8707,-3.8707,-3.8707,-3.8707,-3.8707,-3.8707,-3.8707,-3.8634,-3.8469,-3.7841,-3.7437,-3.7272,-3.6615,-3.6703,-3.7492,-3.7492,-3.7915,-3.8707,-3.8707,-3.8707,-4.6817,-4.6259,-4.6067,-4.7471,-4.7355,-4.7471,0.0,0.0,-4.9336,-5.0115,-5.0991,-5.1433,-5.0808,-5.1279,-5.1568,-5.0933,-5.077,-5.0712,-5.0712,-5.0712,-5.0764,-5.0916,-5.1101,-5.1206,-5.1213,-5.1322,-5.1406,-5.1406,-5.0742,-5.0332,-5.0332,-4.9512,-4.8691,-4.793,-4.7793,-4.7324,-4.6445,-4.6305,-4.6105,-4.5899,-4.582,-4.5723,-4.5594,-4.5594,-4.5594,-4.5594,-4.5594,-4.5594,-4.5594,-4.5594,-4.5594,-4.5594,-4.5594,-4.5594,-4.5594,-4.5594,-4.5577,-4.5531,-4.5531,-4.5513,-4.5438,-4.514,-4.5011,-4.4931,-4.4618,-4.4266,-4.3788,-4.2966,-4.2522,-4.1956,-4.0432,-4.0029,-3.9845,-3.9148,-3.8909,-3.8836,-3.8836,-3.8762,-3.8707,-3.8707,-3.8707,-3.8707,-3.8707,-3.8707,-3.8707,-3.8707,-3.8707,-3.8707,-3.8707,-3.8707,-3.8707,-3.8707,-3.8707,-3.8707,-3.8707,-3.8707,-3.8707,-3.8707,-3.8707,-3.8377,-3.7658,-3.7547,-3.7162,-3.645,-3.634,-3.6703,-3.7492,-3.7492,-3.7915,-3.8707,-3.8707,-3.8707,-4.7019,-4.699,-4.7105,0.0,-4.7875,-4.8509,-4.9067,-4.9298,-4.949,-4.9875,-5.0991,-5.1788,-5.1471,-5.1673,-5.1788,-5.1452,-5.101,-5.0712,-5.0712,-5.0712,-5.0731,-5.0773,-5.1008,-5.1151,-5.1199,-5.1321,-5.1406,-5.1406,-5.0644,-5.0195,-5.0195,-4.8887,-4.7988,-4.7617,-4.7109,-4.668,-4.6308,-4.6173,-4.6036,-4.5899,-4.5819,-4.5725,-4.5594,-4.5594,-4.5594,-4.5594,-4.5594,-4.5594,-4.5594,-4.5594,-4.5594,-4.5594,-4.5594,-4.5594,-4.5594,-4.5594,-4.5594,-4.5594,-4.5594,-4.5594,-4.5577,-4.5429,-4.5253,-4.5074,-4.4931,-4.4156,-4.3137,-4.2331,-4.1514,-4.0634,-3.9496,-3.9203,-3.9154,-3.8987,-3.88,-3.8732,-3.8894,-3.8818,-3.8707,-3.8707,-3.8707,-3.8707,-3.8707,-3.8707,-3.8707,-3.8707,-3.8707,-3.8707,-3.8707,-3.8707,-3.8707,-3.8707,-3.8707,-3.8707,-3.8707,-3.8267,-3.8193,-3.867,-3.7826,-3.7349,-3.7492,-3.656,-3.5899,-3.5555,-3.5092,-3.5238,-3.6046,-3.6541,-3.7217,-3.8025,-3.8487,-3.8707,-4.6778,-4.6971,0.0,-4.7259,-4.8144,-4.899,-4.8856,-4.9317,-4.976,-4.976,-5.0894,-5.1827,-5.1606,-5.175,-5.1827,-5.1606,-5.1087,-5.0712,-5.0712,-5.0712,-5.0712,-5.0748,-5.0953,-5.112,-5.1196,-5.1321,-5.1308,-5.1094,-5.0312,-4.9746,-4.9492,-4.8066,-4.7246,-4.7246,-4.6621,-4.6308,-4.6308,-4.6173,-4.6036,-4.5899,-4.5819,-4.5725,-4.5594,-4.5594,-4.5594,-4.5594,-4.5594,-4.5594,-4.5594,-4.5594,-4.5594,-4.5594,-4.5594,-4.5594,-4.5594,-4.5594,-4.5594,-4.5594,-4.5594,-4.5594,-4.5594,-4.5594,-4.5429,-4.5194,-4.4945,-4.4021,-4.2854,-4.171,-4.0731,-3.9801,-3.894,-3.8707,-3.8747,-3.8947,-3.8844,-3.8747,-3.8947,-3.8844,-3.8707,-3.8707,-3.8707,-3.8707,-3.8707,-3.8707,-3.8707,-3.8707,-3.8707,-3.8707,-3.8707,-3.8707,-3.8615,-3.8395,-3.8377,-3.8285,-3.8065,-3.7496,-3.7419,-3.801,-3.6945,-3.645,-3.6813,-3.5646,-3.4912,-3.4674,-3.41,-3.4211,-3.5004,-3.5642,-3.6358,-3.718,-3.7771,-3.8157,-4.5883,0.0,-4.6056,-4.7663,-4.8105,-4.8586,-5.025,-5.0635,-5.0654,-5.0654,-5.1318,-5.1654,-5.0875,-5.1375,-5.1635,-5.0856,-5.0731,-5.0712,-5.0712,-5.0712,-5.0739,-5.0879,-5.1022,-5.112,-5.1196,-5.1321,-5.1074,-5.0293,-4.9433,-4.8574,-4.7715,-4.6836,-4.6348,-4.6348,-4.6308,-4.6308,-4.6308,-4.6173,-4.6036,-4.5899,-4.5819,-4.5725,-4.5594,-4.5594,-4.5594,-4.5594,-4.5594,-4.5594,-4.5594,-4.5594,-4.5594,-4.5594,-4.5594,-4.5594,-4.5594,-4.5594,-4.5594,-4.5594,-4.5594,-4.5594,-4.5594,-4.5594,-4.5586,-4.5432,-4.4577,-4.4068,-4.336,-4.146,-4.0615,-4.0034,-3.8983,-3.8707,-3.8707,-3.8704,-3.8707,-3.8707,-3.8704,-3.8707,-3.8707,-3.8707,-3.8707,-3.8707,-3.8707,-3.8707,-3.8707,-3.8707,-3.8707,-3.8707,-3.8707,-3.8707,-3.8395,-3.7621,-3.7547,-3.7217,-3.6431,-3.634,-3.634,-3.6376,-3.6321,-3.5936,-3.5114,-3.5041,-3.4637,-3.3844,-3.3807,-3.4211,-3.5004,-3.5041,-3.5481,-3.634,-3.6358,-3.678,-4.5845,0.0,-4.6605,-4.7163,-4.7721,-4.8413,-4.9567,-4.9837,-4.999,-5.0577,-5.0914,-5.101,-5.075,-5.0914,-5.101,-5.075,-5.0712,-5.0712,-5.0712,-5.0712,-5.0739,-5.0886,-5.0945,-5.1028,-5.1171,-5.0832,-5.0488,-5.0215,-4.8867,-4.791,-4.7617,-4.6777,-4.6308,-4.6308,-4.6308,-4.6308,-4.6308,-4.6173,-4.6036,-4.5899,-4.5743,-4.5643,-4.5594,-4.5594,-4.5594,-4.5594,-4.5594,-4.5594,-4.5594,-4.5594,-4.5594,-4.5594,-4.5594,-4.5594,-4.5594,-4.5594,-4.5594,-4.5594,-4.5594,-4.5594,-4.5594,-4.5594,-4.5594,-4.5441,-4.4566,-4.3694,-4.2751,-4.1514,-4.0522,-3.9746,-3.9389,-3.9307,-3.9307,-3.9307,-3.9136,-3.8975,-3.8975,-3.8829,-3.8707,-3.8707,-3.8707,-3.8707,-3.8707,-3.8707,-3.8707,-3.8707,-3.8248,-3.7915,-3.7915,-3.7441,-3.7,-3.6725,-3.6703,-3.6578,-3.6321,-3.5771,-3.5665,-3.6266,-3.5257,-3.4761,-3.4986,-3.4491,-3.4082,-3.3807,-3.3807,-3.3935,-3.4211,-3.4747,-3.5151,-3.5445,-3.6028,-3.645,-4.6246,-4.6493,-4.6962,-4.7259,-4.7721,-4.8336,-4.9202,-4.9394,-4.9644,-5.0519,-5.0462,-5.0327,-5.0635,-5.0712,-5.0712,-5.0712,-5.0712,-5.0712,-5.0712,-5.0712,-5.0775,-5.0959,-5.0966,-5.1049,-5.124,-5.0622,-5.0078,-4.9766,-4.8691,-4.7793,-4.7168,-4.6601,-4.6308,-4.6308,-4.6308,-4.6308,-4.6308,-4.6173,-4.6021,-4.5871,-4.5688,-4.5594,-4.5594,-4.5594,-4.5594,-4.5594,-4.5594,-4.5594,-4.5594,-4.5594,-4.5594,-4.5594,-4.5594,-4.5594,-4.5556,-4.5248,-4.5152,-4.519,-4.5498,-4.5594,-4.5594,-4.5594,-4.5402,-4.4979,-4.4124,-4.3145,-4.2106,-4.115,-4.0342,-3.9754,-3.9634,-3.9599,-3.9599,-3.9599,-3.9445,-3.9238,-3.9139,-3.8957,-3.88,-3.8719,-3.8707,-3.8707,-3.8707,-3.8707,-3.8707,-3.8707,-3.8025,-3.7492,-3.7492,-3.7052,-3.6486,-3.5899,-3.5844,-3.5716,-3.5422,-3.489,-3.4816,-3.5367,-3.4394,-3.4027,-3.4546,-3.4082,-3.3807,-3.3807,-3.3807,-3.3807,-3.3807,-3.4307,-3.4564,-3.4582,-3.5147,-3.555,-4.7013,-4.6963,-4.7103,-4.7853,-4.8046,-4.8296,-4.9201,-4.9393,-4.9605,-5.0462,-4.999,-4.9644,0.0,0.0,-5.0712,-5.0712,-5.0731,-5.077,-5.077,-5.077,-5.0846,0.0,0.0,0.0,0.0,-5.0703,-4.9882,-4.9023,-4.8887,-4.8105,-4.6445,-4.6328,-4.6308,-4.6308,-4.6308,-4.6308,-4.6308,-4.615,-4.5986,-4.5796,-4.5665,-4.5594,-4.5594,-4.5594,-4.5594,-4.5594,-4.5594,-4.5594,-4.5594,-4.5594,-4.5594,-4.5594,-4.5594,-4.5594,-4.5498,-4.4662,-4.4374,-4.447,-4.5306,-4.5537,-4.5479,-4.5518,-4.496,-4.4085,-4.3278,-4.247,-4.1574,-4.0434,-4.012,-4.0042,-3.9724,-3.9645,-3.9645,-3.9634,-3.9622,-3.9541,-3.9205,-3.9139,-3.9049,-3.8807,-3.8735,-3.8723,-3.8707,-3.8707,-3.8707,-3.8707,-3.8025,-3.7492,-3.7437,-3.7401,-3.6743,-3.5114,-3.4949,-3.4637,-3.3862,-3.3807,-3.3807,-3.3807,-3.3807,-3.3807,-3.3807,-3.3807,-3.3807,-3.3807,-3.3807,-3.3807,-3.3807,-3.3807,-3.3807,-3.3807,-3.3807,-3.4211,-4.7329,-4.7134,-4.7165,-4.7379,-4.7437,-4.7825,-4.9345,-4.9204,-4.8948,-4.9722,-4.9703,-4.9396,0.0,0.0,0.0,-5.0712,-5.1202,0.0,-5.1587,-5.1587,0.0,-5.1009,0.0,-5.092,-5.123,-5.1024,-5.0586,-4.9921,-4.8672,-4.7734,-4.7285,-4.6641,-4.6308,-4.6308,-4.6308,-4.6308,-4.6308,-4.6075,-4.591,-4.5796,-4.5665,-4.5594,-4.5594,-4.5594,-4.5594,-4.5594,-4.5594,-4.5594,-4.5594,-4.5594,-4.5594,-4.5594,-4.5594,-4.5594,-4.5575,-4.5344,-4.5267,-4.5306,-4.5518,-4.4786,-4.3835,-4.4432,-4.4085,-4.3258,-4.2393,-4.1981,-4.1607,-4.0655,-4.0389,-4.0381,-4.0283,-4.0266,-4.0221,-4.0032,-3.9982,-3.988,-3.9534,-3.9462,-3.9457,-3.9371,-3.9171,-3.8933,-3.8735,-3.8707,-3.8707,-3.8707,-3.8025,-3.729,-3.667,-3.6046,-3.5243,-3.4229,-3.4119,-3.4027,-3.3825,-3.3807,-3.3807,-3.3807,-3.3807,-3.3807,-3.3807,-3.3807,-3.3807,-3.3807,-3.3807,-3.3807,-3.3807,-3.3807,-3.3807,-3.3807,-3.3807,-3.3917,-4.7988,-4.7537,-4.7285,-4.7678,-4.7479,-4.7557,-4.8924,-4.8569,-4.8137,-4.889,-4.8725,0.0,-4.8142,-4.9202,-5.025,0.0,0.0,0.0,-5.1904,-5.1943,-5.1736,0.0,-5.0953,0.0,-5.1265,-5.0937,-5.0553,-5.0234,-4.8945,-4.8008,-4.7617,-4.6777,-4.6308,-4.6308,-4.6308,-4.6308,-4.6308,-4.6036,-4.5886,-4.5847,-4.5685,-4.5594,-4.5594,-4.5594,-4.5594,-4.5594,-4.5594,-4.5594,-4.5594,-4.5594,-4.5594,-4.5594,-4.5594,-4.5594,-4.5556,-4.5171,-4.5037,-4.4979,-4.4624,-4.3643,-4.2739,-4.3912,-4.3508,-4.245,-4.1942,-4.1527,-4.1123,-4.065,-4.0496,-4.0496,-4.0496,-4.0496,-4.0465,-4.0321,-4.0286,-4.0195,-3.9891,-3.9819,-3.9775,-3.9634,-3.9457,-3.9218,-3.8923,-3.8884,-3.8715,-3.8242,-3.7786,-3.707,-3.5881,-3.5298,-3.4692,-3.3899,-3.3807,-3.3807,-3.3807,-3.3807,-3.3807,-3.3807,-3.3807,-3.3807,-3.3807,-3.3807,-3.3807,-3.3807,-3.3807,-3.3807,-3.3807,-3.3807,-3.3807,-3.3807,-3.3807,-3.3807,-4.8757,-4.8086,-4.7576,-4.8222,-4.7809,-4.7478,-4.8359,-4.7887,-4.7421,-4.8056,0.0,-4.7175,-4.7705,-4.8663,-4.9644,-5.0404,0.0,-5.1942,-5.2058,-5.208,-5.1876,-5.13,-5.1211,-5.1234,-5.1365,-5.0644,-5.0175,-5.0195,-4.9297,-4.8398,-4.7637,-4.6777,-4.6308,-4.6308,-4.6308,-4.6308,-4.6308,-4.6047,-4.5916,-4.5899,-4.5708,-4.562,-4.5594,-4.5594,-4.5594,-4.5594,-4.5594,-4.5594,-4.5594,-4.5594,-4.5594,-4.5594,-4.5594,-4.5594,-4.5518,-4.4739,-4.4393,-4.4201,-4.3508,-4.2624,-4.2038,-4.3508,-4.2912,-4.1643,-4.1643,-4.1104,-4.0496,-4.0496,-4.0496,-4.0496,-4.0496,-4.0496,-4.0496,-4.0496,-4.0496,-4.0441,-4.0195,-4.0148,-4.0052,-3.9742,-3.9668,-3.9552,-3.9178,-3.9019,-3.8618,-3.7643,-3.7309,-3.6633,-3.5188,-3.5004,-3.4692,-3.3899,-3.3807,-3.3807,-3.3807,-3.3807,-3.3807,-3.3807,-3.3807,-3.3807,-3.3807,-3.3807,-3.3807,-3.3807,-3.3807,-3.3807,-3.3807,-3.3807,-3.3807,-3.3807,-3.3807,-3.3807,-4.9236,-4.8747,-4.8471,-4.7904,-4.7631,-4.7768,-4.8627,-4.8158,0.0,0.0,-4.7353,-4.6968,-4.6325,-4.794,-4.9452,-4.9606,-5.0914,-5.2154,-5.2876,-5.2466,-5.2058,0.0,-5.145,-5.1148,-5.1232,-5.0514,-5.008,-5.0195,-4.873,-4.7754,-4.7617,-4.6777,-4.6308,-4.6308,-4.6308,-4.6308,-4.6308,-4.6145,-4.6001,-4.5899,-4.5814,-4.5708,-4.5594,-4.5594,-4.5594,-4.5594,-4.5594,-4.5594,-4.5594,-4.5594,-4.5594,-4.5594,-4.5594,-4.5594,-4.5575,-4.5441,-4.4921,-4.4278,-4.4143,-4.3085,-4.1846,-4.2143,-4.1546,-4.0727,-4.0727,-4.0631,-4.0496,-4.0496,-4.0496,-4.0496,-4.0496,-4.0496,-4.0496,-4.0496,-4.0496,-4.0489,-4.0449,-4.0441,-4.0356,-4.0062,-4.0012,-3.9819,-3.9218,-3.8553,-3.7968,-3.7551,-3.6321,-3.5334,-3.5041,-3.5004,-3.4692,-3.3899,-3.3807,-3.3807,-3.3807,-3.3807,-3.3807,-3.3807,-3.3807,-3.3807,-3.3807,-3.3807,-3.3807,-3.3807,-3.3807,-3.3807,-3.3807,-3.3807,-3.3807,-3.3807,-3.3807,-3.3807,-4.9785,-4.9258,-4.8808,-4.8379,-4.7949,-4.7715,-4.8125,0.0,0.0,0.0,-4.6615,-4.6387,-4.5886,-4.7066,0.0,-4.926,-5.0506,-5.1677,-5.2507,-5.244,0.0,-5.1682,-5.1411,-5.1275,-5.1296,-5.0165,-4.9447,-4.9512,-4.791,-4.7129,-4.7578,-4.6777,-4.6308,-4.6308,-4.6308,-4.6308,-4.6308,-4.6173,-4.6075,-4.5998,-4.5878,-4.5775,-4.57,-4.5627,-4.5594,-4.5603,-4.5673,-4.5665,-4.5603,-4.568,-4.5657,-4.5594,-4.5594,-4.5594,-4.5594,-4.5594,-4.5344,-4.4913,-4.4451,-4.3778,-4.297,-4.2077,-4.12,-4.0496,-4.0496,-4.0496,-4.0496,-4.0496,-4.0496,-4.0496,-4.0496,-4.0496,-4.0496,-4.0496,-4.0496,-4.0496,-4.0496,-4.0496,-4.0465,-4.0339,-4.0313,-4.0024,-3.9093,-3.8503,-3.7773,-3.6631,-3.5769,-3.5103,-3.4628,-3.4736,-3.4581,-3.3865,-3.3807,-3.3807,-3.3807,-3.3807,-3.3807,-3.3807,-3.3807,-3.3807,-3.3807,-3.3807,-3.3807,-3.3807,-3.3807,-3.3807,-3.3807,-3.3807,-3.3807,-3.3807,-3.3807,-3.3807,-5.0254,-4.9707,-4.9121,-4.8945,-4.8242,-4.7598,-4.7598,-4.6933,0.0,0.0,-4.6039,-4.5923,-4.5844,0.0,-4.7447,0.0,-5.0008,-5.1081,0.0,-5.2474,-5.2328,0.0,-5.1711,0.0,-5.1426,-4.9883,-4.8906,-4.8906,-4.7285,-4.6601,-4.7285,-4.668,-4.6308,-4.6308,-4.6308,-4.6308,-4.6308,-4.6199,-4.612,-4.6108,-4.5948,-4.585,-4.5808,-4.5706,-4.5658,-4.5665,-4.5777,-4.5757,-4.5665,-4.5756,-4.5733,-4.5643,-4.5612,-4.5594,-4.5594,-4.5594,-4.5479,-4.5229,-4.4528,-4.4182,-4.3797,-4.2297,-4.1335,-4.0746,-4.0554,-4.0496,-4.0496,-4.0496,-4.0496,-4.0496,-4.0496,-4.0496,-4.0496,-4.0496,-4.0496,-4.0496,-4.0496,-4.0496,-4.0496,-4.0496,-4.0362,-3.9945,-3.8965,-3.8324,-3.7422,-3.5815,-3.5432,-3.5077,-3.4404,-3.454,-3.4526,-3.4037,-3.3928,-3.385,-3.3802,-3.3807,-3.3807,-3.3807,-3.3807,-3.3807,-3.3807,-3.3807,-3.3807,-3.3807,-3.3807,-3.3807,-3.3807,-3.3807,-3.3807,-3.3807,-3.3807,-3.3807,-5.0391,-5.0137,-4.9883,-4.9101,-4.8242,-4.7598,-4.7598,0.0,0.0,-4.6289,-4.6174,-4.6039,-4.5907,-4.6591,0.0,0.0,0.0,-5.0733,0.0,0.0,0.0,-5.3479,0.0,0.0,-5.1484,-4.9883,-4.8906,-4.8906,-4.7285,-4.6328,-4.6426,-4.6348,-4.6308,-4.6308,-4.6308,-4.6308,-4.6308,-4.6289,-4.6223,-4.6108,-4.6077,-4.6014,-4.5885,-4.5872,-4.5867,-4.5867,-4.59,-4.5876,-4.5877,-4.582,-4.579,-4.5782,-4.5651,-4.5594,-4.5594,-4.5594,-4.5094,-4.4412,-4.4335,-4.3816,-4.3047,-4.2104,-4.175,-4.1527,-4.0746,-4.0496,-4.0496,-4.0496,-4.0496,-4.0496,-4.0496,-4.0496,-4.0496,-4.0496,-4.0496,-4.0496,-4.0496,-4.0496,-4.0496,-4.0496,-3.9919,-3.9292,-3.887,-3.7527,-3.635,-3.5929,-3.5227,-3.4747,-3.4653,-3.4674,-3.4674,-3.4622,-3.4345,-3.4068,-3.3815,-3.3807,-3.3807,-3.3807,-3.3807,-3.3807,-3.3807,-3.3807,-3.3807,-3.3807,-3.3807,-3.3807,-3.3807,-3.3807,-3.3807,-3.3807,-3.3807,-3.3807,-5.0879,-5.0918,-5.0723,-4.9883,-4.9023,-4.8242,-4.7715,0.0,-4.6308,-4.6308,-4.6199,-4.605,-4.592,-4.6148,-4.6789,0.0,0.0,0.0,0.0,0.0,0.0,-5.2315,-5.2108,-5.1777,-5.1426,-4.9883,-4.8457,-4.7402,-4.6699,-4.6308,-4.6308,-4.6308,-4.6308,-4.6308,-4.6308,-4.6308,-4.6308,-4.6308,-4.6269,-4.6223,-4.6144,-4.6077,-4.6027,-4.5932,-4.5899,-4.5903,-4.5985,-4.5978,-4.5894,-4.5867,-4.583,-4.5783,-4.564,-4.5594,-4.5594,-4.5594,-4.5383,-4.5075,-4.5075,-4.4883,-4.4374,-4.3028,-4.2912,-4.3047,-4.1681,-4.0912,-4.0612,-4.1123,-4.0893,-4.0496,-4.0496,-4.0496,-4.0496,-4.0496,-4.0496,-4.0496,-4.0496,-4.0496,-4.0496,-4.0496,-3.9842,-3.9081,-3.843,-3.7203,-3.6108,-3.5504,-3.5144,-3.4944,-3.4944,-3.5088,-3.5113,-3.4963,-3.4675,-3.4464,-3.4341,-3.433,-3.433,-3.433,-3.433,-3.433,-3.433,-3.433,-3.4237,-3.4043,-3.4043,-3.3961,-3.3807,-3.3807,-3.3807,-3.3807,-3.3807,-3.3807,-5.1172,-5.1406,-5.1269,-5.0703,-4.9902,-4.9121,0.0,-4.7695,-4.707,-4.707,-4.679,-4.6507,-4.6378,-4.6313,-4.6657,0.0,0.0,-4.9497,-5.1045,0.0,0.0,0.0,0.0,-5.168,-5.1426,-4.9883,-4.8183,-4.6426,-4.6308,-4.6308,-4.6308,-4.6308,-4.6308,-4.6308,-4.6308,-4.6308,-4.6308,-4.6308,-4.6308,-4.6308,-4.6201,-4.615,-4.6168,-4.6053,-4.6027,-4.6011,-4.6117,-4.611,-4.6005,-4.5928,-4.5867,-4.5814,-4.5665,-4.5594,-4.5594,-4.5594,-4.5594,-4.5594,-4.5594,-4.5594,-4.5364,-4.3912,-4.3835,-4.4085,-4.2893,-4.1758,-4.095,-4.1316,-4.0969,-4.0496,-4.0496,-4.0496,-4.0496,-4.0496,-4.0496,-4.0496,-4.0496,-4.0496,-4.0496,-4.0496,-3.965,-3.8719,-3.8104,-3.6915,-3.5873,-3.5291,-3.5215,-3.5215,-3.5215,-3.5376,-3.5432,-3.5231,-3.5062,-3.4879,-3.4704,-3.4694,-3.4694,-3.4694,-3.4694,-3.4694,-3.4694,-3.4694,-3.4582,-3.4357,-3.4246,-3.4099,-3.3928,-3.3842,-3.3807,-3.3807,-3.3807,-3.3807,-5.1172,-5.1406,-5.1406,-5.1387,-5.0781,-5.0176,0.0,-4.9492,-4.8867,-4.8867,-4.8183,-4.7537,-4.7409,-4.7374,-4.7392,-4.7416,0.0,0.0,-5.1269,-5.2148,0.0,0.0,-5.2695,-5.2344,-5.1484,-4.9883,-4.8183,-4.6426,-4.6308,-4.6308,-4.6308,-4.6308,-4.6308,-4.6308,-4.6308,-4.6308,-4.6308,-4.6308,-4.6308,-4.6308,-4.6308,-4.6308,-4.6308,-4.6308,-4.6308,-4.6308,-4.6308,-4.6308,-4.6288,-4.6001,-4.5899,-4.5876,-4.5681,-4.5594,-4.5594,-4.5594,-4.5594,-4.5594,-4.5594,-4.5594,-4.546,-4.4566,-4.4297,-4.4297,-4.4278,-4.3104,-4.1604,-4.0746,-4.0516,-4.0496,-4.0496,-4.0496,-4.0496,-4.0496,-4.0496,-4.0496,-4.0496,-4.0496,-4.0496,-4.0496,-3.9142,-3.8007,-3.8007,-3.6615,-3.5519,-3.55,-3.55,-3.55,-3.55,-3.55,-3.55,-3.55,-3.5493,-3.5281,-3.4753,-3.4694,-3.4694,-3.4694,-3.4694,-3.4694,-3.4694,-3.4694,-3.4694,-3.4694,-3.4368,-3.4188,-3.4206,-3.3923,-3.3807,-3.3807,-3.3807,-3.3807,-5.1016,-5.1406,-5.1406,-5.1406,-5.0801,-5.0195,-5.0195,-4.9531,-4.8906,-4.8906,-4.8672,-4.8455,-4.8308,-4.8296,-4.8686,-4.9862,-5.0037,0.0,0.0,0.0,0.0,-5.1875,-5.1816,-5.125,-4.9824,-4.9219,-4.8183,-4.6426,-4.6308,-4.6308,-4.6308,-4.6308,-4.6308,-4.6308,-4.6308,-4.6308,-4.6308,-4.6308,-4.6308,-4.6308,-4.6308,-4.6308,-4.6308,-4.6308,-4.6308,-4.6308,-4.6308,-4.6308,-4.6289,-4.6001,-4.5899,-4.5876,-4.5688,-4.5594,-4.5594,-4.5594,-4.5594,-4.5594,-4.5594,-4.5594,-4.546,-4.4586,-4.4701,-4.4979,-4.3835,-4.3104,-4.2508,-4.1623,-4.095,-4.0496,-4.0496,-4.0496,-4.0496,-4.0496,-4.0496,-4.0496,-4.0496,-4.0496,-4.0496,-4.0496,-3.9631,-3.87,-3.8104,-3.7065,-3.6135,-3.5577,-3.55,-3.55,-3.55,-3.55,-3.55,-3.55,-3.55,-3.5432,-3.5266,-3.5258,-3.5258,-3.5258,-3.5258,-3.5258,-3.5258,-3.5258,-3.5155,-3.4972,-3.4879,-3.4725,-3.454,-3.4453,-3.4428,-3.4428,-3.4428,-3.4428,0.0,-5.1406,-5.1406,-5.1406,-5.1016,-5.0644,-5.0644,-5.0234,-4.9844,-4.9844,-4.9609,-4.9355,-4.9285,-4.9228,-4.9456,-5.0256,-5.044,-5.0756,0.0,0.0,0.0,-5.1953,-5.1601,-5.0742,-4.9062,-4.8906,-4.8183,-4.6426,-4.6308,-4.6308,-4.6308,-4.6308,-4.6308,-4.6308,-4.6308,-4.6308,-4.6308,-4.6308,-4.6308,-4.6308,-4.6308,-4.6308,-4.6308,-4.6308,-4.6308,-4.6308,-4.6308,-4.6308,0.0,-4.6072,-4.5955,-4.5881,-4.5729,-4.5651,-4.5594,-4.5594,-4.5594,-4.5594,-4.5594,-4.5594,-4.5518,-4.4979,-4.5171,-4.5344,-4.397,-4.3335,-4.2912,-4.2047,-4.1412,-4.0912,-4.0593,-4.0496,-4.0496,-4.0496,-4.0496,-4.0496,-4.0496,-4.0496,-4.0496,-4.0496,-3.9592,-3.8642,-3.8084,-3.7026,-3.6077,-3.5577,-3.55,-3.55,-3.55,-3.55,-3.55,-3.55,-3.55,-3.55,-3.55,-3.55,-3.55,-3.55,-3.55,-3.55,-3.55,-3.55,-3.5424,-3.5246,-3.5147,-3.5008,-3.486,-3.4744,-3.4694,-3.4694,-3.4694,-3.4694,0.0,-5.1367,-5.1406,-5.1406,-5.1406,-5.1406,-5.1406,-5.1406,0.0,-5.1406,-5.0801,-5.0293,-5.0293,-5.0144,-4.9838,-4.9257,-5.026,-5.0953,0.0,-5.166,0.0,-5.2773,-5.1973,-5.0742,-4.9062,-4.8906,-4.8183,-4.6426,-4.6308,-4.6308,-4.6308,-4.6308,-4.6308,-4.6308,-4.6308,-4.6308,-4.6308,-4.6308,-4.6308,-4.6308,-4.6308,-4.6308,-4.6308,-4.6308,-4.6308,-4.6308,-4.6308,-4.6308,-4.6289,-4.6168,-4.6027,-4.589,-4.5826,-4.5723,-4.5594,-4.5594,-4.5594,-4.5594,-4.5594,-4.5594,-4.5594,-4.5594,-4.5594,-4.5441,-4.4566,-4.3739,-4.2912,-4.2047,-4.175,-4.1527,-4.0708,-4.0496,-4.0496,-4.0496,-4.0496,-4.0496,-4.0496,-4.0496,-4.0477,-4.0439,-3.9161,-3.8046,-3.793,-3.6615,-3.5577,-3.5519,-3.55,-3.55,-3.55,-3.55,-3.55,-3.55,-3.55,-3.55,-3.55,-3.55,-3.55,-3.55,-3.55,-3.55,-3.55,-3.55,-3.55,-3.55,-3.5266,-3.5122,-3.5122,-3.4889,-3.4773,-3.4773,-3.4773,-3.4773,-5.043,0.0,-5.1406,-5.1406,-5.1406,-5.1406,0.0,-5.1406,-5.1406,0.0,0.0,0.0,-5.1113,-5.0585,-5.0526,-5.1621,-5.1034,-5.0838,-5.1953,-5.1875,-5.2207,-5.3535,-5.2344,-5.0742,-4.9062,-4.8906,-4.8183,-4.6426,-4.6308,-4.6308,-4.6308,-4.6308,-4.6308,-4.6308,-4.6308,-4.6308,-4.6308,-4.6308,-4.6308,-4.6308,-4.6308,-4.6308,-4.6308,-4.6308,-4.6308,-4.6308,-4.6308,-4.6308,-4.6289,-4.6168,-4.6027,-4.589,-4.5826,-4.5723,-4.5594,-4.5594,-4.5594,-4.5594,-4.5594,-4.5594,-4.5594,-4.5594,-4.5594,-4.5441,-4.4566,-4.3739,-4.2912,-4.2047,-4.1316,-4.0766,-4.0554,-4.0496,-4.0496,-4.0496,-4.0496,-4.0496,-4.0496,-4.0496,-4.0323,-3.9708,-3.9265,-3.8565,-3.7238,-3.6673,-3.6212,-3.5596,-3.55,-3.55,-3.55,-3.55,-3.55,-3.55,-3.55,-3.55,-3.55,-3.55,-3.55,-3.55,-3.55,-3.55,-3.55,-3.55,-3.55,-3.55,-3.5439,-3.5417,-3.5417,-3.5327,-3.5304,-3.5304,-3.5304,-3.5304,-5.0195,-5.0781,-5.1406,-5.1406,-5.1406,-5.1406,-5.1406,0.0,0.0,0.0,0.0,0.0,0.0,0.0,0.0,-5.1406,-5.1094,-5.1348,-5.3066,-5.2207,-5.2051,-5.3789,-5.2461,-5.0742,-4.9062,-4.8906,-4.8183,-4.6426,-4.6308,-4.6308,-4.6308,-4.6308,-4.6308,-4.6308,-4.6308,-4.6308,-4.6308,-4.6308,-4.6308,-4.6308,-4.6308,-4.6308,-4.6308,-4.6308,-4.6308,-4.6308,-4.6308,-4.6308,-4.6289,-4.6223,-4.608,-4.5894,-4.5861,-4.5743,-4.5594,-4.5594,-4.5594,-4.5594,-4.5594,-4.5594,-4.5594,-4.5594,-4.5594,-4.5364,-4.4124,-4.3451,-4.2912,-4.2047,-4.147,-4.0989,-4.0593,-4.0496,-4.0496,-4.0496,-4.0496,-4.0496,-4.0496,-4.0208,-3.9823,-3.9381,-3.8642,-3.7815,-3.6865,-3.6385,-3.6,-3.5577,-3.55,-3.55,-3.55,-3.55,-3.55,-3.55,-3.55,-3.55,-3.55,-3.55,-3.55,-3.55,-3.55,-3.55,-3.55,-3.55,-3.55,-3.55,-3.55,-3.55,-3.55,-3.55,-3.55,-3.55,-3.55,-3.55,-5.0,-5.0605,-5.125,-5.1367,-5.1406,-5.1406,-5.1406,0.0,0.0,0.0,0.0,0.0,0.0,-4.959,0.0,0.0,-5.0957,-5.1953,-5.3574,-5.2422,-5.1992,-5.3613,-5.2383,-5.0742,-4.9062,-4.8906,-4.8183,-4.6426,-4.6308,-4.6308,-4.6308,-4.6308,-4.6308,-4.6308,-4.6308,-4.6308,-4.6308,-4.6308,-4.6308,-4.6308,-4.6308,-4.6308,-4.6308,-4.6308,-4.6308,-4.6308,-4.6308,-4.6308,-4.6308,-4.6308,-4.6149,-4.5924,-4.5907,-4.5782,-4.5618,-4.5603,-4.5594,-4.5594,-4.5594,-4.5594,-4.5594,-4.5594,-4.5594,-4.5306,-4.3739,-4.3278,-4.3085,-4.2085,-4.1692,-4.1431,-4.0689,-4.0496,-4.0496,-4.0496,-4.0496,-4.0496,-4.0496,-3.9881,-3.9265,-3.913,-3.7796,-3.6654,-3.6538,-3.5942,-3.55,-3.55,-3.55,-3.55,-3.55,-3.55,-3.55,-3.55,-3.55,-3.55,-3.55,-3.55,-3.55,-3.55,-3.55,-3.55,-3.55,-3.55,-3.55,-3.55,-3.55,-3.55,-3.55,-3.55,-3.55,-3.55,-3.55,-3.55,-4.9101,-4.9726,-5.0547,-5.123,-5.1406,-5.1406,-5.1406,0.0,0.0,0.0,0.0,0.0,0.0,-4.9512,-4.9551,0.0,-5.1328,-5.1758,-5.2754,-5.2031,-5.1777,-5.2773,-5.2012,-5.0742,-4.9062,-4.8906,-4.8183,-4.6426,-4.6308,-4.6308,-4.6308,-4.6308,-4.6308,-4.6308,-4.6308,-4.6308,-4.6308,-4.6308,-4.6308,-4.6308,-4.6308,-4.6308,-4.6308,-4.6308,-4.6308,-4.6308,-4.6308,-4.6308,-4.6308,-4.6308,-4.6202,-4.6069,-4.5936,-4.585,-4.5761,-4.5643,-4.5594,-4.5594,-4.5594,-4.5594,-4.5594,-4.5594,-4.5594,-4.5421,-4.4412,-4.4124,-4.3797,-4.2239,-4.1277,-4.0669,-4.0535,-4.0496,-4.0496,-4.0496,-4.0496,-4.0496,-4.0496,-3.9881,-3.9092,-3.8334,-3.7392,-3.6481,-3.5808,-3.5577,-3.55,-3.55,-3.55,-3.55,-3.55,-3.55,-3.55,-3.55,-3.55,-3.55,-3.55,-3.55,-3.55,-3.55,-3.55,-3.55,-3.55,-3.55,-3.55,-3.55,-3.55,-3.55,-3.55,-3.55,-3.55,-3.55,-3.55,-3.55,-4.8203,-4.918,-5.0293,-5.0664,-5.1074,-5.1406,-5.1406,0.0,0.0,0.0,0.0,0.0,0.0,0.0,-4.9453,-5.1133,-5.1406,-5.1699,-5.2578,-5.1953,-5.1719,-5.2598,-5.1543,-5.0254,-4.9023,-4.8476,-4.7676,-4.6406,-4.6308,-4.6308,-4.6308,-4.6308,-4.6308,-4.6308,-4.6308,-4.6308,-4.6308,-4.6308,-4.6308,-4.6308,-4.6308,-4.6308,-4.6308,-4.6308,-4.6308,-4.6308,-4.6308,-4.6308,-4.6308,-4.6308,-4.6223,-4.6084,-4.5944,-4.5861,-4.5776,-4.566,-4.5594,-4.5594,-4.5594,-4.5594,-4.5594,-4.5594,-4.5594,-4.5441,-4.4566,-4.3989,-4.3393,-4.2162,-4.1508,-4.1085,-4.0631,-4.0496,-4.0496,-4.0496,-4.0496,-4.0381,-3.9958,-3.9188,-3.8334,-3.7469,-3.6615,-3.5923,-3.5558,-3.55,-3.55,-3.55,-3.55,-3.55,-3.55,-3.55,-3.55,-3.55,-3.55,-3.55,-3.55,-3.55,-3.55,-3.55,-3.55,-3.55,-3.55,-3.55,-3.55,-3.55,-3.55,-3.55,-3.55,-3.55,-3.55,-3.55,-3.55,-3.55,-4.7539,-4.8574,-4.9648,-4.9844,0.0,-5.1172,-5.1367,-5.1094,0.0,0.0,0.0,0.0,0.0,-4.9355,-4.9844,-5.0937,-5.1289,-5.1621,-5.2305,-5.1816,-5.1641,-5.2324,-5.1094,-4.9863,-4.8984,-4.8105,-4.7246,-4.6367,-4.6308,-4.6308,-4.6308,-4.6308,-4.6308,-4.6308,-4.6308,-4.6308,-4.6308,-4.6308,-4.6308,-4.6308,-4.6308,-4.6308,-4.6308,-4.6308,-4.6308,-4.6308,-4.6308,-4.6308,-4.6308,-4.6308,-4.6246,-4.6122,-4.5995,-4.5891,-4.5776,-4.566,-4.5594,-4.5594,-4.5594,-4.5594,-4.5594,-4.5594,-4.5594,-4.5479,-4.4797,-4.4162,-4.3451,-4.2412,-4.2104,-4.1854,-4.0785,-4.0496,-4.0496,-4.0496,-4.0496,-4.0285,-3.9477,-3.8623,-3.7738,-3.6865,-3.6058,-3.55,-3.55,-3.55,-3.55,-3.55,-3.55,-3.55,-3.55,-3.55,-3.55,-3.55,-3.55,-3.55,-3.55,-3.55,-3.55,-3.55,-3.55,-3.55,-3.55,-3.55,-3.55,-3.55,-3.55,-3.55,-3.55,-3.55,-3.55,-3.55,-3.55,-3.55,-4.7383,-4.7695,-4.7988,-4.8789,-4.9648,0.0,-5.123,-5.0195,0.0,-5.0058,0.0,0.0,0.0,-5.0723,-5.1016,-5.0391,-5.0918,-5.1426,-5.1484,-5.1445,-5.1426,-5.1484,-5.0723,-4.9863,-4.8984,-4.8105,-4.7246,-4.6367,-4.6308,-4.6308,-4.6308,-4.6308,-4.6308,-4.6308,-4.6308,-4.6308,-4.6308,-4.6308,-4.6308,-4.6308,-4.6308,-4.6308,-4.6308,-4.6308,-4.6308,-4.6308,-4.6308,-4.6308,-4.6308,-4.6308,-4.6289,-4.6269,-4.6144,-4.5963,-4.5776,-4.566,-4.5594,-4.5594,-4.5594,-4.5594,-4.5594,-4.5594,-4.5594,-4.5594,-4.5537,-4.5479,-4.5075,-4.3451,-4.3008,-4.2624,-4.0939,-4.0496,-4.0496,-4.0496,-4.0496,-4.0285,-3.9477,-3.8623,-3.7738,-3.6865,-3.6058,-3.55,-3.55,-3.55,-3.55,-3.55,-3.55,-3.55,-3.55,-3.55,-3.55,-3.55,-3.55,-3.55,-3.55,-3.55,-3.55,-3.55,-3.55,-3.55,-3.55,-3.55,-3.55,-3.55,-3.55,-3.55,-3.55,-3.55,-3.55,-3.55,-3.55,-3.55,-4.6699,-4.7578,-4.8359,-4.8144,0.0,0.0,0.0,-5.0156,-4.9941,-5.0781,-5.0293,0.0,0.0,-5.0488,-5.1133,-5.0332,-5.0879,-5.1406,-5.1406,-5.1406,-5.1211,-5.0703,-4.9902,-4.9043,-4.8183,-4.7305,-4.6641,-4.6328,-4.6308,-4.6308,-4.6308,-4.6308,-4.6308,-4.6308,-4.6308,-4.6308,-4.6308,-4.6308,-4.6308,-4.6308,-4.6308,-4.6308,-4.6308,-4.6308,-4.6308,-4.6308,-4.6308,-4.6308,-4.6308,-4.6308,-4.6308,-4.6289,-4.6149,-4.6008,-4.5861,-4.5805,-4.5757,-4.5718,-4.5718,-4.5673,-4.5594,-4.5594,-4.5594,-4.5594,-4.5594,-4.4883,-4.3912,-4.3278,-4.2316,-4.1324,-4.0669,-4.0496,-4.0496,-4.0496,-4.0112,-3.9515,-3.8661,-3.7815,-3.6949,-3.6115,-3.5712,-3.55,-3.55,-3.55,-3.55,-3.55,-3.55,-3.55,-3.55,-3.55,-3.55,-3.55,-3.55,-3.55,-3.55,-3.55,-3.55,-3.55,-3.55,-3.55,-3.55,-3.55,-3.55,-3.55,-3.55,-3.55,-3.55,-3.55,-3.55,-3.55,-3.55,-3.55,-4.6308,-4.7168,-4.8008,0.0,0.0,0.0,-5.0078,-5.0195,-5.043,-5.123,-5.0762,-4.9922,-4.9062,-5.0058,-5.0742,-4.9922,-5.0703,-5.1308,-5.1055,-5.1016,-5.0703,-4.9883,-4.9023,-4.8262,-4.7656,-4.6816,-4.6308,-4.6308,-4.6308,-4.6308,-4.6308,-4.6308,-4.6308,-4.6308,-4.6308,-4.6308,-4.6308,-4.6308,-4.6308,-4.6308,-4.6308,-4.6308,-4.6308,-4.6308,-4.6308,-4.6308,-4.6308,-4.6308,-4.6308,-4.6308,-4.6308,-4.6289,-4.6149,-4.6042,-4.5967,-4.5912,-4.5855,-4.5803,-4.5803,-4.574,-4.5657,-4.5657,-4.5685,-4.5684,-4.568,-4.4673,-4.3482,-4.3179,-4.2047,-4.0854,-4.0573,-4.0496,-4.0496,-4.0496,-4.0073,-3.9381,-3.8238,-3.7526,-3.6788,-3.5712,-3.55,-3.55,-3.55,-3.55,-3.55,-3.55,-3.55,-3.55,-3.55,-3.5712,-3.5885,-3.5885,-3.5885,-3.5788,-3.5519,-3.55,-3.55,-3.55,-3.55,-3.55,-3.55,-3.55,-3.55,-3.55,-3.55,-3.55,-3.55,-3.55,-3.55,-3.55,-3.55,-3.55,-4.6308,-4.6308,-4.6523,0.0,0.0,0.0,-4.9805,0.0,-5.043,-5.123,-5.0762,-4.9922,-4.9062,-4.9609,-4.9902,-4.9023,-5.0293,-5.1094,-5.0293,-5.0195,-4.9863,-4.8984,-4.8125,-4.7598,-4.7598,-4.6816,-4.6308,-4.6308,-4.6308,-4.6308,-4.6308,-4.6308,-4.6308,-4.6308,-4.6308,-4.6308,-4.6308,-4.6308,-4.6308,-4.6308,-4.6308,-4.6308,-4.6308,-4.6308,-4.6308,-4.6308,-4.6308,-4.6308,-4.6308,-4.6308,-4.6308,-4.6289,-4.6149,-4.6091,-4.6082,-4.5944,-4.5861,-4.5803,-4.5803,-4.5803,-4.5803,-4.5803,-4.5853,-4.5896,-4.5814,-4.5183,-4.4299,-4.3362,-4.247,-4.1585,-4.0727,-4.0496,-4.0496,-4.0496,-4.0496,-4.0035,-3.8373,-3.8007,-3.7507,-3.5827,-3.55,-3.55,-3.5507,-3.5507,-3.55,-3.55,-3.55,-3.5519,-3.5519,-3.6212,-3.6712,-3.6712,-3.6692,-3.6385,-3.5577,-3.55,-3.55,-3.55,-3.55,-3.55,-3.55,-3.55,-3.55,-3.55,-3.55,-3.55,-3.55,-3.55,-3.55,-3.55,-3.55,-3.55,-4.6465,-4.6758,0.0,-4.7539,0.0,0.0,0.0,0.0,0.0,0.0,-5.0762,-4.9922,-4.9062,-4.9101,-4.9004,-4.8125,-4.8926,-4.9551,-4.9316,-4.9297,-4.8965,-4.8086,-4.7754,-4.7363,-4.6758,-4.6445,-4.6308,-4.6308,-4.6308,-4.6308,-4.6308,-4.6308,-4.6308,-4.6308,-4.6308,-4.6308,-4.6308,-4.6308,-4.6308,-4.6308,-4.6308,-4.6308,-4.6308,-4.6308,-4.6308,-4.6308,-4.6308,-4.6308,-4.6308,-4.6308,-4.6308,-4.6308,-4.6267,-4.6246,-4.6245,-4.6199,-4.6108,-4.6004,-4.6004,-4.5955,-4.5867,-4.5867,-4.5872,-4.5894,-4.5877,-4.4808,-4.3531,-4.3247,-4.2073,-4.0843,-4.0573,-4.0496,-4.0496,-4.0496,-4.0073,-3.9515,-3.9015,-3.795,-3.6965,-3.6566,-3.5985,-3.5599,-3.5635,-3.5591,-3.5566,-3.5566,-3.6003,-3.6577,-3.718,-3.7469,-3.7603,-3.7603,-3.7065,-3.6596,-3.6365,-3.5827,-3.55,-3.55,-3.55,-3.55,-3.55,-3.55,-3.55,-3.55,-3.55,-3.55,-3.55,-3.55,-3.55,-3.55,-3.55,-3.55,-4.7285,-4.7461,0.0,-4.8457,-4.9414,-5.0195,-5.0195,0.0,0.0,0.0,-4.9746,-4.9004,-4.8476,-4.8379,-4.8203,-4.7695,-4.832,-4.8789,-4.8437,-4.8379,-4.8066,-4.7187,-4.707,-4.6875,-4.6348,-4.6308,-4.6308,-4.6308,-4.6308,-4.6308,-4.6308,-4.6308,-4.6288,-4.6224,-4.6223,-4.6223,-4.6223,-4.6223,-4.6247,-4.6308,-4.6308,-4.6308,-4.6308,-4.6308,-4.6308,-4.6308,-4.6308,-4.6308,-4.6308,-4.6308,-4.6308,-4.6308,-4.6308,-4.6308,-4.6308,-4.6308,-4.6222,-4.6108,-4.6108,-4.6045,-4.5981,-4.5981,-4.6024,-4.6045,-4.5992,-4.4756,-4.334,-4.323,-4.1938,-4.0574,-4.0519,-4.0496,-4.0496,-4.0496,-4.0131,-3.9688,-3.9381,-3.82,-3.7247,-3.7314,-3.6676,-3.6125,-3.6175,-3.6447,-3.6554,-3.622,-3.6817,-3.7597,-3.8407,-3.8527,-3.8527,-3.8527,-3.8046,-3.745,-3.675,-3.625,-3.5846,-3.5519,-3.55,-3.55,-3.55,-3.55,-3.55,-3.55,-3.55,-3.55,-3.55,-3.55,-3.55,-3.55,-3.55,-3.55,-4.8379,0.0,0.0,-4.9785,-5.0254,0.0,-5.0117,-5.0078,-4.9863,-4.9062,-4.8203,-4.7598,-4.7598,-4.7539,-4.748,-4.748,-4.8144,-4.8398,-4.7598,-4.748,-4.7187,-4.6387,-4.6308,-4.6308,-4.6308,-4.6308,-4.6308,-4.6308,-4.6308,-4.6289,-4.6289,-4.6289,-4.6223,-4.6082,-4.6082,-4.6084,-4.6108,-4.6108,-4.6173,-4.6308,-4.6308,-4.6308,-4.6308,-4.6308,-4.6308,-4.6308,-4.6308,-4.6308,-4.6308,-4.6308,-4.6308,-4.6308,-4.6308,-4.6308,-4.6308,-4.6308,-4.6224,-4.6117,-4.6117,-4.6117,-4.6117,-4.6117,-4.62,-4.6288,-4.6168,-4.4944,-4.3553,-4.3311,-4.2005,-4.0667,-4.0545,-4.0512,-4.0496,-4.0496,-4.0496,-4.0304,-3.9573,-3.8734,-3.814,-3.8134,-3.7555,-3.7041,-3.7056,-3.7755,-3.8066,-3.7352,-3.7868,-3.8589,-3.9336,-3.9364,-3.9299,-3.9304,-3.9169,-3.845,-3.6942,-3.6673,-3.6308,-3.5654,-3.5538,-3.55,-3.55,-3.55,-3.55,-3.55,-3.55,-3.55,-3.55,-3.55,-3.55,-3.55,-3.55,-3.55,0.0,-4.8242,0.0,0.0,-5.0664,-5.0801,-4.9473,-4.918,-4.9121,-4.8945,-4.8203,-4.7598,-4.7598,-4.7031,-4.6582,-4.6582,-4.6738,-4.6797,-4.6601,-4.6582,-4.6504,-4.6328,-4.6308,-4.6308,-4.6308,-4.6308,-4.6308,-4.6308,-4.6308,-4.6248,-4.6147,-4.6145,-4.6082,-4.5959,-4.5936,-4.5992,-4.6108,-4.6108,-4.6173,-4.6308,-4.6308,-4.6308,-4.6308,-4.6308,-4.6308,-4.6308,-4.6308,-4.6308,-4.6308,-4.6308,-4.6308,-4.6308,-4.6308,-4.6308,-4.6308,-4.6308,-4.6289,-4.6267,-4.6267,-4.6267,-4.6267,-4.6267,-4.6288,-4.6289,-4.6268,-4.5006,-4.3591,-4.3524,-4.2157,-4.0692,-4.0655,-4.0588,-4.0496,-4.0496,-4.0496,-4.0458,-4.0285,-3.9637,-3.9129,-3.9243,-3.862,-3.8112,-3.8223,-3.8309,-3.8529,-3.8971,-3.9194,-3.9563,-4.0306,-3.9804,-3.9354,-3.9319,-3.8084,-3.7392,-3.77,-3.65,-3.5942,-3.6404,-3.5846,-3.55,-3.55,-3.55,-3.55,-3.55,-3.55,-3.55,-3.55,-3.55,-3.55,-3.55,-3.55,-3.55,0.0,0.0,0.0,0.0,0.0,-5.0488,-4.9199,-4.8574,-4.8164,-4.7734,-4.7285,-4.6973,-4.6973,-4.6601,-4.6308,-4.6308,-4.6308,-4.6308,-4.6308,-4.6308,-4.6308,-4.6308,-4.6308,-4.6308,-4.6308,-4.6308,-4.6308,-4.6308,-4.6308,-4.6246,-4.6113,-4.6108,-4.6021,-4.5855,-4.5845,-4.5891,-4.5998,-4.5998,-4.6091,-4.6308,-4.6308,-4.6308,-4.6308,-4.6308,-4.6308,-4.6308,-4.6308,-4.6308,-4.6308,-4.6308,-4.6308,-4.6308,-4.6308,-4.6308,-4.6308,-4.6308,-4.6308,-4.6308,-4.6308,-4.6308,-4.6308,-4.6308,-4.6308,-4.6211,-4.5801,-4.4724,-4.3542,-4.3093,-4.1944,-4.0839,-4.0762,-4.069,-4.0633,-4.0633,-4.0617,-4.0589,-4.0589,-4.0012,-3.963,-4.0085,-3.955,-3.9036,-3.911,-3.9112,-3.9375,-4.0159,-4.0265,-4.039,-4.0704,-4.0322,-4.0016,-3.9966,-3.9105,-3.8546,-3.8623,-3.745,-3.6692,-3.6692,-3.5942,-3.55,-3.55,-3.55,-3.55,-3.55,-3.55,-3.55,-3.55,-3.55,-3.55,-3.55,-3.55,-3.55,0.0,0.0,0.0,0.0,0.0,0.0,-4.9121,-4.834,-4.7539,-4.6504,-4.6308,-4.6308,-4.6308,-4.6308,-4.6308,-4.6308,-4.6308,-4.6308,-4.6308,-4.6308,-4.6308,-4.6308,-4.6308,-4.6308,-4.6308,-4.6308,-4.6308,-4.6308,-4.6308,-4.6225,-4.6077,-4.6072,-4.5975,-4.5763,-4.5775,-4.5796,-4.5886,-4.5886,-4.6014,-4.6268,-4.6289,-4.6308,-4.6308,-4.6308,-4.6308,-4.6308,-4.6308,-4.6308,-4.6308,-4.6308,-4.6308,-4.6308,-4.6308,-4.6308,-4.6308,-4.6308,-4.6191,-4.6074,-4.6074,-4.5976,-4.5879,-4.6035,-4.5976,-4.5742,-4.5176,-4.4297,-4.33,-4.2541,-4.1686,-4.0966,-4.0864,-4.0813,-4.0797,-4.0797,-4.0781,-4.0751,-4.0724,-4.0269,-4.0036,-4.071,-4.0369,-3.9958,-3.9953,-4.0053,-4.033,-4.0935,-4.1028,-4.099,-4.0857,-4.0631,-4.0499,-4.0471,-4.0221,-3.9804,-3.913,-3.8277,-3.7469,-3.675,-3.5942,-3.55,-3.55,-3.55,-3.55,-3.55,-3.55,-3.55,-3.55,-3.55,-3.55,-3.55,-3.55,-3.55,0.0,0.0,0.0,0.0,0.0,0.0,0.0,0.0,-4.8262,-4.6641,-4.6308,-4.6308,-4.6308,-4.6308,-4.6308,-4.6308,-4.6308,-4.6308,-4.6308,-4.6308,-4.6308,-4.6308,-4.6308,-4.6308,-4.6308,-4.6308,-4.6308,-4.6308,-4.6308,-4.6198,-4.5932,-4.5924,-4.5825,-4.5635,-4.5637,-4.5685,-4.5815,-4.5815,-4.5925,-4.612,-4.6247,-4.6308,-4.6308,-4.6308,-4.6308,-4.6308,-4.6308,-4.6308,-4.6308,-4.6308,-4.6308,-4.6308,-4.6308,-4.6308,-4.6308,-4.6308,-4.582,-4.5176,-4.5176,-4.4687,-4.418,-4.4922,-4.4668,-4.418,-4.4805,-4.3867,-4.2558,-4.2421,-4.1726,-4.0994,-4.0986,-4.0899,-4.0797,-4.0797,-4.0874,-4.0936,-4.0817,-4.0799,-4.0849,-4.0944,-4.0982,-4.0995,-4.0995,-4.1015,-4.1055,-4.1152,-4.1171,-4.1127,-4.0992,-4.0263,-3.9701,-3.9583,-3.8839,-3.8296,-3.818,-3.7373,-3.6827,-3.6712,-3.5942,-3.55,-3.55,-3.55,-3.55,-3.55,-3.55,-3.55,-3.55,-3.55,-3.55,-3.55,-3.55,-3.55,0.0,0.0,0.0,0.0,0.0,0.0,-4.918,-4.8516,-4.7812,-4.6562,-4.6308,-4.6308,-4.6308,-4.6308,-4.6308,-4.6308,-4.6308,-4.6308,-4.6308,-4.6308,-4.6308,-4.6308,-4.6308,-4.6308,-4.6308,-4.6308,-4.6308,-4.6308,-4.6225,-4.6091,-4.5907,-4.5852,-4.5777,-4.5603,-4.5594,-4.5665,-4.5796,-4.5803,-4.5896,-4.6108,-4.615,-4.6225,-4.6308,-4.6308,-4.6308,-4.6308,-4.6308,-4.6308,-4.6308,-4.6308,-4.6308,-4.6308,-4.6308,-4.6308,-4.623,-4.5742,-4.5332,-4.4922,-4.4433,-4.4336,-4.4492,-4.4883,-4.4746,-4.4414,-4.4297,-4.3398,-4.2305,-4.1855,-4.1424,-4.1105,-4.1105,-4.1077,-4.1025,-4.1025,-4.1077,-4.1102,-4.1048,-4.1077,-4.1105,-4.1105,-4.1151,-4.1191,-4.1191,-4.1191,-4.1191,-4.1191,-4.1191,-4.1171,-4.1126,-4.0684,-4.0363,-4.0301,-3.9869,-3.9367,-3.8833,-3.8015,-3.7295,-3.6738,-3.5942,-3.55,-3.55,-3.55,-3.55,-3.55,-3.55,-3.55,-3.55,-3.55,-3.55,-3.55,-3.5547,-3.557,0.0,0.0,0.0,0.0,0.0,0.0,0.0,0.0,-4.7676,-4.6816,-4.6445,-4.6308,-4.6308,-4.6308,-4.6308,-4.6308,-4.6308,-4.6308,-4.6308,-4.6308,-4.6308,-4.6308,-4.6308,-4.6308,-4.6308,-4.6308,-4.6308,-4.6308,-4.6174,-4.6042,-4.5907,-4.583,-4.5733,-4.5603,-4.5594,-4.5651,-4.5747,-4.5776,-4.5883,-4.6014,-4.6075,-4.6149,-4.6247,-4.6289,-4.6308,-4.6308,-4.6308,-4.6308,-4.6308,-4.6308,-4.6308,-4.6289,-4.6055,-4.6094,-4.6172,-4.5078,-4.4668,-4.457,-4.3926,-4.3984,-4.4414,-4.4863,-4.4707,-4.4258,-4.3828,-4.2949,-4.1973,-4.1367,-4.1191,-4.1191,-4.1191,-4.1191,-4.1191,-4.1191,-4.1191,-4.1191,-4.1191,-4.1191,-4.1191,-4.1191,-4.1191,-4.1191,-4.1191,-4.1191,-4.1191,-4.1191,-4.1191,-4.1191,-4.1191,-4.108,-4.0996,-4.0996,-4.0877,-4.0438,-3.9519,-3.8695,-3.7815,-3.6844,-3.6002,-3.5558,-3.5558,-3.5558,-3.5534,-3.5528,-3.5528,-3.5528,-3.55,-3.55,-3.5508,-3.5534,-3.5577,-3.5606,0.0,0.0,0.0,0.0,0.0,0.0,0.0,0.0,-4.8594,-4.7715,-4.6875,-4.6308,-4.6308,-4.6308,-4.6308,-4.6308,-4.6308,-4.6308,-4.6308,-4.6308,-4.6308,-4.6308,-4.6308,-4.6308,-4.6308,-4.6308,-4.6308,-4.6308,-4.6174,-4.6042,-4.5907,-4.583,-4.5733,-4.5603,-4.5594,-4.5594,-4.5612,-4.5733,-4.5809,-4.5809,-4.6001,-4.6091,-4.6115,-4.6247,-4.6308,-4.6308,-4.6308,-4.6308,-4.6308,-4.6308,-4.6308,-4.6211,-4.5391,-4.5566,-4.6094,-4.4394,-4.3769,-4.3769,-4.3711,-4.3183,-4.2812,-4.4453,-4.3887,-4.2676,-4.3457,-4.2558,-4.125,-4.1211,-4.1191,-4.1191,-4.1191,-4.1191,-4.1191,-4.1191,-4.1191,-4.1191,-4.1191,-4.1191,-4.1191,-4.1191,-4.1191,-4.1191,-4.1191,-4.1191,-4.1191,-4.1191,-4.1191,-4.1191,-4.1191,-4.108,-4.0996,-4.0996,-4.0877,-4.047,-3.9657,-3.8793,-3.7914,-3.7042,-3.616,-3.5689,-3.5689,-3.5689,-3.5663,-3.56,-3.56,-3.5568,-3.55,-3.55,-3.5528,-3.56,-3.5605,-3.5639,0.0,0.0,0.0,0.0,0.0,-4.9219,-4.8652,-4.8281,-4.7812,-4.6953,-4.6523,-4.6308,-4.6308,-4.6308,-4.6308,-4.6308,-4.6308,-4.6308,-4.6308,-4.6308,-4.6308,-4.6308,-4.6308,-4.6308,-4.6308,-4.6308,-4.6308,-4.6308,-4.6106,-4.594,-4.5903,-4.5751,-4.566,-4.5594,-4.5594,-4.5594,-4.5594,-4.5651,-4.5723,-4.5803,-4.5878,-4.5987,-4.611,-4.6147,-4.6223,-4.6308,-4.6308,-4.6308,-4.6308,-4.6308,-4.6308,-4.6269,-4.5957,-4.6035,-4.6094,-4.4336,-4.3691,-4.3555,-4.2461,-4.2598,-4.3242,-4.3301,-4.3281,-4.3183,-4.2949,-4.209,-4.1191,-4.1191,-4.1191,-4.1191,-4.1191,-4.1191,-4.1191,-4.1191,-4.1191,-4.1191,-4.1191,-4.1191,-4.1191,-4.1191,-4.1191,-4.1191,-4.1191,-4.1191,-4.1191,-4.1191,-4.1191,-4.1191,-4.1191,-4.1151,-4.1128,-4.1128,-4.1081,-4.0673,-3.9745,-3.8861,-3.7965,-3.706,-3.6177,-3.5707,-3.5707,-3.5707,-3.5689,-3.5652,-3.5652,-3.5611,-3.55,-3.554,-3.5577,-3.5591,-3.5725,-3.5811,-4.7012,0.0,0.0,0.0,0.0,-4.8476,-4.8476,-4.8027,-4.7519,-4.7226,-4.6719,-4.6308,-4.6308,-4.6308,-4.6308,-4.6308,-4.6308,-4.6308,-4.6308,-4.6308,-4.6308,-4.6308,-4.6308,-4.6308,-4.6308,-4.6308,-4.6289,-4.6245,-4.6033,-4.5881,-4.5876,-4.5711,-4.5594,-4.5594,-4.5594,-4.5594,-4.5594,-4.5594,-4.5651,-4.5725,-4.5769,-4.588,-4.6036,-4.608,-4.6174,-4.6308,-4.6308,-4.6308,-4.6308,-4.6308,-4.6308,-4.6269,-4.5976,-4.6035,-4.6094,-4.4336,-4.3887,-4.3945,-4.2539,-4.2773,-4.3594,-4.3027,-4.3027,-4.3203,-4.293,-4.207,-4.1269,-4.1523,-4.1406,-4.1191,-4.1191,-4.1191,-4.1191,-4.1191,-4.1191,-4.1191,-4.1191,-4.1191,-4.1191,-4.1191,-4.1191,-4.1191,-4.1191,-4.1191,-4.1191,-4.1191,-4.1191,-4.1191,-4.1191,-4.1191,-4.1191,-4.1191,-4.1191,-4.0937,-4.0261,-3.9146,-3.8199,-3.7583,-3.6445,-3.5799,-3.5799,-3.5799,-3.579,-3.5766,-3.5766,-3.569,-3.5574,-3.5616,-3.5657,-3.5694,-3.5848,-3.591,0.0,0.0,0.0,0.0,0.0,0.0,-4.9707,-4.8789,-4.7793,-4.8652,-4.748,-4.6308,-4.6308,-4.6308,-4.6308,-4.6308,-4.6308,-4.6308,-4.6308,-4.6308,-4.6308,-4.6308,-4.6308,-4.6308,-4.6308,-4.6308,-4.6247,-4.6113,-4.5978,-4.5867,-4.5809,-4.5673,-4.5594,-4.5594,-4.5594,-4.5594,-4.5594,-4.5594,-4.5594,-4.5594,-4.5733,-4.585,-4.5903,-4.6039,-4.6174,-4.6308,-4.6308,-4.6308,-4.6308,-4.6308,-4.6308,-4.6211,-4.5371,-4.5566,-4.6094,-4.4375,-4.4277,-4.4883,-4.4004,-4.3691,-4.3691,-4.3691,-4.3125,-4.2598,-4.3418,-4.2539,-4.1387,-4.2148,-4.1797,-4.1191,-4.1191,-4.1191,-4.1191,-4.1191,-4.1191,-4.1191,-4.1191,-4.1191,-4.1191,-4.1191,-4.1191,-4.1191,-4.1191,-4.1191,-4.1191,-4.1191,-4.1191,-4.1191,-4.1191,-4.1191,-4.1191,-4.1191,-4.1191,-4.1191,-4.1152,-3.959,-3.8594,-3.8555,-3.6953,-3.5996,-3.5996,-3.5996,-3.5973,-3.5905,-3.5903,-3.5841,-3.5713,-3.571,-3.5769,-3.5901,-3.5903,-3.5944,-4.6308,0.0,0.0,0.0,0.0,0.0,-4.7266,-4.7012,-4.6738,-4.6973,-4.6641,-4.6308,-4.6308,-4.6308,-4.6308,-4.6308,-4.6308,-4.6308,-4.6308,-4.6308,-4.6308,-4.6308,-4.6308,-4.6308,-4.6308,-4.6308,-4.6247,-4.6113,-4.5978,-4.5867,-4.5809,-4.5673,-4.5594,-4.5594,-4.5594,-4.5594,-4.5594,-4.5594,-4.5594,-4.5594,-4.5733,-4.585,-4.5903,-4.6039,-4.6174,-4.6308,-4.6308,-4.6308,-4.6308,-4.6308,-4.6308,-4.6289,-4.6035,-4.6094,-4.6172,-4.5058,-4.4785,-4.4883,-4.4004,-4.3691,-4.3691,-4.3691,-4.3535,-4.3262,-4.2871,-4.2441,-4.1992,-4.1621,-4.1367,-4.1191,-4.1191,-4.1191,-4.1191,-4.1191,-4.1191,-4.1191,-4.1191,-4.1191,-4.1191,-4.1191,-4.1191,-4.1191,-4.1191,-4.1191,-4.1191,-4.1191,-4.1191,-4.1191,-4.1191,-4.1191,-4.1191,-4.1191,-4.1191,-4.0937,-4.0312,-3.9238,-3.832,-3.7695,-3.6621,-3.5996,-3.5996,-3.5996,-3.5996,-3.5974,-3.5974,-3.5952,-3.5927,-3.5861,-3.5869,-3.5903,-3.5948,-3.5975,0.0,0.0,0.0,0.0,0.0,0.0,-4.6758,-4.6562,-4.6406,-4.6777,-4.6543,-4.6308,-4.6308,-4.6308,-4.6308,-4.6308,-4.6308,-4.6308,-4.6308,-4.6308,-4.6308,-4.6308,-4.6308,-4.6308,-4.6308,-4.6308,-4.6223,-4.6033,-4.5936,-4.5861,-4.5718,-4.5643,-4.5594,-4.5594,-4.5594,-4.5594,-4.5594,-4.5594,-4.5594,-4.5594,-4.5733,-4.585,-4.5903,-4.6039,-4.6174,-4.6308,-4.6308,-4.6308,-4.6308,-4.6308,-4.6308,-4.6308,-4.6308,-4.6308,-4.623,-4.5723,-4.5547,-4.543,-4.4531,-4.4238,-4.418,-4.3828,-4.3691,-4.3613,-4.3105,-4.2695,-4.2305,-4.1836,-4.1465,-4.1191,-4.1191,-4.1191,-4.1191,-4.1191,-4.1191,-4.1191,-4.1191,-4.1191,-4.1191,-4.1191,-4.1191,-4.1191,-4.1191,-4.1191,-4.1191,-4.1191,-4.1191,-4.1191,-4.1191,-4.1191,-4.1191,-4.1191,-4.0879,-4.0449,-3.9941,-3.8769,-3.7832,-3.7324,-3.6484,-3.5996,-3.5996,-3.5996,-3.5996,-3.5996,-3.5996,-3.5996,-3.5996,-3.5951,-3.5945,-3.5946,-3.5975,-3.5996,0.0,0.0,0.0,-4.6308,-4.6308,0.0,-4.7285,-4.6855,-4.6523,-4.7305,-4.6836,-4.6308,-4.6308,-4.6308,-4.6308,-4.6308,-4.6308,-4.6308,-4.6308,-4.6308,-4.6308,-4.6308,-4.6308,-4.6308,-4.6308,-4.6308,-4.6198,-4.5916,-4.5876,-4.5788,-4.5612,-4.5594,-4.5594,-4.5594,-4.5594,-4.5594,-4.5594,-4.5594,-4.5594,-4.5594,-4.5735,-4.5842,-4.5903,-4.6047,-4.6198,-4.6308,-4.6308,-4.6308,-4.6308,-4.6308,-4.6308,-4.6308,-4.6308,-4.6308,-4.6289,-4.6191,-4.6211,-4.6172,-4.5293,-4.4941,-4.4766,-4.418,-4.3789,-4.3574,-4.3672,-4.3086,-4.2383,-4.2285,-4.1758,-4.1191,-4.1191,-4.1191,-4.1191,-4.1191,-4.1191,-4.1191,-4.1191,-4.1191,-4.1191,-4.1191,-4.1191,-4.1191,-4.1191,-4.1191,-4.1191,-4.1191,-4.1191,-4.1191,-4.1191,-4.1191,-4.1191,-4.1191,-4.043,-3.9863,-3.9766,-3.8242,-3.7266,-3.7168,-3.6426,-3.5996,-3.5996,-3.5996,-3.5996,-3.5996,-3.5996,-3.5996,-3.5996,-3.5996,-3.5996,-3.5996,-3.5996,-3.5996,-4.6308,-4.6308,-4.6308,-4.6308,-4.6308,0.0,-4.6504,-4.6426,-4.6348,-4.6523,-4.6426,-4.6308,-4.6308,-4.6308,-4.6308,-4.6308,-4.6308,-4.6308,-4.6308,-4.6308,-4.6308,-4.6308,-4.6308,-4.6308,-4.6308,-4.6308,-4.6198,-4.5916,-4.5738,-4.5648,-4.5594,-4.5594,-4.5594,-4.5594,-4.5594,-4.5594,-4.5594,-4.5594,-4.5594,-4.5594,-4.5795,-4.5896,-4.5907,-4.6147,-4.6288,-4.6308,-4.6308,-4.6308,-4.6308,-4.6308,-4.6308,-4.6308,-4.6308,-4.6308,-4.6211,-4.5508,-4.5703,-4.6172,-4.5293,-4.4531,-4.416,-4.5391,-4.4375,-4.2773,-4.3496,-4.3086,-4.2266,-4.1621,-4.1328,-4.1191,-4.1191,-4.1191,-4.1191,-4.1191,-4.1191,-4.1191,-4.1191,-4.1191,-4.1191,-4.1191,-4.1191,-4.1191,-4.1191,-4.1191,-4.1191,-4.1191,-4.1191,-4.1191,-4.1191,-4.1191,-4.1191,-4.1191,-4.043,-3.9629,-3.8906,-3.7891,-3.6992,-3.6309,-3.6094,-3.5996,-3.5996,-3.5996,-3.5996,-3.5996,-3.5996,-3.5996,-3.5996,-3.5996,-3.5996,-3.5996,-3.5996,-3.5996,-4.6308,-4.6308,-4.6308,-4.6308,-4.6308,0.0,0.0,-4.6308,-4.6308,-4.6308,-4.6308,-4.6308,-4.6308,-4.6308,-4.6308,-4.6308,-4.6308,-4.6308,-4.6308,-4.6308,-4.6308,-4.6308,-4.6308,-4.6308,-4.6308,-4.6308,-4.6198,-4.5916,-4.5777,-4.5673,-4.5594,-4.5594,-4.5594,-4.5594,-4.5594,-4.5594,-4.5594,-4.5594,-4.5594,-4.5594,-4.5792,-4.5899,-4.5907,-4.6175,-4.6308,-4.6308,-4.6308,-4.6308,-4.6308,-4.6308,-4.6308,-4.6308,-4.6308,-4.6308,-4.625,-4.5801,-4.5918,-4.6172,-4.5293,-4.5,-4.5,-4.5,-4.4414,-4.3613,-4.3183,-4.2461,-4.1719,-4.1308,-4.1191,-4.1191,-4.1191,-4.1191,-4.1191,-4.1191,-4.1191,-4.1191,-4.1191,-4.1191,-4.1191,-4.1191,-4.1191,-4.1191,-4.1191,-4.1191,-4.1191,-4.1191,-4.1191,-4.1191,-4.1191,-4.082,-4.0547,-4.0547,-3.9375,-3.8437,-3.7988,-3.7148,-3.6465,-3.6035,-3.5996,-3.5996,-3.5996,-3.5996,-3.5996,-3.5996,-3.5996,-3.5996,-3.5996,-3.5996,-3.5996,-3.5996,-3.5996,-3.5996,-4.6308,-4.6308,-4.6308,-4.6308,-4.6308,-4.6308,0.0,0.0,0.0,-4.6308,-4.6308,-4.6308,-4.6308,-4.6308,-4.6308,-4.6308,-4.6308,-4.6308,-4.6308,-4.6308,-4.6308,-4.6308,-4.6308,-4.6308,-4.6308,-4.6288,-4.615,-4.5916,-4.5836,-4.574,-4.5603,-4.5594,-4.5594,-4.5594,-4.5594,-4.5594,-4.5594,-4.5594,-4.5612,-4.5643,-4.5822,-4.5912,-4.5959,-4.6198,-4.6308,-4.6308,-4.6308,-4.6308,-4.6308,-4.6308,-4.6308,-4.6308,-4.6308,-4.6308,-4.6289,-4.6113,-4.6152,-4.6152,-4.5117,-4.5215,-4.5566,-4.416,-4.4062,-4.4219,-4.2637,-4.1719,-4.1191,-4.1191,-4.1191,-4.1191,-4.1191,-4.1191,-4.1191,-4.1191,-4.1191,-4.1191,-4.1191,-4.1191,-4.1191,-4.1191,-4.1191,-4.1191,-4.1191,-4.1191,-4.1191,-4.1191,-4.1191,-4.1191,-4.1191,-4.0586,-4.0156,-4.0156,-3.873,-3.7793,-3.7793,-3.6855,-3.625,-3.625,-3.6094,-3.5996,-3.5996,-3.5996,-3.5996,-3.5996,-3.5996,-3.5996,-3.5996,-3.5996,-3.5996,-3.5996,-3.5996,-3.5996,-4.6308,-4.6308,-4.6308,-4.6308,-4.6308,-4.6308,-4.6308,0.0,-4.6308,-4.6308,0.0,-4.6308,-4.6308,0.0,0.0,-4.6308,-4.6308,-4.6308,-4.6308,-4.6308,-4.6308,-4.6308,-4.6308,-4.6308,-4.6308,-4.6199,-4.605,-4.5912,-4.5836,-4.574,-4.5603,-4.5594,-4.5594,-4.5594,-4.5594,-4.5594,-4.5594,-4.5594,-4.5657,-4.5769,-4.5852,-4.5951,-4.6082,-4.6225,-4.6308,-4.6308,-4.6308,-4.6308,-4.6308,-4.6308,-4.6308,-4.6308,-4.6308,-4.6308,-4.6211,-4.543,-4.5644,-4.6055,-4.4414,-4.3906,-4.3965,-4.3769,-4.3242,-4.2539,-4.1601,-4.1269,-4.1191,-4.1191,-4.1191,-4.1191,-4.1191,-4.1191,-4.1191,-4.1191,-4.1191,-4.1191,-4.1191,-4.1191,-4.1191,-4.1191,-4.1191,-4.1191,-4.1191,-4.1191,-4.1191,-4.1191,-4.1191,-4.1191,-4.1191,-4.1113,-4.1055,-4.1055,-4.0176,-3.9609,-3.9609,-3.8105,-3.7148,-3.7148,-3.6426,-3.5996,-3.5996,-3.5996,-3.5996,-3.5996,-3.5996,-3.5996,-3.5996,-3.5996,-3.5996,-3.5996,-3.5996,-3.5996,-4.6289,-4.6308,-4.6308,-4.6308,-4.6308,-4.6308,-4.6308,-4.6308,-4.6308,-4.6308,0.0,0.0,0.0,0.0,0.0,0.0,-4.6308,-4.6308,-4.6308,-4.6308,-4.6308,-4.6308,-4.6308,-4.6308,-4.6308,-4.6247,-4.612,-4.5912,-4.5872,-4.577,-4.5612,-4.5594,-4.5594,-4.5594,-4.5594,-4.5594,-4.5594,-4.5594,-4.5618,-4.5696,-4.582,-4.5924,-4.5992,-4.6201,-4.6308,-4.6269,-4.5762,-4.582,-4.6269,-4.5742,-4.584,-4.6308,-4.6308,-4.6308,-4.6269,-4.5898,-4.5935,-4.6023,-4.4862,-4.4391,-4.4188,-4.3241,-4.2383,-4.1641,-4.1308,-4.1191,-4.1191,-4.1191,-4.1191,-4.1191,-4.1191,-4.1191,-4.1191,-4.1191,-4.1191,-4.1191,-4.1191,-4.1191,-4.1191,-4.1191,-4.1191,-4.1191,-4.1191,-4.1191,-4.1191,-4.1191,-4.1191,-4.1191,-4.1191,-4.0762,-4.0449,-4.0449,-3.9668,-3.9141,-3.9141,-3.8008,-3.7305,-3.7305,-3.6484,-3.5996,-3.5996,-3.5996,-3.5996,-3.5996,-3.5996,-3.5996,-3.5996,-3.5996,-3.5996,-3.5996,-3.5996,-3.5996,-4.6202,-4.6247,-4.6248,-4.6289,-4.6308,-4.6308,-4.6308,-4.6308,-4.6308,-4.6308,-4.6308,0.0,0.0,0.0,-4.6308,-4.6308,0.0,-4.6308,-4.6308,-4.6308,-4.6308,-4.6308,-4.6308,-4.6308,-4.6308,-4.6308,-4.6201,-4.5978,-4.5916,-4.582,-4.5665,-4.5629,-4.5594,-4.5594,-4.5594,-4.5594,-4.5594,-4.5594,-4.5635,-4.5676,-4.5831,-4.5932,-4.6027,-4.6202,-4.6308,-4.6269,-4.5625,-4.5723,-4.625,-4.5625,-4.5723,-4.6308,-4.6308,-4.6289,-4.6247,-4.6247,-4.6015,-4.5645,-4.5126,-4.46,-4.3946,-4.2772,-4.1855,-4.1191,-4.1191,-4.1191,-4.1191,-4.1191,-4.1191,-4.1191,-4.1191,-4.1191,-4.1191,-4.1191,-4.1191,-4.1191,-4.1191,-4.1191,-4.1191,-4.1191,-4.1191,-4.1191,-4.1191,-4.1191,-4.1191,-4.1191,-4.1191,-4.1191,-4.1191,-4.0644,-4.0254,-4.0254,-3.9687,-3.9316,-3.9316,-3.8281,-3.7441,-3.6973,-3.6348,-3.5996,-3.5996,-3.5996,-3.5996,-3.5996,-3.5996,-3.5996,-3.5996,-3.5996,-3.5996,-3.5996,-3.5996,-3.5996,-4.6075,-4.6113,-4.6144,-4.6268,-4.6308,-4.6308,-4.6308,-4.6308,-4.6308,-4.6308,-4.6308,-4.6308,-4.6308,-4.6308,-4.6308,-4.6308,-4.6308,0.0,0.0,-4.6308,-4.6308,-4.6308,-4.6308,-4.6308,-4.6308,-4.6308,-4.6247,-4.6091,-4.5978,-4.5862,-4.5803,-4.5673,-4.5594,-4.5594,-4.5594,-4.5594,-4.5594,-4.5594,-4.5706,-4.589,-4.5894,-4.6036,-4.6289,-4.6308,-4.6308,-4.6308,-4.6269,-4.6269,-4.6308,-4.6269,-4.6269,-4.6308,-4.6308,-4.6223,-4.6113,-4.6113,-4.5526,-4.474,-4.4782,-4.3775,-4.2461,-4.2422,-4.1855,-4.1191,-4.1191,-4.1191,-4.1191,-4.1191,-4.1191,-4.1191,-4.1191,-4.1191,-4.1191,-4.1191,-4.1191,-4.1191,-4.1191,-4.1191,-4.1191,-4.1191,-4.1191,-4.1191,-4.1191,-4.1191,-4.1191,-4.1191,-4.1191,-4.1191,-4.1191,-4.1172,-4.1152,-4.1152,-4.1133,-4.1113,-4.1113,-3.9531,-3.7832,-3.6152,-3.6016,-3.5996,-3.5996,-3.5996,-3.5996,-3.5996,-3.5996,-3.5996,-3.5996,-3.5996,-3.5996,-3.5996,-3.5996,-3.5996,-4.5948,-4.5974,-4.5995,-4.6122,-4.6173,-4.6198,-4.6289,-4.6308,-4.6308,-4.6308,-4.6308,-4.6308,-4.6308,-4.6308,-4.6308,-4.6308,-4.6308,-4.6308,0.0,-4.6308,-4.6308,-4.6308,-4.6308,-4.6308,-4.6308,-4.6308,-4.6247,-4.6113,-4.5978,-4.5867,-4.5809,-4.5673,-4.5594,-4.5594,-4.5594,-4.5594,-4.5594,-4.5594,-4.5685,-4.5825,-4.5881,-4.5992,-4.6173,-4.6268,-4.6308,-4.6269,-4.5683,-4.5762,-4.6269,-4.5683,-4.5781,-4.6308,-4.6308,-4.6223,-4.6108,-4.6108,-4.5445,-4.4494,-4.4028,-4.3595,-4.3262,-4.3262,-4.2695,-4.1992,-4.1992,-4.1621,-4.1191,-4.1191,-4.1191,-4.1191,-4.1191,-4.1191,-4.1191,-4.1191,-4.1191,-4.1191,-4.1191,-4.1191,-4.1191,-4.1191,-4.1191,-4.1171,-4.108,-4.1076,-4.1102,-4.1191,-4.1191,-4.1191,-4.1191,-4.1191,-4.1191,-4.1191,-4.1191,-4.1191,-4.1191,-4.0137,-3.8711,-3.6973,-3.6855,-3.6601,-3.6016,-3.5996,-3.5996,-3.5996,-3.5996,-3.5996,-3.5996,-3.5996,-3.5996,-3.5996,-3.5996,-3.5996,-4.5834,-4.5852,-4.5886,-4.5992,-4.6033,-4.6047,-4.6144,-4.6199,-4.6225,-4.6225,-4.6268,-4.6308,-4.6308,-4.6308,-4.6308,-4.6308,-4.6308,-4.6308,0.0,-4.6308,-4.6308,-4.6308,-4.6308,-4.6308,-4.6308,-4.6308,-4.6268,-4.6175,-4.6045,-4.5931,-4.5836,-4.572,-4.566,-4.5594,-4.5594,-4.5594,-4.5594,-4.5594,-4.5665,-4.5803,-4.5881,-4.5974,-4.6091,-4.6246,-4.6308,-4.6269,-4.5703,-4.5781,-4.6269,-4.5683,-4.5781,-4.6308,-4.6308,-4.6223,-4.6087,-4.6045,-4.5589,-4.4902,-4.4172,-4.4028,-4.416,-4.416,-4.3574,-4.2793,-4.248,-4.2031,-4.1562,-4.1289,-4.1191,-4.1191,-4.1191,-4.1191,-4.1191,-4.1191,-4.1191,-4.1191,-4.1191,-4.1191,-4.1191,-4.1191,-4.1151,-4.1103,-4.1002,-4.0959,-4.0957,-4.1031,-4.1054,-4.1054,-4.1054,-4.1103,-4.1128,-4.1128,-4.1171,-4.1074,-4.0762,-4.0215,-3.9297,-3.7851,-3.7461,-3.7051,-3.6484,-3.6152,-3.5996,-3.5996,-3.5996,-3.5996,-3.5996,-3.5996,-3.5996,-3.5996,-3.5996,-3.5996]},{"header":{"parameterUnit":"m.s-1","parameterCategory":1,"la1":30.6,"la2":29.2853,"lo1":-89.7004,"lo2":-87.6739,"dy":0.0162,"dx":0.0183,"nx":112,"ny":82,"refTime":"2025-05-17T06:00:00:Z","depth":0,"parameterNumber":3,"parameterNumberName":"V-component_of_WINDS"},"data":[0.0,0.0,0.0,0.0,0.0,0.0,0.0,0.0,0.0,0.0,0.0,0.0,0.0,0.0,0.0,0.0,0.0,0.0,0.0,0.0,0.0,0.0,0.0,0.0,0.0,0.0,0.0,0.0,0.0,0.0,0.0,0.0,0.0,0.0,0.0,0.0,0.0,0.0,0.0,0.0,0.0,0.0,0.0,0.0,0.0,0.0,0.0,0.0,0.0,0.0,0.0,0.0,0.0,0.0,0.0,0.0,0.0,0.0,0.0,0.0,0.0,0.0,0.0,0.0,0.0,0.0,0.0,0.0,0.0,0.0,0.0,0.0,0.0,0.0,0.0,0.0,0.0,0.0,0.0,0.0,0.0,0.0,0.0,0.0,0.0,0.0,0.0,0.0,0.0,0.0,-0.9947,-0.8705,-1.0062,-1.1701,-1.3156,-1.4334,-1.5503,-1.662,0.0,0.0,0.0,0.0,0.0,0.0,0.0,0.0,0.0,0.0,0.0,0.0,0.0,0.0,0.0,0.0,0.0,0.0,0.0,0.0,0.0,0.0,0.0,0.0,0.0,0.0,0.0,0.0,0.0,0.0,0.0,0.0,0.0,0.0,0.0,0.0,0.0,0.0,0.0,0.0,0.0,0.0,0.0,0.0,0.0,0.0,0.0,0.0,0.0,0.0,0.0,0.0,0.0,0.0,0.0,0.0,0.0,0.0,0.0,0.0,0.0,0.0,0.0,0.0,0.0,0.0,0.0,0.0,0.0,0.0,0.0,0.0,0.0,0.0,0.0,0.0,0.0,0.0,0.0,0.0,0.0,0.0,0.0,0.0,0.0,0.0,0.0,0.0,0.0,0.0,0.0,0.0,0.0,0.0,0.0,0.0,0.0,0.0,0.0,0.0,0.0,0.0,0.0,0.0,-0.999,-0.8948,-1.021,-1.1701,-1.3156,-1.4334,-1.5503,-1.662,0.0,0.0,0.0,0.0,0.0,0.0,0.0,0.0,0.0,0.0,0.0,0.0,0.0,0.0,0.0,0.0,0.0,0.0,0.0,0.0,0.0,0.0,0.0,0.0,0.0,0.0,0.0,0.0,0.0,0.0,0.0,0.0,0.0,0.0,0.0,0.0,0.0,0.0,0.0,0.0,0.0,0.0,0.0,0.0,0.0,0.0,0.0,0.0,0.0,0.0,0.0,0.0,0.0,0.0,0.0,0.0,0.0,0.0,0.0,0.0,0.0,0.0,0.0,0.0,0.0,0.0,0.0,0.0,0.0,0.0,0.0,0.0,0.0,0.0,0.0,0.0,0.0,0.0,0.0,0.0,0.0,0.0,0.0,0.0,0.0,0.0,0.0,0.0,0.0,0.0,0.0,0.0,0.0,0.0,0.0,0.0,0.0,0.0,0.0,0.0,0.0,0.0,0.0,-1.0196,-0.9538,-1.0042,-1.1428,-1.2886,-1.4341,-1.5503,-1.6337,-1.667,-1.8189,0.0,0.0,0.0,0.0,0.0,0.0,0.0,0.0,0.0,0.0,0.0,0.0,0.0,0.0,0.0,0.0,0.0,0.0,0.0,0.0,0.0,0.0,0.0,0.0,0.0,0.0,0.0,0.0,0.0,0.0,0.0,0.0,0.0,0.0,0.0,0.0,0.0,0.0,0.0,0.0,0.0,0.0,0.0,0.0,0.0,0.0,0.0,0.0,0.0,0.0,0.0,0.0,0.0,0.0,0.0,0.0,0.0,0.0,0.0,0.0,0.0,0.0,0.0,0.0,0.0,0.0,0.0,0.0,0.0,0.0,0.0,0.0,0.0,0.0,0.0,0.0,0.0,0.0,0.0,0.0,0.0,0.0,0.0,0.0,0.0,0.0,0.0,0.0,0.0,0.0,0.0,0.0,0.0,0.0,0.0,0.0,0.0,0.0,0.0,0.0,0.0,0.0,-1.0034,-0.9998,-1.0967,-1.2729,-1.4234,-1.531,-1.6515,-1.7072,-1.6727,-1.8712,0.0,0.0,0.0,0.0,0.0,0.0,0.0,0.0,0.0,0.0,0.0,0.0,0.0,0.0,0.0,0.0,0.0,0.0,0.0,0.0,0.0,0.0,0.0,0.0,0.0,0.0,0.0,0.0,0.0,0.0,0.0,0.0,0.0,0.0,0.0,0.0,0.0,0.0,0.0,0.0,0.0,0.0,0.0,0.0,0.0,0.0,0.0,0.0,0.0,0.0,0.0,0.0,0.0,0.0,0.0,0.0,0.0,0.0,0.0,0.0,0.0,0.0,0.0,0.0,0.0,0.0,0.0,0.0,0.0,0.0,0.0,0.0,0.0,0.0,0.0,0.0,0.0,0.0,0.0,0.0,0.0,0.0,0.0,0.0,0.0,0.0,0.0,0.0,0.0,0.0,0.0,0.0,0.0,0.0,0.0,0.0,0.0,0.0,0.0,0.0,0.0,0.0,-1.1912,-1.2478,-1.121,-1.3588,-1.531,-1.5417,-1.6515,-1.7072,-1.6727,-1.8712,0.0,0.0,0.0,0.0,0.0,0.0,0.0,0.0,0.0,0.0,0.0,0.0,0.0,0.0,0.0,0.0,0.0,0.0,0.0,0.0,0.0,0.0,0.0,0.0,0.0,0.0,0.0,0.0,0.0,0.0,0.0,0.0,0.0,0.0,0.0,0.0,0.0,0.0,0.0,0.0,0.0,0.0,0.0,0.0,0.0,0.0,0.0,0.0,0.0,0.0,0.0,0.0,0.0,0.0,0.0,0.0,0.0,0.0,0.0,0.0,0.0,0.0,0.0,0.0,0.0,0.0,0.0,0.0,0.0,0.0,0.0,0.0,0.0,0.0,0.0,0.0,0.0,0.0,0.0,0.0,0.0,0.0,0.0,0.0,0.0,0.0,0.0,0.0,0.0,0.0,0.0,0.0,0.0,0.0,0.0,0.0,0.0,0.0,0.0,0.0,0.0,0.0,-1.3074,-1.3263,-1.3729,-1.477,-1.5677,-1.6469,-1.6943,-1.6998,-1.6466,0.0,0.0,0.0,0.0,0.0,0.0,0.0,0.0,0.0,0.0,0.0,0.0,0.0,0.0,0.0,0.0,0.0,0.0,0.0,0.0,0.0,0.0,0.0,0.0,0.0,0.0,0.0,0.0,0.0,0.0,0.0,0.0,0.0,0.0,0.0,0.0,0.0,0.0,0.0,0.0,0.0,0.0,0.0,0.0,0.0,0.0,0.0,0.0,0.0,0.0,0.0,0.0,0.0,0.0,0.0,0.0,0.0,0.0,0.0,0.0,0.0,0.0,0.0,0.0,0.0,0.0,0.0,0.0,0.0,0.0,0.0,0.0,0.0,0.0,0.0,0.0,0.0,0.0,0.0,0.0,0.0,0.0,0.0,0.0,0.0,0.0,0.0,0.0,0.0,0.0,0.0,0.0,0.0,0.0,0.0,0.0,0.0,0.0,0.0,0.0,0.0,0.0,-1.4612,-1.4459,-1.4565,-1.5223,-1.567,-1.6254,-1.6976,-1.6971,-1.671,-1.6159,0.0,0.0,0.0,0.0,0.0,0.0,0.0,0.0,0.0,0.0,0.0,0.0,0.0,0.0,0.0,0.0,0.0,0.0,0.0,0.0,0.0,0.0,0.0,0.0,0.0,0.0,0.0,0.0,0.0,0.0,0.0,0.0,0.0,0.0,0.0,0.0,0.0,0.0,0.0,0.0,0.0,0.0,0.0,0.0,0.0,0.0,0.0,0.0,0.0,0.0,0.0,0.0,0.0,0.0,0.0,0.0,0.0,0.0,0.0,0.0,0.0,0.0,0.0,0.0,0.0,0.0,0.0,0.0,0.0,0.0,0.0,0.0,0.0,0.0,0.0,0.0,0.0,0.0,0.0,0.0,0.0,0.0,0.0,0.0,0.0,0.0,0.0,0.0,0.0,0.0,0.0,0.0,0.0,0.0,0.0,0.0,0.0,0.0,0.0,0.0,0.0,0.0,-1.474,-1.6126,-1.6613,-1.5191,-1.6297,-1.7072,-1.6727,-1.644,-1.6146,0.0,0.0,0.0,0.0,0.0,0.0,0.0,0.0,0.0,0.0,0.0,0.0,0.0,0.0,0.0,0.0,0.0,0.0,0.0,0.0,0.0,0.0,0.0,0.0,0.0,0.0,0.0,0.0,0.0,0.0,0.0,0.0,0.0,0.0,0.0,0.0,0.0,0.0,0.0,0.0,0.0,0.0,0.0,0.0,0.0,0.0,0.0,0.0,0.0,0.0,0.0,0.0,0.0,0.0,0.0,0.0,0.0,0.0,0.0,0.0,0.0,0.0,0.0,0.0,0.0,0.0,0.0,0.0,0.0,0.0,0.0,0.0,0.0,0.0,0.0,0.0,0.0,0.0,0.0,0.0,0.0,0.0,0.0,0.0,0.0,0.0,0.0,0.0,0.0,0.0,0.0,0.0,0.0,0.0,0.0,0.0,0.0,0.0,0.0,0.0,0.0,0.0,0.0,-1.58,-1.6397,-1.6682,-1.6265,-1.6575,-1.672,-1.6426,-1.6375,-1.6059,-1.5558,0.0,0.0,0.0,0.0,0.0,0.0,0.0,0.0,0.0,0.0,0.0,0.0,0.0,0.0,0.0,0.0,0.0,0.0,0.0,0.0,0.0,0.0,0.0,0.0,0.0,0.0,0.0,0.0,0.0,0.0,0.0,0.0,0.0,0.0,0.0,0.0,0.0,0.0,0.0,0.0,0.0,0.0,0.0,0.0,0.0,0.0,0.0,0.0,0.0,0.0,0.0,0.0,0.0,0.0,0.0,0.0,0.0,0.0,0.0,0.0,0.0,0.0,0.0,0.0,0.0,0.0,0.0,0.0,0.0,0.0,0.0,0.0,0.0,0.0,0.0,0.0,0.0,0.0,0.0,0.0,0.0,0.0,0.0,0.0,0.0,0.0,0.0,0.0,0.0,0.0,0.0,0.0,0.0,0.0,0.0,0.0,0.0,0.0,0.0,0.0,0.0,0.0,-1.6046,-1.6353,-1.6533,-1.6533,-1.6533,-1.6413,-1.6119,-1.6092,-1.5845,-1.5257,0.0,0.0,0.0,0.0,0.0,0.0,0.0,0.0,0.0,0.0,0.0,0.0,0.0,0.0,0.0,0.0,0.0,0.0,0.0,0.0,0.0,0.0,0.0,0.0,0.0,0.0,0.0,0.0,0.0,0.0,0.0,0.0,0.0,0.0,0.0,0.0,0.0,0.0,0.0,0.0,0.0,0.0,0.0,0.0,0.0,0.0,0.0,0.0,0.0,0.0,0.0,0.0,0.0,0.0,0.0,0.0,0.0,0.0,0.0,0.0,0.0,0.0,0.0,0.0,0.0,0.0,0.0,0.0,0.0,0.0,0.0,0.0,0.0,0.0,0.0,0.0,0.0,0.0,0.0,0.0,0.0,0.0,0.0,0.0,0.0,0.0,0.0,0.0,0.0,0.0,0.0,0.0,0.0,0.0,0.0,0.0,0.0,0.0,0.0,0.0,0.0,0.0,-1.5718,-1.6046,-1.6233,-1.6233,-1.6233,-1.6119,-1.5852,-1.5784,-1.5578,-1.5042,0.0,0.0,0.0,0.0,0.0,0.0,0.0,0.0,0.0,0.0,0.0,0.0,0.0,0.0,0.0,0.0,0.0,0.0,0.0,0.0,0.0,0.0,0.0,0.0,0.0,0.0,0.0,0.0,0.0,0.0,0.0,0.0,0.0,0.0,0.0,0.0,0.0,0.0,0.0,0.0,0.0,0.0,0.0,0.0,0.0,0.0,0.0,0.0,0.0,0.0,0.0,0.0,0.0,0.0,0.0,0.0,0.0,0.0,0.0,0.0,-0.8269,-0.815,0.0,0.0,0.0,0.0,0.0,0.0,0.0,0.0,0.0,0.0,0.0,0.0,0.0,0.0,0.0,0.0,0.0,0.0,0.0,0.0,0.0,0.0,0.0,0.0,0.0,0.0,0.0,0.0,0.0,0.0,0.0,0.0,0.0,0.0,0.0,0.0,0.0,0.0,0.0,0.0,-1.5444,-1.5745,-1.5925,-1.5925,-1.5925,-1.5899,-1.5832,-1.5784,-1.5578,-1.5042,-1.5068,0.0,0.0,0.0,0.0,0.0,0.0,0.0,0.0,0.0,0.0,0.0,0.0,0.0,0.0,0.0,0.0,0.0,0.0,0.0,0.0,0.0,0.0,0.0,0.0,0.0,0.0,0.0,0.0,0.0,0.0,0.0,0.0,0.0,0.0,0.0,0.0,0.0,0.0,0.0,0.0,0.0,0.0,0.0,0.0,0.0,0.0,0.0,0.0,0.0,0.0,0.0,0.0,0.0,0.0,0.0,0.0,0.0,0.0,0.0,-0.8404,-0.8326,0.0,0.0,0.0,0.0,0.0,0.0,0.0,0.0,0.0,0.0,0.0,0.0,0.0,0.0,0.0,0.0,0.0,0.0,0.0,0.0,0.0,0.0,0.0,0.0,0.0,0.0,0.0,0.0,0.0,0.0,0.0,0.0,0.0,0.0,0.0,0.0,0.0,0.0,0.0,0.0,-1.517,-1.5565,-1.5784,-1.5784,-1.5784,-1.5784,-1.5784,-1.5784,-1.5578,-1.5042,-1.5008,0.0,0.0,0.0,0.0,0.0,0.0,0.0,0.0,0.0,0.0,0.0,0.0,0.0,0.0,0.0,0.0,0.0,0.0,0.0,0.0,0.0,0.0,0.0,0.0,0.0,0.0,0.0,0.0,0.0,0.0,0.0,0.0,0.0,0.0,0.0,0.0,0.0,0.0,0.0,0.0,0.0,0.0,0.0,0.0,0.0,0.0,0.0,0.0,0.0,0.0,0.0,0.0,0.0,-0.855,-0.856,-0.856,-0.856,-0.856,-0.856,-0.856,-0.853,-0.8525,-0.8612,0.0,0.0,0.0,0.0,0.0,0.0,0.0,0.0,0.0,0.0,0.0,0.0,0.0,0.0,0.0,0.0,0.0,0.0,0.0,0.0,0.0,0.0,-1.5784,-1.5784,-1.5645,-1.5404,-1.5209,0.0,0.0,0.0,0.0,0.0,0.0,0.0,0.0,0.0,0.0,0.0,-1.5075,-1.5504,-1.5784,-1.5784,-1.5784,-1.5784,-1.5784,-1.5784,-1.5578,-1.5042,-1.5008,-1.5055,0.0,0.0,0.0,0.0,0.0,0.0,0.0,0.0,0.0,0.0,0.0,0.0,0.0,0.0,0.0,0.0,0.0,0.0,0.0,0.0,0.0,0.0,0.0,0.0,0.0,0.0,0.0,0.0,0.0,0.0,0.0,0.0,0.1298,0.0159,0.0,0.0,0.0,0.0,0.0,0.0,0.0,0.0,0.0,0.0,0.0,0.0,0.0,-0.5558,-0.8455,-0.8604,-0.8679,-0.8682,-0.8815,-0.8824,-0.8824,-0.8824,-0.8824,-0.8824,-0.8824,0.0,-0.8584,-0.9696,0.0,0.0,0.0,0.0,0.0,0.0,0.0,0.0,0.0,0.0,0.0,0.0,0.0,0.0,0.0,0.0,0.0,0.0,0.0,0.0,0.0,0.0,-1.5784,-1.5784,-1.5751,-1.5758,-1.5678,-1.5317,-1.4995,-1.4955,-1.4948,-1.481,0.0,0.0,0.0,0.0,0.0,0.0,-1.5304,-1.5625,-1.5784,-1.5784,-1.5784,-1.5784,-1.5784,-1.5784,-1.5578,-1.5042,-1.5008,-1.5189,-1.5584,-1.5172,0.0,0.0,0.0,0.0,0.0,0.0,0.0,0.0,0.0,0.0,0.0,0.0,0.0,0.0,0.0,0.0,0.0,0.0,0.0,0.0,0.0,0.0,0.0,0.0,0.0,0.0,0.0,0.0,0.0,0.2025,0.1523,0.0158,0.0,0.0,0.0,0.0,0.0,0.0,0.0,0.0,0.0,0.0,0.0,-0.409,-0.4321,-0.5757,-0.8608,-0.8764,-0.8838,-0.8842,-0.8851,-0.8885,-0.8878,-0.8849,-0.8811,-0.8804,-0.872,-0.8608,-0.8535,-0.91,-1.0129,-1.1344,0.0,0.0,0.0,0.0,-1.4949,-1.5045,-1.5635,-1.5784,-1.5758,-1.5638,0.0,0.0,0.0,0.0,0.0,0.0,0.0,-1.5784,-1.5784,-1.5784,-1.5784,-1.5784,-1.5784,-1.5784,-1.5784,-1.5631,-1.5404,-1.5237,-1.5204,-1.5064,-1.4603,-1.4656,0.0,0.0,0.0,-1.5251,-1.5378,-1.5651,-1.5784,-1.5784,-1.5784,-1.5718,-1.5598,-1.5585,-1.5337,-1.475,-1.4716,-1.4733,-1.4797,-1.444,-1.4591,0.0,0.0,0.0,0.0,0.0,0.0,0.0,0.0,0.0,0.0,0.0,0.0,0.0,0.0,0.0,0.0,0.0,0.0,0.0,0.0,0.0,0.0,0.0,0.0,0.0,0.0,0.0,0.0,0.2213,0.1485,0.0158,0.0,0.0,0.0,0.0,0.0,0.0,0.0,0.0,0.0,0.0,-0.1126,-0.3633,-0.4239,-0.57,-0.8164,-0.8659,-0.8885,-0.8885,-0.8844,-0.8824,-0.8821,-0.872,-0.8652,-0.8645,-0.853,-0.8462,-0.8428,-0.8428,-0.9938,-1.2199,-1.1982,-1.3499,-1.5784,-1.5784,-1.5784,-1.5784,-1.5784,-1.5784,-1.5792,-1.5578,-1.5458,-1.5371,-1.5224,0.0,0.0,0.0,0.0,-1.5784,-1.5784,-1.5784,-1.5784,-1.5784,-1.5784,-1.5784,-1.5784,-1.5784,-1.5718,-1.5545,-1.5504,-1.5344,-1.4836,-1.493,0.0,-1.4776,-1.5117,-1.5424,-1.5498,-1.5698,-1.5784,-1.5784,-1.5718,-1.5631,-1.5418,-1.5331,-1.5064,-1.4506,-1.4522,-1.4389,-1.4095,-1.3874,-1.3926,-1.4356,0.0,0.0,0.0,0.0,0.0,0.0,0.0,0.0,0.0,0.0,0.0,0.0,0.0,0.0,0.0,0.0,0.0,0.0,0.0,0.0,0.0,0.0,0.0,0.0,0.0,0.0,0.0,0.0,0.0,0.0163,0.0,0.0,0.0,0.0,0.0,0.0,0.0,0.0,0.0,0.0,-0.071,-0.2235,-0.3708,-0.5244,-0.6805,-0.8208,-0.8885,-0.8881,-0.8791,-0.8723,-0.8716,-0.8564,-0.8492,-0.8492,-0.8486,-0.8408,-0.8333,-0.8333,-0.9833,-1.2199,-1.1982,-1.3499,-1.5784,-1.5784,-1.5784,-1.5784,-1.5784,-1.5784,-1.5778,-1.5764,-1.5618,-1.5444,-1.5705,-1.5605,0.0,0.0,-1.5784,-1.5784,-1.5784,-1.5784,-1.5784,-1.5784,-1.5784,-1.5784,-1.5784,-1.5784,-1.5778,-1.5764,-1.5758,-1.5712,-1.5404,0.0,-1.5371,-1.5357,-1.5378,-1.5498,-1.5772,-1.5771,-1.5784,-1.5784,-1.5585,-1.5411,-1.5398,-1.5189,-1.485,-1.4536,-1.4522,-1.4389,-1.4095,-1.4075,-1.3921,-1.3668,-1.3373,0.0,0.0,0.0,0.0,0.0,0.0,0.0,0.0,0.0,0.0,0.0,0.0,0.0,0.0,0.0,0.0,0.0,0.0,0.0,0.0,0.0,0.0,0.0,0.0,0.0,0.0,0.0,0.0,0.0164,0.0,0.0,0.0,0.0,0.0,0.0,0.0,0.0,0.0,0.0,-0.0666,-0.2161,-0.273,-0.4188,-0.67,-0.7204,-0.7941,-0.8791,-0.8737,-0.8659,-0.856,-0.8414,-0.8347,-0.834,-0.8238,-0.817,-0.8123,-0.8123,-0.9157,-1.0775,-1.0708,-1.228,-1.4561,-1.4561,-1.5099,-1.5784,-1.5784,-1.5784,-1.5784,-1.5784,-1.5758,-1.5698,-1.5751,-1.5711,-1.5698,-1.5751,-1.5784,-1.5784,-1.5784,-1.5784,-1.5784,-1.5784,-1.5784,-1.5784,-1.5784,-1.5784,-1.5784,-1.5784,-1.5784,-1.5684,-1.5444,-1.5551,-1.5545,-1.517,-1.5277,-1.5364,-1.5284,-1.5277,-1.5277,-1.5277,-1.5177,-1.5044,-1.485,-1.4736,-1.4549,-1.4262,-1.4242,-1.4195,-1.4088,-1.4088,-1.3948,-1.3613,-1.35,-1.3304,0.0,0.0,0.0,0.0,0.0,0.0,0.0,0.0,0.0,0.0,0.0,0.0,0.0,0.0,0.0,0.0,0.0,0.0,0.0,0.0,0.0,0.0,0.0,0.0,0.0,0.2922,0.1529,0.0164,0.0,0.0,0.0,0.0,0.0,0.0,0.0,0.0,0.0,0.0,-0.0448,-0.1454,-0.1956,-0.3408,-0.5919,-0.6385,-0.7319,-0.871,-0.8611,-0.8509,-0.8408,-0.8258,-0.8194,-0.8187,-0.8032,-0.7988,-0.7988,-0.7988,-0.8531,-0.941,-1.0293,-1.1989,-1.3974,-1.4364,-1.5092,-1.5784,-1.5784,-1.5784,-1.5784,-1.5784,-1.5784,-1.5784,-1.5784,-1.5784,-1.5784,-1.5784,-1.5784,-1.5784,-1.5784,-1.5784,-1.5784,-1.5784,-1.5784,-1.5784,-1.5784,-1.5784,-1.5751,-1.5705,-1.5758,-1.5684,-1.5444,-1.5558,-1.5518,-1.5082,-1.5169,-1.5177,-1.5035,-1.5008,-1.5008,-1.5008,-1.4921,-1.4736,-1.4536,-1.4429,-1.4295,-1.4095,-1.4088,-1.4088,-1.4088,-1.3988,-1.3841,-1.3606,-1.3507,-1.3067,-1.2305,0.0,0.0,0.0,0.0,0.0,0.0,0.0,0.0,0.0,0.0,0.0,0.0,0.0,0.0,0.0,0.0,0.0,0.0,0.0,0.0,0.0,0.0,0.0,0.441,0.3055,0.164,0.0164,0.0,0.0,0.0,0.0,0.0,0.0,0.0,0.0,0.0,0.0,0.0,0.0,-0.1399,-0.2905,-0.447,-0.5766,-0.718,-0.8699,-0.8411,-0.832,-0.831,-0.8109,-0.7988,-0.7988,-0.7988,-0.7988,-0.7988,-0.7988,-0.7988,-0.8237,-1.0774,-1.2624,-1.3926,-1.5146,-1.5683,-1.573,-1.5778,-1.5784,-1.5784,-1.5784,-1.5784,-1.5784,-1.5784,-1.5784,-1.5784,-1.5784,-1.5784,-1.5784,-1.5784,-1.5784,-1.5784,-1.5784,-1.5784,-1.5784,-1.5784,-1.5771,-1.5732,-1.5451,-1.5618,-1.5712,-1.5431,-1.5384,-1.5284,-1.5035,-1.4995,0.0,-1.4981,-1.4981,-1.4981,-1.4981,-1.4676,-1.4502,-1.4502,-1.4249,-1.4088,-1.4088,-1.4088,-1.4088,-1.4088,-1.3808,-1.3613,-1.36,-1.3327,-1.2926,-1.2318,0.0,0.0,0.0,0.0,0.0,0.0,0.0,0.0,0.0,0.0,0.0,0.0,0.0,0.0,0.0,0.0,0.0,0.0,0.0,0.0,0.0,0.799,0.7183,0.4573,0.3028,0.1667,0.0167,0.0,0.0,0.0,0.0,0.0,0.0,0.0,0.0,0.0,0.0,0.0,0.0,-0.0392,-0.1847,-0.447,-0.4724,-0.6109,-0.854,-0.836,-0.8211,-0.8102,-0.8008,-0.7988,-0.7988,-0.7988,-0.7988,-0.7988,-0.7988,-0.7988,-0.8088,-0.8775,-0.9899,-1.1116,-1.1453,-1.2813,-1.4561,-1.5486,-1.5784,-1.5784,-1.5784,-1.5784,-1.5784,-1.5784,-1.5784,-1.5784,-1.5784,-1.5784,-1.5784,-1.5784,-1.5784,-1.5784,-1.5784,-1.5784,-1.5784,-1.5784,-1.5665,-1.5491,-1.5411,-1.5291,-1.5223,-1.5142,-1.5129,-1.4983,-1.4689,-1.4643,-1.4569,-1.4355,-1.4329,-1.4329,-1.4329,-1.4255,-1.4208,-1.4208,-1.4135,-1.4088,-1.4088,-1.4088,-1.4088,-1.4088,-1.4008,-1.3868,-1.3606,-1.3527,-1.3227,0.0,0.0,0.0,0.0,0.0,0.0,0.0,0.0,0.0,0.0,0.0,0.0,0.0,0.0,0.0,0.0,0.0,0.0,0.0,0.0,0.0,0.0,0.8706,0.7977,0.5558,0.4052,0.2627,0.1119,0.0392,0.0,0.0,0.0,0.0,0.0,0.0,0.0,0.0,0.0,0.0,0.0,0.0,-0.1116,-0.3486,-0.3914,-0.5282,-0.7596,-0.7983,-0.8126,-0.7988,-0.7988,-0.7988,-0.7988,-0.7988,-0.7988,-0.7988,-0.7988,-0.7988,-0.8038,0.0,0.0,0.0,0.0,-1.2134,-1.4022,-1.4752,-1.5343,-1.5784,-1.5784,-1.5784,-1.5784,-1.5784,-1.5784,-1.5784,-1.5784,-1.5784,-1.5784,-1.5784,-1.5784,-1.5784,-1.5784,-1.5684,-1.5651,-1.5651,-1.5424,-1.5177,-1.505,-1.4897,0.0,-1.466,-1.474,-1.4676,-1.4382,-1.4342,-1.4282,-1.4108,-1.4088,-1.4088,-1.4088,-1.4088,-1.4088,-1.4088,-1.4088,0.0,0.0,0.0,-1.4035,-1.3908,-1.3901,0.0,0.0,0.0,0.0,0.0,-1.3427,0.0,0.0,-1.34,-1.346,0.0,0.0,0.0,0.0,0.0,0.0,0.0,0.0,0.0,0.0,0.0,0.0,0.0,0.0,0.0,0.0,0.8838,0.8436,0.7149,0.5697,0.4134,0.2403,0.0896,0.0,0.0,0.0,0.0,0.0,0.0,0.0,0.0,0.0,0.0,0.0,0.0,-0.0721,-0.2177,-0.3417,-0.4771,-0.6292,-0.7447,-0.7988,-0.7988,-0.7988,-0.7988,-0.7988,-0.7988,-0.7988,-0.7988,-0.7988,-0.7988,-0.8137,-0.9312,-0.9756,-0.9948,-1.1214,-1.2425,-1.3488,-1.3632,0.0,0.0,-1.5534,-1.5588,-1.5635,-1.5778,-1.5784,-1.5784,-1.5784,-1.5784,-1.5771,-1.5744,-1.5731,-1.5772,-1.5738,-1.5531,-1.5344,-1.5344,-1.5117,-1.4881,-1.4569,-1.4496,-1.4389,-1.4128,-1.4302,-1.4382,-1.4128,-1.4088,-1.4088,-1.4088,-1.4088,-1.4088,-1.4088,-1.4088,0.0,-1.4088,-1.4088,-1.4088,-1.4088,-1.4088,-1.3968,-1.366,-1.3653,-1.352,-1.3267,-1.3507,-1.3633,-1.36,-1.3941,-1.4088,-1.4075,-1.3554,-1.3447,0.0,0.0,0.0,0.0,0.0,0.0,0.0,0.0,0.0,0.0,0.0,0.0,0.0,0.0,0.0,0.8652,0.8838,0.8826,0.8491,0.7204,0.5248,0.2515,0.0896,0.0,0.0,0.0,0.0,0.0,0.0,0.0,0.0,0.0,0.0,0.0,0.0,-0.0708,-0.2191,-0.3405,-0.4763,-0.6292,-0.7447,0.0,-0.7988,-0.7988,-0.7988,-0.7988,-0.7988,-0.7988,-0.7988,-0.7988,-0.7988,-0.8038,-0.8283,-0.8382,-0.8528,-0.9899,-1.0534,-1.0921,-1.1945,-1.2431,-1.2818,-1.3926,-1.4262,-1.4459,-1.5486,-1.5784,0.0,-1.5784,-1.5784,-1.5724,-1.5538,-1.5478,-1.5424,-1.519,-1.5135,-1.5095,-1.5095,-1.4816,-1.4589,-1.4529,-1.4335,-1.4155,-1.4095,-1.4135,-1.4155,-1.4095,-1.4088,-1.4088,-1.4088,-1.4088,-1.4088,-1.4088,-1.4088,-1.4088,-1.4088,-1.4088,-1.4088,-1.4088,-1.4088,-1.4062,-1.4001,-1.4001,-1.3861,-1.3527,-1.3854,-1.3881,-1.36,-1.3941,-1.4088,-1.4082,-1.3968,-1.3948,0.0,0.0,0.0,0.0,0.0,0.0,0.0,0.0,0.0,0.0,0.0,0.7811,0.8585,0.0,0.8849,0.892,0.8937,0.8885,0.8885,0.7651,0.5862,0.3631,0.2014,0.0784,0.0056,0.0,0.0,0.0,0.0,0.0,0.0,0.0,0.0,0.0,0.0,-0.0375,-0.1103,-0.3011,-0.4365,-0.5187,-0.7109,-0.7988,-0.7988,-0.7988,-0.7988,-0.7988,-0.7988,-0.7988,-0.7988,-0.7988,-0.7988,-0.7988,-0.7988,-0.7988,-0.8088,-0.8775,-0.941,-1.0096,-1.073,-1.1365,-1.1994,-1.2673,-1.3343,-1.4022,-1.4657,-1.5289,-1.5751,-1.5651,-1.5611,-1.5545,-1.5257,-1.5177,-1.5189,-1.5042,-1.485,-1.4743,-1.4743,-1.4509,-1.4302,-1.4302,-1.4182,-1.4088,-1.4088,-1.4088,-1.4088,-1.4088,-1.4088,-1.4088,-1.4088,-1.4088,-1.4088,-1.4088,-1.4088,-1.4088,-1.4088,-1.4088,-1.4088,-1.4088,-1.4088,-1.4088,-1.4088,-1.3941,-1.3753,-1.3606,-1.3647,-1.3647,-1.36,-1.3753,-1.3941,-1.4088,-1.4088,-1.4088,0.0,0.0,0.0,0.0,0.0,0.0,0.0,0.0,0.8364,0.8394,0.8611,0.8825,0.8865,0.8905,0.9008,0.9096,0.9015,0.8885,0.8885,0.7875,0.6589,0.5085,0.3296,0.1733,0.056,0.0168,0.0,0.0,0.0,0.0,0.0,0.0,0.0,0.0,0.0,0.0,0.0,-0.2417,-0.3721,-0.4016,-0.6476,-0.7739,-0.7988,-0.7988,-0.7988,-0.7988,-0.7988,-0.7988,-0.7988,-0.7988,-0.7988,-0.7988,-0.7988,-0.7988,-0.7988,-0.7988,-0.8676,-0.9608,-0.9608,-1.0288,-1.1165,-1.1463,-1.228,-1.3199,-1.344,-1.4411,-1.538,-1.5093,-1.5206,-1.5317,-1.497,-1.4877,-1.4908,-1.4854,-1.4609,-1.4436,-1.4436,-1.4255,-1.4088,-1.4088,-1.4088,-1.4088,-1.4088,-1.4088,-1.4088,-1.4088,-1.4088,-1.4088,-1.4088,-1.4088,-1.4088,-1.4088,-1.4088,-1.4088,-1.4088,-1.4088,-1.4088,-1.4088,-1.4088,-1.4062,-1.4001,-1.3726,-1.358,-1.352,-1.3327,-1.3313,-1.36,-1.36,-1.3753,-1.4088,-1.4088,-1.4088,0.8255,0.8157,0.8123,0.837,0.835,0.837,0.0,0.0,0.8699,0.878,0.8991,0.9069,0.8902,0.9042,0.9093,0.8981,0.8895,0.8885,0.8885,0.8771,0.8097,0.6647,0.391,0.2124,0.1956,0.0784,0.0,0.0,0.0,0.0,0.0,0.0,0.0,0.0,0.0,0.0,0.0,-0.1465,-0.282,-0.4016,-0.5525,-0.6833,-0.7988,-0.7988,-0.7988,-0.7988,-0.7988,-0.7988,-0.7988,-0.7988,-0.7988,-0.7988,-0.7988,-0.7988,-0.7988,-0.7988,-0.8088,-0.8233,-0.8233,-0.8333,-0.8627,-0.9801,-1.0288,-1.0632,-1.1799,-1.306,-1.4017,-1.3702,-1.4486,-1.5271,-1.4716,-1.4569,-1.4502,-1.4249,-1.4162,-1.4135,-1.4135,-1.4108,-1.4088,-1.4088,-1.4088,-1.4088,-1.4088,-1.4088,-1.4088,-1.4088,-1.4088,-1.4088,-1.4088,-1.4088,-1.4088,-1.4088,-1.4088,-1.4088,-1.4088,-1.4088,-1.4088,-1.4088,-1.4088,-1.3968,-1.366,-1.362,-1.348,-1.3267,-1.3227,-1.3313,-1.36,-1.36,-1.3753,-1.4088,-1.4088,-1.4088,0.8344,0.8286,0.8306,0.0,0.8442,0.8554,0.8652,0.8693,0.8726,0.8794,0.8991,0.919,0.9076,0.9169,0.919,0.9072,0.8994,0.8885,0.8885,0.8885,0.866,0.8042,0.5361,0.3185,0.2291,0.084,0.0,0.0,0.0,0.0,0.0,0.0,0.0,0.0,0.0,0.0,0.0,-0.131,-0.2665,-0.4016,-0.5372,-0.6681,-0.7988,-0.7988,-0.7988,-0.7988,-0.7988,-0.7988,-0.7988,-0.7988,-0.7988,-0.7988,-0.7988,-0.7988,-0.7988,-0.7988,-0.7988,-0.7988,-0.7988,-0.7988,-0.8088,-0.8676,-0.9361,-1.0096,-1.0632,-1.209,-1.3549,-1.3246,-1.3991,-1.479,-1.4376,-1.4269,-1.4058,-1.3234,-1.3597,-1.3906,-1.3203,-1.3603,-1.4088,-1.4088,-1.4088,-1.4088,-1.4088,-1.4088,-1.4088,-1.4088,-1.4088,-1.4088,-1.4088,-1.4088,-1.4088,-1.4088,-1.4088,-1.4088,-1.4088,-1.3928,-1.3901,-1.4075,-1.3768,-1.3594,-1.36,-1.3307,-1.3066,-1.2985,-1.2772,-1.2826,-1.312,-1.33,-1.35,-1.3793,-1.4008,-1.4088,0.8248,0.8282,0.0,0.8333,0.8489,0.8638,0.8615,0.8696,0.8774,0.8774,0.8974,0.9197,0.91,0.9183,0.9197,0.91,0.9008,0.8885,0.8885,0.8885,0.8771,0.8322,0.6031,0.3911,0.2347,0.084,0.0,0.0,0.0,0.0,0.0,0.0,0.0,0.0,0.0,0.0,0.0,-0.131,-0.2665,-0.4016,-0.5372,-0.6681,-0.7988,-0.7988,-0.7988,-0.7988,-0.7988,-0.7988,-0.7988,-0.7988,-0.7988,-0.7988,-0.7988,-0.7988,-0.7988,-0.7988,-0.7988,-0.7988,-0.7988,-0.7988,-0.7988,-0.7988,-0.8676,-0.9452,-0.94,-1.0823,-1.239,-1.2405,-1.3185,-1.4046,-1.4077,-1.4088,-1.3864,-1.2984,-1.347,-1.3864,-1.2984,-1.347,-1.4088,-1.4088,-1.4088,-1.4088,-1.4088,-1.4088,-1.4088,-1.4088,-1.4088,-1.4088,-1.4088,-1.4088,-1.4055,-1.3975,-1.3968,-1.3935,-1.3854,-1.3647,-1.3573,-1.3834,-1.3447,-1.3267,-1.3353,-1.3018,-1.275,-1.2663,-1.2412,-1.2452,-1.2784,-1.2973,-1.3233,-1.3487,-1.3748,-1.3888,0.8039,0.0,0.8069,0.8404,0.8482,0.8567,0.8804,0.8871,0.8875,0.8875,0.9049,0.9166,0.8971,0.9059,0.9163,0.8967,0.8888,0.8885,0.8885,0.8885,0.8377,0.6924,0.5419,0.3911,0.2347,0.084,0.0,0.0,0.0,0.0,0.0,0.0,0.0,0.0,0.0,0.0,0.0,-0.131,-0.2665,-0.4016,-0.5372,-0.6681,-0.7988,-0.7988,-0.7988,-0.7988,-0.7988,-0.7988,-0.7988,-0.7988,-0.7988,-0.7988,-0.7988,-0.7988,-0.7988,-0.7988,-0.7988,-0.7988,-0.7988,-0.7988,-0.7988,-0.7988,-0.8038,-0.8011,-0.791,-0.8816,-1.006,-1.0674,-1.1838,-1.3056,-1.39,-1.4088,-1.4088,-1.4039,-1.4088,-1.4088,-1.4039,-1.4088,-1.4088,-1.4088,-1.4088,-1.4088,-1.4088,-1.4088,-1.4088,-1.4088,-1.4088,-1.4088,-1.4088,-1.4088,-1.3975,-1.3646,-1.362,-1.35,-1.326,-1.3227,-1.3227,-1.324,-1.322,-1.308,-1.2824,-1.2797,-1.265,-1.2318,-1.2305,-1.2452,-1.2784,-1.2797,-1.2958,-1.3227,-1.3233,-1.3387,0.8032,0.0,0.8218,0.8316,0.8414,0.8537,0.874,0.8788,0.8815,0.8861,0.8977,0.8994,0.8892,0.8977,0.8994,0.8892,0.8885,0.8885,0.8885,0.8885,0.8377,0.6869,0.6255,0.497,0.2458,0.0887,0.0,0.0,0.0,0.0,0.0,0.0,0.0,0.0,0.0,0.0,0.0,-0.131,-0.2665,-0.4016,-0.6276,-0.7587,-0.7988,-0.7988,-0.7988,-0.7988,-0.7988,-0.7988,-0.7988,-0.7988,-0.7988,-0.7988,-0.7988,-0.7988,-0.7988,-0.7988,-0.7988,-0.7988,-0.7988,-0.7988,-0.7988,-0.7988,-0.7988,-0.7961,-0.7858,-0.8592,-0.9478,-0.9632,-1.048,-1.1397,-1.1714,-1.1783,-1.1783,-1.1783,-1.2339,-1.2899,-1.2899,-1.3512,-1.4088,-1.4088,-1.4088,-1.4088,-1.4088,-1.4088,-1.4088,-1.4088,-1.3921,-1.3753,-1.3753,-1.3627,-1.3467,-1.3367,-1.3313,-1.3313,-1.322,-1.3019,-1.3025,-1.32,-1.2832,-1.2652,-1.2777,-1.2596,-1.2405,-1.2305,-1.2305,-1.2351,-1.2452,-1.269,-1.2837,-1.2945,-1.3113,-1.3267,0.7532,0.7832,0.8333,0.8333,0.8414,0.8523,0.8676,0.871,0.8754,0.8851,0.8841,0.8817,0.8871,0.8885,0.8885,0.8885,0.8885,0.8885,0.8885,0.8885,0.8156,0.6144,0.5919,0.4747,0.1733,0.0552,0.0,0.0,0.0,0.0,0.0,0.0,0.0,0.0,0.0,0.0,0.0,-0.131,-0.2916,-0.472,-0.693,-0.7988,-0.7988,-0.7988,-0.7988,-0.7988,-0.7988,-0.7988,-0.7988,-0.7988,-0.7988,-0.7988,-0.7988,-0.7988,-0.7982,-0.7928,-0.7911,-0.7917,-0.7971,-0.7988,-0.7988,-0.7988,-0.7955,-0.788,-0.778,-0.8142,-0.8662,-0.8935,-0.9499,-1.0096,-1.0481,-1.0611,-1.0611,-1.0611,-1.1171,-1.1809,-1.22,-1.2893,-1.3597,-1.3997,-1.4088,-1.4088,-1.4088,-1.4088,-1.4088,-1.4088,-1.3793,-1.36,-1.36,-1.344,-1.328,-1.3066,-1.3046,-1.2999,-1.2893,-1.2699,-1.2672,-1.2872,-1.2518,-1.2385,-1.2616,-1.2405,-1.2305,-1.2305,-1.2305,-1.2305,-1.2305,-1.2529,-1.2623,-1.263,-1.2792,-1.2939,0.6503,0.7123,0.8094,0.8223,0.8256,0.8299,0.8454,0.8487,0.8524,0.8728,0.8702,0.8642,0.0,0.0,0.8885,0.8885,0.8888,0.8895,0.8895,0.8895,0.7826,0.0,0.0,0.0,0.0,0.0166,0.0163,0.0,0.0,0.0,0.0,0.0,0.0,0.0,0.0,0.0,0.0,-0.141,-0.3417,-0.6029,-0.7335,-0.7988,-0.7988,-0.7988,-0.7988,-0.7988,-0.7988,-0.7988,-0.7988,-0.7988,-0.7988,-0.7988,-0.7988,-0.7988,-0.7971,-0.7875,-0.7824,-0.7841,-0.7938,-0.7978,-0.7968,-0.7975,-0.7877,-0.7773,-0.7631,-0.7489,-0.7612,-0.8548,-0.8803,-0.9061,-1.0135,-1.0438,-1.0438,-1.0481,-1.0524,-1.0826,-1.1986,-1.22,-1.2547,-1.3695,-1.3955,-1.4046,-1.4088,-1.4088,-1.4088,-1.4088,-1.3793,-1.36,-1.358,-1.3567,-1.3373,-1.2824,-1.2764,-1.265,-1.2325,-1.2305,-1.2305,-1.2305,-1.2305,-1.2305,-1.2305,-1.2305,-1.2305,-1.2305,-1.2305,-1.2305,-1.2305,-1.2305,-1.2305,-1.2305,-1.2305,-1.2452,0.4662,0.485,0.5113,0.5136,0.5143,0.5185,0.5295,0.5334,0.5685,0.6877,0.7151,0.7492,0.0,0.0,0.0,0.8885,0.9028,0.0,0.9096,0.9096,0.0,0.6376,0.0,0.6139,0.2013,0.2674,0.243,0.0163,0.0,0.0,0.0,0.0,0.0,0.0,0.0,0.0,0.0,-0.2314,-0.432,-0.6029,-0.7335,-0.7988,-0.7988,-0.7988,-0.7988,-0.7988,-0.7988,-0.7988,-0.7988,-0.7988,-0.7988,-0.7988,-0.7988,-0.7988,-0.7985,-0.7944,-0.7931,-0.7938,-0.7975,-0.7847,-0.7729,-0.7834,-0.7773,-0.7628,-0.7475,-0.745,-0.743,-0.7535,-0.7577,-0.7621,-0.7921,-0.8009,-0.8229,-0.9104,-0.9323,-0.9666,-1.0778,-1.1037,-1.1128,-1.1429,-1.2163,-1.3027,-1.3955,-1.4088,-1.4088,-1.4088,-1.3793,-1.3527,-1.3347,-1.312,-1.2871,-1.2458,-1.2418,-1.2385,-1.2311,-1.2305,-1.2305,-1.2305,-1.2305,-1.2305,-1.2305,-1.2305,-1.2305,-1.2305,-1.2305,-1.2305,-1.2305,-1.2305,-1.2305,-1.2305,-1.2305,-1.2345,0.3356,0.3637,0.4085,0.4067,0.4102,0.4108,0.4173,0.4196,0.4635,0.6165,0.6523,0.0,0.8272,0.8676,0.8804,0.0,0.0,0.0,0.921,0.8634,0.7559,0.0,0.5862,0.0,0.1566,0.2001,0.1821,0.011,0.0,0.0,0.0,0.0,0.0,0.0,0.0,0.0,0.0,-0.2665,-0.4368,-0.5122,-0.7083,-0.7988,-0.7988,-0.7988,-0.7988,-0.7988,-0.7988,-0.7988,-0.7988,-0.7988,-0.7988,-0.7988,-0.7988,-0.7988,-0.7982,-0.7914,-0.7891,-0.788,-0.7868,-0.7695,-0.7536,-0.7743,-0.7672,-0.7485,-0.7443,-0.7322,-0.7251,-0.7122,-0.7095,-0.7095,-0.7095,-0.7095,-0.7272,-0.7929,-0.8105,-0.8452,-0.9623,-0.9836,-1.0009,-1.0481,-1.1128,-1.1943,-1.3118,-1.3294,-1.3425,-1.3824,-1.3706,-1.3447,-1.306,-1.2891,-1.267,-1.2338,-1.2305,-1.2305,-1.2305,-1.2305,-1.2305,-1.2305,-1.2305,-1.2305,-1.2305,-1.2305,-1.2305,-1.2305,-1.2305,-1.2305,-1.2305,-1.2305,-1.2305,-1.2305,-1.2305,-1.2305,0.2235,0.2731,0.364,0.3636,0.3658,0.3632,0.3647,0.3664,0.4097,0.5581,0.0,0.6473,0.793,0.8471,0.8754,0.8831,0.0,0.9217,0.9238,0.79,0.637,0.4996,0.3469,0.1901,0.0448,0.0276,0.0219,0.0,0.0,0.0,0.0,0.0,0.0,0.0,0.0,0.0,0.0,-0.2464,-0.3815,-0.4016,-0.6526,-0.7839,-0.7988,-0.7988,-0.7988,-0.7988,-0.7988,-0.7988,-0.7988,-0.7988,-0.7988,-0.7988,-0.7988,-0.7988,-0.7975,-0.7889,-0.7828,-0.7794,-0.7672,-0.7516,-0.746,-0.7672,-0.7567,-0.7343,-0.7343,-0.7248,-0.7095,-0.7095,-0.7095,-0.7095,-0.7095,-0.7095,-0.7095,-0.7095,-0.7095,-0.7404,-0.8452,-0.8671,-0.9017,-1.0139,-1.0351,-1.0783,-1.2072,-1.2256,-1.2548,-1.3469,-1.3533,-1.3333,-1.2851,-1.2784,-1.267,-1.2338,-1.2305,-1.2305,-1.2305,-1.2305,-1.2305,-1.2305,-1.2305,-1.2305,-1.2305,-1.2305,-1.2305,-1.2305,-1.2305,-1.2305,-1.2305,-1.2305,-1.2305,-1.2305,-1.2305,-1.2305,0.043,0.0532,0.074,0.0732,0.0727,0.073,0.0743,0.0736,0.0,0.0,0.3727,0.4937,0.6202,0.77,0.872,0.8747,0.8977,0.9255,0.9323,0.7958,0.6796,0.0,0.5067,0.3521,0.1957,0.1819,0.1311,0.011,0.0,0.0,0.0,0.0,0.0,0.0,0.0,0.0,0.0,-0.1561,-0.2914,-0.4016,-0.5575,-0.6933,-0.7988,-0.7988,-0.7988,-0.7988,-0.7988,-0.7988,-0.7988,-0.7988,-0.7988,-0.7988,-0.7988,-0.7988,-0.7985,-0.7961,-0.787,-0.7807,-0.7784,-0.7597,-0.7426,-0.7431,-0.7326,-0.7136,-0.7136,-0.7119,-0.7095,-0.7095,-0.7095,-0.7095,-0.7095,-0.7095,-0.7095,-0.7095,-0.7095,-0.7139,-0.736,-0.7404,-0.7753,-0.8973,-0.9192,-0.9836,-1.1943,-1.2109,-1.2337,-1.3436,-1.322,-1.2904,-1.2797,-1.2784,-1.267,-1.2338,-1.2305,-1.2305,-1.2305,-1.2305,-1.2305,-1.2305,-1.2305,-1.2305,-1.2305,-1.2305,-1.2305,-1.2305,-1.2305,-1.2305,-1.2305,-1.2305,-1.2305,-1.2305,-1.2305,-1.2305,0.0,0.0,0.0,0.0,0.0,0.0,0.0,0.0,0.0,0.0,0.3106,0.4467,0.5787,0.7349,0.0,0.8686,0.8225,0.7954,0.8082,0.6091,0.0,0.4465,0.3088,0.1847,0.1119,0.104,0.0755,0.0054,0.0,0.0,0.0,0.0,0.0,0.0,0.0,0.0,0.0,-0.131,-0.2314,-0.2964,-0.5024,-0.6331,-0.6983,-0.7686,-0.7988,-0.7939,-0.7285,-0.7335,-0.7939,-0.7235,-0.7385,-0.7988,-0.7988,-0.7988,-0.7988,-0.7988,-0.7944,-0.7919,-0.7838,-0.7719,-0.7577,-0.7467,-0.7265,-0.7095,-0.7095,-0.7095,-0.7095,-0.7095,-0.7095,-0.7095,-0.7095,-0.7095,-0.7095,-0.7095,-0.7095,-0.7095,-0.7095,-0.7095,-0.7272,-0.7841,-0.7973,-0.8507,-1.0156,-1.0768,-1.1323,-1.2212,-1.2142,-1.1916,-1.1797,-1.1286,-1.132,-1.2201,-1.2305,-1.2305,-1.2305,-1.2305,-1.2305,-1.2305,-1.2305,-1.2305,-1.2305,-1.2305,-1.2305,-1.2305,-1.2305,-1.2305,-1.2305,-1.2305,-1.2305,-1.2305,-1.2305,-1.2305,0.0,0.0,0.0,0.0,0.0,0.0,0.0,0.0,0.0,0.0,0.2614,0.3967,0.5325,0.0,0.7568,0.0,0.7084,0.6272,0.0,0.413,0.2399,0.0,0.0903,0.0,0.0,0.0,0.0,0.0,0.0,0.0,0.0,0.0,0.0,0.0,0.0,0.0,0.0,-0.1058,-0.1711,-0.2013,-0.4121,-0.5275,-0.5625,-0.6678,-0.7129,-0.708,-0.6027,-0.6176,-0.708,-0.6329,-0.6631,-0.7587,-0.7889,-0.7988,-0.7988,-0.7988,-0.7968,-0.7924,-0.7851,-0.779,-0.7723,-0.7458,-0.7288,-0.7139,-0.7105,-0.7095,-0.7095,-0.7095,-0.7095,-0.7095,-0.7095,-0.7095,-0.7095,-0.7095,-0.7095,-0.7095,-0.7095,-0.7095,-0.7095,-0.7095,-0.7071,-0.7403,-0.8505,-0.9289,-0.9983,-1.0779,-1.0833,-1.0724,-1.0519,-0.9782,-0.99,-1.1471,-1.1848,-1.207,-1.2261,-1.2305,-1.2305,-1.2305,-1.2305,-1.2305,-1.2305,-1.2305,-1.2305,-1.2305,-1.2305,-1.2305,-1.2305,-1.2305,-1.2305,-1.2305,-1.2305,-1.2305,0.0,0.0,0.0,0.0,0.0,0.0,0.0,0.0,0.0,0.0151,0.126,0.2614,0.3915,0.4384,0.0,0.0,0.0,0.4773,0.0,0.0,0.0,0.2452,0.0,0.0,0.0,0.0,0.0,0.0,0.0,0.0,0.0,0.0,0.0,0.0,0.0,0.0,0.0,-0.0101,-0.0807,-0.2013,-0.2264,-0.3016,-0.4166,-0.4316,-0.4366,-0.4366,-0.4218,-0.4266,-0.4468,-0.5525,-0.6079,-0.6282,-0.7537,-0.7988,-0.7988,-0.7988,-0.7901,-0.7831,-0.7818,-0.7726,-0.759,-0.7424,-0.7409,-0.7322,-0.7139,-0.7095,-0.7095,-0.7095,-0.7095,-0.7095,-0.7095,-0.7095,-0.7095,-0.7095,-0.7095,-0.7095,-0.7095,-0.7095,-0.7095,-0.7095,-0.6994,-0.7282,-0.8484,-0.8405,-0.8559,-0.9669,-0.9645,-0.9473,-0.9448,-0.9372,-0.9372,-0.9561,-1.0378,-1.1316,-1.2224,-1.2305,-1.2305,-1.2305,-1.2305,-1.2305,-1.2305,-1.2305,-1.2305,-1.2305,-1.2305,-1.2305,-1.2305,-1.2305,-1.2305,-1.2305,-1.2305,-1.2305,0.0,0.0,0.0,0.0,0.0,0.0,0.0,0.0,0.0,0.0,0.1058,0.2413,0.3765,0.4698,0.5486,0.0,0.0,0.0,0.0,0.0,0.0,0.097,0.0398,0.0,0.0,0.0,0.0,0.0,0.0,0.0,0.0,0.0,0.0,0.0,0.0,0.0,0.0,0.0,-0.0252,-0.0807,-0.1611,-0.2264,-0.2815,-0.3615,-0.4016,-0.3966,-0.3165,-0.3265,-0.4066,-0.4568,-0.5272,-0.6129,-0.7484,-0.7988,-0.7988,-0.7988,-0.7951,-0.7897,-0.7897,-0.7864,-0.7824,-0.7587,-0.7567,-0.759,-0.735,-0.7214,-0.7115,-0.7251,-0.721,-0.7095,-0.7095,-0.7095,-0.7095,-0.7095,-0.7095,-0.7095,-0.7095,-0.7095,-0.7095,-0.7095,-0.698,-0.7023,-0.7426,-0.7781,-0.8129,-0.8483,-0.8478,-0.8389,-0.8389,-0.7859,-0.7744,-0.8313,-0.9291,-1.0045,-1.0458,-1.0496,-1.0496,-1.0496,-1.0496,-1.0496,-1.0496,-1.0496,-1.0795,-1.1391,-1.1391,-1.1694,-1.2305,-1.2305,-1.2305,-1.2305,-1.2305,-1.2305,0.0,0.0,0.0,0.0,0.0,0.0,0.0,0.0,0.0,0.0,0.0766,0.1827,0.3141,0.4205,0.4904,0.0,0.0,0.3027,0.1727,0.0,0.0,0.0,0.0,0.0,0.0,0.0,0.0,0.0,0.0,0.0,0.0,0.0,0.0,0.0,0.0,0.0,0.0,0.0,0.0,0.0,-0.0958,-0.141,-0.1461,-0.2363,-0.2815,-0.2764,-0.1812,-0.1963,-0.2864,-0.3665,-0.4568,-0.5575,-0.7335,-0.7988,-0.7988,-0.7988,-0.7988,-0.7988,-0.7988,-0.7988,-0.7948,-0.7743,-0.7729,-0.7773,-0.7563,-0.7363,-0.7221,-0.7285,-0.7224,-0.7095,-0.7095,-0.7095,-0.7095,-0.7095,-0.7095,-0.7095,-0.7095,-0.7095,-0.7095,-0.7095,-0.6947,-0.6827,-0.6719,-0.7134,-0.7462,-0.7381,-0.7365,-0.7365,-0.7365,-0.6756,-0.6567,-0.7288,-0.7974,-0.8656,-0.9258,-0.9296,-0.9296,-0.9296,-0.9296,-0.9296,-0.9296,-0.9296,-0.9631,-1.034,-1.0634,-1.1162,-1.1848,-1.215,-1.2305,-1.2305,-1.2305,-1.2305,0.0,0.0,0.0,0.0,0.0,0.0,0.0,0.0,0.0,0.0,0.0,0.0415,0.1759,0.212,0.2173,0.207,0.0,0.0,0.0224,0.0,0.0,0.0,0.0,0.0,0.0,0.0,0.0,0.0,0.0,0.0,0.0,0.0,0.0,0.0,0.0,0.0,0.0,0.0,0.0,0.0,0.0,0.0,0.0,-0.0051,-0.0051,-0.0051,-0.0051,-0.0051,-0.0252,-0.2914,-0.4016,-0.4266,-0.698,-0.7988,-0.7988,-0.7988,-0.7988,-0.7988,-0.7988,-0.7988,-0.7965,-0.7858,-0.7811,-0.7811,-0.7807,-0.76,-0.7336,-0.7139,-0.7098,-0.7095,-0.7095,-0.7095,-0.7095,-0.7095,-0.7095,-0.7095,-0.7095,-0.7095,-0.7095,-0.7095,-0.6902,-0.6702,-0.6702,-0.6497,-0.6303,-0.63,-0.63,-0.63,-0.63,-0.63,-0.63,-0.63,-0.6338,-0.7138,-0.915,-0.9296,-0.9296,-0.9296,-0.9296,-0.9296,-0.9296,-0.9296,-0.9296,-0.9296,-1.0303,-1.082,-1.0826,-1.1805,-1.2305,-1.2305,-1.2305,-1.2305,0.0,0.0,0.0,0.0,0.0,0.0,0.0,0.0,0.0,0.0,0.0,0.0423,0.174,0.2056,0.2072,0.2014,0.2021,0.0,0.0,0.0,0.0,0.0,0.0,0.0,0.0,0.0,0.0,0.0,0.0,0.0,0.0,0.0,0.0,0.0,0.0,0.0,0.0,0.0,0.0,0.0,0.0,0.0,0.0,0.0,0.0,0.0,0.0,0.0,-0.0202,-0.2914,-0.4016,-0.4266,-0.693,-0.7988,-0.7988,-0.7988,-0.7988,-0.7988,-0.7988,-0.7988,-0.7965,-0.7862,-0.7882,-0.788,-0.7729,-0.76,-0.7495,-0.7339,-0.7221,-0.7095,-0.7095,-0.7095,-0.7095,-0.7095,-0.7095,-0.7095,-0.7095,-0.7095,-0.7095,-0.7095,-0.6943,-0.6824,-0.6719,-0.6536,-0.6412,-0.6313,-0.63,-0.63,-0.63,-0.63,-0.63,-0.63,-0.63,-0.6567,-0.7215,-0.7253,-0.7253,-0.7253,-0.7253,-0.7253,-0.7253,-0.7253,-0.7553,-0.8275,-0.8575,-0.9102,-0.9782,-1.0083,-1.0239,-1.0239,-1.0239,-1.0239,0.0,0.0,0.0,0.0,0.0,0.0,0.0,0.0,0.0,0.0,0.0,0.0269,0.1075,0.1719,0.1889,0.1316,0.1706,0.1606,0.0,0.0,0.0,0.0,0.0,0.0,0.0,0.0,0.0,0.0,0.0,0.0,0.0,0.0,0.0,0.0,0.0,0.0,0.0,0.0,0.0,0.0,0.0,0.0,0.0,0.0,0.0,0.0,0.0,0.0,0.0,-0.2364,-0.3566,-0.4216,-0.6376,-0.7537,-0.7988,-0.7988,-0.7988,-0.7988,-0.7988,-0.7988,-0.7975,-0.788,-0.7914,-0.7944,-0.7753,-0.7641,-0.7567,-0.7414,-0.7302,-0.7214,-0.7112,-0.7095,-0.7095,-0.7095,-0.7095,-0.7095,-0.7095,-0.7095,-0.7095,-0.7095,-0.6937,-0.6814,-0.6715,-0.6529,-0.6402,-0.6313,-0.63,-0.63,-0.63,-0.63,-0.63,-0.63,-0.63,-0.63,-0.63,-0.63,-0.63,-0.63,-0.63,-0.63,-0.63,-0.63,-0.6606,-0.7211,-0.7591,-0.8122,-0.8732,-0.9107,-0.9296,-0.9296,-0.9296,-0.9296,0.0,0.0,0.0,0.0,0.0,0.0,0.0,0.0,0.0,0.0,0.0,0.0,0.0,0.1094,0.1577,0.0215,0.1152,0.1557,0.0,0.0,0.0,0.0,0.0,0.0,0.0,0.0,0.0,0.0,0.0,0.0,0.0,0.0,0.0,0.0,0.0,0.0,0.0,0.0,0.0,0.0,0.0,0.0,0.0,0.0,0.0,0.0,0.0,0.0,-0.0101,-0.1461,-0.2815,-0.4116,-0.5475,-0.6833,-0.7988,-0.7988,-0.7988,-0.7988,-0.7988,-0.7988,-0.7988,-0.7988,-0.7988,-0.7961,-0.7858,-0.7712,-0.7567,-0.7414,-0.7409,-0.7322,-0.7132,-0.7095,-0.7095,-0.7095,-0.7095,-0.7095,-0.7095,-0.7095,-0.7092,-0.7085,-0.6905,-0.6709,-0.6688,-0.6497,-0.6313,-0.6303,-0.63,-0.63,-0.63,-0.63,-0.63,-0.63,-0.63,-0.63,-0.63,-0.63,-0.63,-0.63,-0.63,-0.63,-0.63,-0.63,-0.63,-0.63,-0.7215,-0.7706,-0.7706,-0.8618,-0.9074,-0.9074,-0.9074,-0.9074,0.0,0.0,0.0,0.0,0.0,0.0,0.0,0.0,0.0,0.0,0.0,0.0,0.0,0.0276,0.0386,0.0056,0.0278,0.0388,0.0057,0.0,0.0,0.0,0.0,0.0,0.0,0.0,0.0,0.0,0.0,0.0,0.0,0.0,0.0,0.0,0.0,0.0,0.0,0.0,0.0,0.0,0.0,0.0,0.0,0.0,0.0,0.0,0.0,0.0,-0.0101,-0.1461,-0.2815,-0.4116,-0.5475,-0.6833,-0.7988,-0.7988,-0.7988,-0.7988,-0.7988,-0.7988,-0.7988,-0.7988,-0.7988,-0.7961,-0.7858,-0.7712,-0.7567,-0.7414,-0.7285,-0.7142,-0.7105,-0.7095,-0.7095,-0.7095,-0.7095,-0.7095,-0.7095,-0.7095,-0.7065,-0.6957,-0.6879,-0.68,-0.6566,-0.6508,-0.6426,-0.6317,-0.63,-0.63,-0.63,-0.63,-0.63,-0.63,-0.63,-0.63,-0.63,-0.63,-0.63,-0.63,-0.63,-0.63,-0.63,-0.63,-0.63,-0.63,-0.6528,-0.6644,-0.6644,-0.6907,-0.7022,-0.7022,-0.7022,-0.7022,0.0,0.0,0.0,0.0,0.0,0.0,0.0,0.0,0.0,0.0,0.0,0.0,0.0,0.0,0.0,0.0,0.0,0.0,0.0,0.0,0.0,0.0,0.0,0.0,0.0,0.0,0.0,0.0,0.0,0.0,0.0,0.0,0.0,0.0,0.0,0.0,0.0,0.0,0.0,0.0,0.0,0.0,0.0,0.0,0.0,0.0,0.0,0.0,-0.005,-0.0807,-0.2213,-0.4066,-0.482,-0.6276,-0.7988,-0.7988,-0.7988,-0.7988,-0.7988,-0.7988,-0.7988,-0.7988,-0.7988,-0.7948,-0.778,-0.7662,-0.7567,-0.7414,-0.7312,-0.7227,-0.7112,-0.7095,-0.7095,-0.7095,-0.7095,-0.7095,-0.7095,-0.7045,-0.6977,-0.69,-0.6814,-0.6668,-0.6542,-0.6457,-0.6388,-0.6313,-0.63,-0.63,-0.63,-0.63,-0.63,-0.63,-0.63,-0.63,-0.63,-0.63,-0.63,-0.63,-0.63,-0.63,-0.63,-0.63,-0.63,-0.63,-0.63,-0.63,-0.63,-0.63,-0.63,-0.63,-0.63,-0.63,0.0,0.0,0.0,0.0,0.0,0.0,0.0,0.0,0.0,0.0,0.0,0.0,0.0,0.0,0.0,0.0,0.0,0.0,0.0,0.0,0.0,0.0,0.0,0.0,0.0,0.0,0.0,0.0,0.0,0.0,0.0,0.0,0.0,0.0,0.0,0.0,0.0,0.0,0.0,0.0,0.0,0.0,0.0,0.0,0.0,0.0,0.0,0.0,0.0,0.0,-0.146,-0.3715,-0.3915,-0.552,-0.7736,-0.7939,-0.7988,-0.7988,-0.7988,-0.7988,-0.7988,-0.7988,-0.7988,-0.7938,-0.7712,-0.7631,-0.7597,-0.7421,-0.7398,-0.7305,-0.7129,-0.7095,-0.7095,-0.7095,-0.7095,-0.7095,-0.7095,-0.6987,-0.6879,-0.6856,-0.6664,-0.6504,-0.6484,-0.6378,-0.63,-0.63,-0.63,-0.63,-0.63,-0.63,-0.63,-0.63,-0.63,-0.63,-0.63,-0.63,-0.63,-0.63,-0.63,-0.63,-0.63,-0.63,-0.63,-0.63,-0.63,-0.63,-0.63,-0.63,-0.63,-0.63,-0.63,-0.63,0.0,0.0,0.0,0.0,0.0,0.0,0.0,0.0,0.0,0.0,0.0,0.0,0.0,0.0,0.0,0.0,0.0,0.0,0.0,0.0,0.0,0.0,0.0,0.0,0.0,0.0,0.0,0.0,0.0,0.0,0.0,0.0,0.0,0.0,0.0,0.0,0.0,0.0,0.0,0.0,0.0,0.0,0.0,0.0,0.0,0.0,0.0,0.0,0.0,0.0,-0.0907,-0.2414,-0.3565,-0.492,-0.6431,-0.7587,-0.7988,-0.7988,-0.7988,-0.7988,-0.7988,-0.7988,-0.7988,-0.7958,-0.7831,-0.778,-0.7723,-0.7448,-0.7278,-0.7125,-0.7102,-0.7095,-0.7095,-0.7095,-0.7095,-0.7095,-0.7095,-0.6987,-0.6849,-0.6759,-0.6593,-0.6474,-0.6354,-0.6313,-0.63,-0.63,-0.63,-0.63,-0.63,-0.63,-0.63,-0.63,-0.63,-0.63,-0.63,-0.63,-0.63,-0.63,-0.63,-0.63,-0.63,-0.63,-0.63,-0.63,-0.63,-0.63,-0.63,-0.63,-0.63,-0.63,-0.63,-0.63,0.0,0.0,0.0,0.0,0.0,0.0,0.0,0.0,0.0,0.0,0.0,0.0,0.0,0.0,0.0,0.0,0.0,0.0,0.0,0.0,0.0,0.0,0.0,0.0,0.0,0.0,0.0,0.0,0.0,0.0,0.0,0.0,0.0,0.0,0.0,0.0,0.0,0.0,0.0,0.0,0.0,0.0,0.0,0.0,0.0,0.0,0.0,0.0,0.0,0.0,-0.0807,-0.2113,-0.3465,-0.482,-0.6179,-0.7487,-0.7988,-0.7988,-0.7988,-0.7988,-0.7988,-0.7988,-0.7988,-0.7961,-0.7858,-0.7756,-0.7651,-0.7434,-0.7319,-0.7244,-0.7119,-0.7095,-0.7095,-0.7095,-0.7095,-0.7075,-0.7001,-0.6866,-0.6759,-0.6607,-0.6497,-0.6375,-0.631,-0.63,-0.63,-0.63,-0.63,-0.63,-0.63,-0.63,-0.63,-0.63,-0.63,-0.63,-0.63,-0.63,-0.63,-0.63,-0.63,-0.63,-0.63,-0.63,-0.63,-0.63,-0.63,-0.63,-0.63,-0.63,-0.63,-0.63,-0.63,-0.63,0.0,0.0,0.0,0.0,0.0,0.0,0.0,0.0,0.0,0.0,0.0,0.0,0.0,0.0,0.0,0.0,0.0,0.0,0.0,0.0,0.0,0.0,0.0,0.0,0.0,0.0,0.0,0.0,0.0,0.0,0.0,0.0,0.0,0.0,0.0,0.0,0.0,0.0,0.0,0.0,0.0,0.0,0.0,0.0,0.0,0.0,0.0,0.0,0.0,0.0,-0.0605,-0.1661,-0.3015,-0.452,-0.6179,-0.7487,-0.7988,-0.7988,-0.7988,-0.7988,-0.7988,-0.7988,-0.7988,-0.7968,-0.7899,-0.7787,-0.7662,-0.7478,-0.7424,-0.738,-0.7146,-0.7095,-0.7095,-0.7095,-0.7095,-0.7058,-0.6916,-0.681,-0.6654,-0.6542,-0.6399,-0.63,-0.63,-0.63,-0.63,-0.63,-0.63,-0.63,-0.63,-0.63,-0.63,-0.63,-0.63,-0.63,-0.63,-0.63,-0.63,-0.63,-0.63,-0.63,-0.63,-0.63,-0.63,-0.63,-0.63,-0.63,-0.63,-0.63,-0.63,-0.63,-0.63,-0.63,0.0,0.0,0.0,0.0,0.0,0.0,0.0,0.0,0.0,0.0,0.0,0.0,0.0,0.0,0.0,0.0,0.0,0.0,0.0,0.0,0.0,0.0,0.0,0.0,0.0,0.0,0.0,0.0,0.0,0.0,0.0,0.0,0.0,0.0,0.0,0.0,0.0,0.0,0.0,0.0,0.0,0.0,0.0,0.0,0.0,0.0,0.0,0.0,0.0,0.0,-0.005,-0.0252,-0.1611,-0.3718,-0.6179,-0.7487,-0.7988,-0.7988,-0.7988,-0.7988,-0.7988,-0.7988,-0.7988,-0.7988,-0.7978,-0.7968,-0.7897,-0.7662,-0.7584,-0.7516,-0.7173,-0.7095,-0.7095,-0.7095,-0.7095,-0.7058,-0.6916,-0.681,-0.6654,-0.6542,-0.6399,-0.63,-0.63,-0.63,-0.63,-0.63,-0.63,-0.63,-0.63,-0.63,-0.63,-0.63,-0.63,-0.63,-0.63,-0.63,-0.63,-0.63,-0.63,-0.63,-0.63,-0.63,-0.63,-0.63,-0.63,-0.63,-0.63,-0.63,-0.63,-0.63,-0.63,-0.63,0.0,0.0,0.0,0.0,0.0,0.0,0.0,0.0,0.0,0.0,0.0,0.0,0.0,0.0,0.0,0.0,0.0,0.0,0.0,0.0,0.0,0.0,0.0,0.0,0.0,0.0,0.0,0.0,0.0,0.0,0.0,0.0,0.0,0.0,0.0,0.0,0.0,0.0,0.0,0.0,0.0,0.0,0.0,0.0,0.0,0.0,0.0,0.0,0.0,0.0,0.0,-0.0151,-0.146,-0.3116,-0.482,-0.532,-0.6024,-0.6731,-0.6731,-0.7285,-0.7988,-0.7988,-0.7988,-0.7988,-0.7988,-0.7864,-0.7743,-0.7631,-0.7461,-0.724,-0.7125,-0.7095,-0.7095,-0.7095,-0.7028,-0.6923,-0.6817,-0.6668,-0.6515,-0.6409,-0.6337,-0.63,-0.63,-0.63,-0.63,-0.63,-0.63,-0.63,-0.63,-0.63,-0.63,-0.63,-0.63,-0.63,-0.63,-0.63,-0.63,-0.63,-0.63,-0.63,-0.63,-0.63,-0.63,-0.63,-0.63,-0.63,-0.63,-0.63,-0.63,-0.63,-0.63,-0.63,0.0,0.0,0.0,0.0,0.0,0.0,0.0,0.0,0.0,0.0,0.0,0.0,0.0,0.0,0.0,0.0,0.0,0.0,0.0,0.0,0.0,0.0,0.0,0.0,0.0,0.0,0.0,0.0,0.0,0.0,0.0,0.0,0.0,0.0,0.0,0.0,0.0,0.0,0.0,0.0,0.0,0.0,0.0,0.0,0.0,0.0,0.0,0.0,0.0,0.0,0.0,-0.0151,-0.146,-0.2564,-0.3416,-0.3865,-0.487,-0.5979,-0.5979,-0.6581,-0.7385,-0.7385,-0.7083,-0.6828,-0.7235,-0.7225,-0.713,-0.7516,-0.7414,-0.7204,-0.7109,-0.7095,-0.7095,-0.7095,-0.7021,-0.69,-0.6742,-0.6617,-0.6528,-0.6337,-0.63,-0.63,-0.63,-0.63,-0.63,-0.63,-0.63,-0.63,-0.63,-0.6337,-0.6368,-0.6368,-0.6368,-0.6351,-0.6303,-0.63,-0.63,-0.63,-0.63,-0.63,-0.63,-0.63,-0.63,-0.63,-0.63,-0.63,-0.63,-0.63,-0.63,-0.63,-0.63,-0.63,0.0,0.0,0.0,0.0,0.0,0.0,0.0,0.0,0.0,0.0,0.0,0.0,0.0,0.0,0.0,0.0,0.0,0.0,0.0,0.0,0.0,0.0,0.0,0.0,0.0,0.0,0.0,0.0,0.0,0.0,0.0,0.0,0.0,0.0,0.0,0.0,0.0,0.0,0.0,0.0,0.0,0.0,0.0,0.0,0.0,0.0,0.0,0.0,0.0,0.0,0.0,-0.0151,-0.146,-0.1962,-0.2163,-0.3465,-0.482,-0.5979,-0.5979,-0.5979,-0.5979,-0.5979,-0.5072,-0.4268,-0.5575,-0.5898,-0.6029,-0.7256,-0.7489,-0.7333,-0.7136,-0.7095,-0.7095,-0.7095,-0.7095,-0.7014,-0.6766,-0.6702,-0.6614,-0.6358,-0.63,-0.63,-0.6261,-0.6261,-0.63,-0.63,-0.63,-0.6303,-0.6303,-0.6426,-0.6515,-0.6515,-0.6511,-0.6457,-0.6313,-0.63,-0.63,-0.63,-0.63,-0.63,-0.63,-0.63,-0.63,-0.63,-0.63,-0.63,-0.63,-0.63,-0.63,-0.63,-0.63,-0.63,0.0,0.0,0.0,0.0,0.0,0.0,0.0,0.0,0.0,0.0,0.0,0.0,0.0,0.0,0.0,0.0,0.0,0.0,0.0,0.0,0.0,0.0,0.0,0.0,0.0,0.0,0.0,0.0,0.0,0.0,0.0,0.0,0.0,0.0,0.0,0.0,0.0,0.0,0.0,0.0,0.0,0.0,0.0,0.0,0.0,0.0,0.0,0.0,0.0,0.0,0.0,-0.0051,-0.0454,-0.0605,-0.0656,-0.1058,-0.2013,-0.3167,-0.3167,-0.3819,-0.4568,-0.4568,-0.4316,-0.4066,-0.4468,-0.5105,-0.5731,-0.6078,-0.6664,-0.7156,-0.7109,-0.7095,-0.7095,-0.7095,-0.7021,-0.6923,-0.6836,-0.6692,-0.631,-0.5465,-0.5258,-0.4924,-0.4178,-0.4686,-0.5157,-0.5157,-0.5904,-0.6491,-0.6556,-0.6607,-0.663,-0.663,-0.6536,-0.6494,-0.6453,-0.6358,-0.63,-0.63,-0.63,-0.63,-0.63,-0.63,-0.63,-0.63,-0.63,-0.63,-0.63,-0.63,-0.63,-0.63,-0.63,-0.63,0.0,0.0,0.0,0.0,0.0,0.0,0.0,0.0,0.0,0.0,0.0,0.0,0.0,0.0,0.0,0.0,0.0,0.0,0.0,0.0,0.0,0.0,0.0,0.0,0.0,0.0,0.0,0.0,0.0,0.0,0.0,0.0,0.0252,0.0756,0.0807,0.0807,0.0807,0.0807,0.0504,0.0,0.0,0.0,0.0,0.0,0.0,0.0,0.0,0.0,0.0,0.0,0.0,0.0,0.0,0.0,0.0,0.0,-0.0857,-0.2013,-0.2013,-0.2514,-0.3215,-0.3215,-0.2865,-0.2514,-0.3065,-0.3621,-0.4316,-0.5308,-0.5987,-0.6517,-0.6962,-0.7095,-0.7095,-0.7095,-0.7031,-0.6953,-0.69,-0.6736,-0.64,-0.5743,-0.5114,-0.4516,-0.3922,-0.3951,-0.4044,-0.4047,-0.5092,-0.6081,-0.6686,-0.6793,-0.6793,-0.6793,-0.6709,-0.6603,-0.6521,-0.6433,-0.6361,-0.6303,-0.63,-0.63,-0.63,-0.63,-0.63,-0.63,-0.63,-0.63,-0.63,-0.63,-0.63,-0.63,-0.63,-0.63,0.0,0.0,0.0,0.0,0.0,0.0,0.0,0.0,0.0,0.0,0.0,0.0,0.0,0.0,0.0,0.0,0.0,0.0,0.0,0.0,0.0,0.0,0.0,0.0,0.0,0.0,0.0,0.0,0.0,0.005,0.0151,0.0202,0.0807,0.2163,0.2163,0.2113,0.2013,0.2013,0.131,0.0,0.0,0.0,0.0,0.0,0.0,0.0,0.0,0.0,0.0,0.0,0.0,0.0,0.0,0.0,0.0,0.0,-0.0756,-0.1812,-0.1812,-0.1812,-0.1812,-0.1812,-0.1008,-0.0252,-0.1461,-0.1815,-0.2283,-0.46,-0.5344,-0.5625,-0.6694,-0.7007,-0.7095,-0.7095,-0.7095,-0.7061,-0.6933,-0.6743,-0.6511,-0.6424,-0.532,-0.4425,-0.4468,-0.3635,-0.2996,-0.3104,-0.4064,-0.5252,-0.6583,-0.6764,-0.6797,-0.6886,-0.6862,-0.678,-0.6555,-0.6508,-0.6443,-0.6327,-0.6306,-0.63,-0.63,-0.63,-0.63,-0.63,-0.63,-0.63,-0.63,-0.63,-0.63,-0.63,-0.63,-0.63,0.0,0.0,0.0,0.0,0.0,0.0,0.0,0.0,0.0,0.0,0.0,0.0,0.0,0.0,0.0,0.0,0.0,0.0,0.0,0.0,0.0,0.0,0.0,0.0,0.0,0.0,0.0,0.0,0.0,0.0454,0.1511,0.1561,0.2163,0.3516,0.3565,0.3065,0.2013,0.2013,0.131,0.0,0.0,0.0,0.0,0.0,0.0,0.0,0.0,0.0,0.0,0.0,0.0,0.0,0.0,0.0,0.0,0.0,-0.0202,-0.0454,-0.0454,-0.0454,-0.0454,-0.0454,-0.0252,-0.005,-0.0353,-0.108,-0.1903,-0.2471,-0.3966,-0.5447,-0.5714,-0.6428,-0.7095,-0.7095,-0.7095,-0.7088,-0.7058,-0.6189,-0.5195,-0.4428,-0.3167,-0.1997,-0.121,-0.1547,-0.223,-0.3195,-0.3558,-0.4202,-0.553,-0.5594,-0.5838,-0.68,-0.6715,-0.6593,-0.6647,-0.6477,-0.6378,-0.646,-0.6361,-0.63,-0.63,-0.63,-0.63,-0.63,-0.63,-0.63,-0.63,-0.63,-0.63,-0.63,-0.63,-0.63,0.0,0.0,0.0,0.0,0.0,0.0,0.0,0.0,0.0,0.0,0.0,0.0,0.0,0.0,0.0,0.0,0.0,0.0,0.0,0.0,0.0,0.0,0.0,0.0,0.0,0.0,0.0,0.0,0.0,0.0605,0.1913,0.2013,0.2916,0.487,0.497,0.4318,0.2964,0.2964,0.1962,0.0,0.0,0.0,0.0,0.0,0.0,0.0,0.0,0.0,0.0,0.0,0.0,0.0,0.0,0.0,0.0,0.0,0.0,0.0,0.0,0.0,0.0,0.0,0.0,0.0,0.0,-0.0439,-0.1045,-0.1646,-0.2703,-0.3798,-0.4374,-0.4996,-0.544,-0.544,-0.5844,-0.6293,-0.6293,-0.5223,-0.4122,-0.3683,-0.2506,-0.1448,-0.0939,-0.0853,-0.1246,-0.2456,-0.2639,-0.309,-0.4368,-0.4951,-0.549,-0.6107,-0.6544,-0.6797,-0.681,-0.6603,-0.6511,-0.6511,-0.6378,-0.63,-0.63,-0.63,-0.63,-0.63,-0.63,-0.63,-0.63,-0.63,-0.63,-0.63,-0.63,-0.63,0.0,0.0,0.0,0.0,0.0,0.0,0.0,0.0,0.0,0.0,0.0,0.0,0.0,0.0,0.0,0.0,0.0,0.0,0.0,0.0,0.0,0.0,0.0,0.0,0.0,0.0,0.0,0.0,0.0,0.0706,0.2264,0.2364,0.3568,0.6279,0.6331,0.5724,0.4368,0.4368,0.3016,0.0353,0.0101,0.0,0.0,0.0,0.0,0.0,0.0,0.0,0.0,0.0,0.0,0.0,0.0,0.0,0.0,0.0,0.0,0.0,0.0,0.0,0.0,0.0,0.0,0.0,0.0,0.0,-0.0189,-0.1207,-0.1638,-0.2013,-0.3037,-0.3436,-0.3614,-0.3614,-0.4196,-0.4823,-0.5045,-0.4011,-0.3107,-0.3249,-0.2204,-0.1352,-0.1482,-0.0655,-0.0352,-0.134,-0.1478,-0.1924,-0.3126,-0.4315,-0.5107,-0.5328,-0.637,-0.6974,-0.6856,-0.6749,-0.6607,-0.6521,-0.6378,-0.63,-0.63,-0.63,-0.63,-0.63,-0.63,-0.63,-0.63,-0.63,-0.63,-0.63,-0.63,-0.63,0.0,0.0,0.0,0.0,0.0,0.0,0.0,0.0,0.0,0.0,0.0,0.0,0.0,0.0,0.0,0.0,0.0,0.0,0.0,0.0,0.0,0.0,0.0,0.0,0.0,0.0,0.0,0.0,0.0,0.1109,0.3615,0.3715,0.4968,0.7637,0.7739,0.7083,0.5727,0.5727,0.4372,0.1711,0.0555,0.0,0.0,0.0,0.0,0.0,0.0,0.0,0.0,0.0,0.0,0.0,0.0,0.0,0.0,0.0,0.0,0.0,0.0,0.0,0.0,0.0,0.0,0.0,0.0,0.0,-0.0046,-0.0185,-0.1002,-0.1835,-0.2013,-0.2815,-0.3614,-0.3614,-0.2903,-0.2549,-0.3616,-0.2853,-0.2007,-0.2056,-0.1073,-0.0224,-0.0224,-0.0089,-0.0045,-0.0224,-0.0225,-0.0673,-0.1879,-0.2948,-0.3998,-0.5036,-0.6108,-0.6753,-0.6732,-0.659,-0.6535,-0.6515,-0.6378,-0.63,-0.63,-0.63,-0.63,-0.63,-0.63,-0.63,-0.63,-0.63,-0.63,-0.63,-0.63,-0.63,0.0,0.0,0.0,0.0,0.0,0.0,0.0,0.0,0.0,0.0,0.0,0.0,0.0,0.0,0.0,0.0,0.0,0.0,0.0,0.0,0.0,0.0,0.0,0.0,0.0,0.0,0.0,0.0,0.0706,0.1962,0.3915,0.4718,0.6027,0.7939,0.7988,0.7335,0.6029,0.5979,0.4672,0.2013,0.141,0.0706,0.0,0.0,0.0,0.0,0.0,0.0,0.0,0.0,0.0,0.0,0.0,0.0,0.0,0.0,0.0,0.0,0.0,0.0,0.0,0.0,0.0,0.0,0.0,0.0,0.0,0.0,-0.0362,-0.0807,-0.0807,-0.1165,-0.1567,-0.1567,-0.1165,-0.0942,-0.1478,-0.1165,-0.0807,-0.0807,-0.0359,0.0,0.0,0.0,0.0,0.0,0.0,-0.018,-0.0718,-0.1776,-0.2645,-0.3216,-0.4278,-0.5183,-0.576,-0.5681,-0.5865,-0.6478,-0.6378,-0.63,-0.63,-0.63,-0.63,-0.63,-0.63,-0.63,-0.63,-0.63,-0.63,-0.63,-0.567,-0.5395,0.0,0.0,0.0,0.0,0.0,0.0,0.0,0.0,0.0,0.0,0.0,0.0,0.0,0.0,0.0,0.0,0.0,0.0,0.0,0.0,0.0,0.0,0.0,0.0,0.0,0.0,0.0,0.0,0.126,0.2564,0.3915,0.5272,0.6631,0.7939,0.7988,0.7537,0.6531,0.6179,0.4974,0.3016,0.2314,0.146,0.0504,0.0151,0.0,0.0,0.0,0.0,0.0,0.0,0.0,0.0,0.0,0.0,0.0,0.0,0.0,0.0,0.0,0.0,0.0,0.0,0.0,0.0,0.0,0.0,0.0,0.0,0.0,0.0,0.0,0.0,0.0,0.0,0.0,0.0,0.0,0.0,0.0,0.0,0.0,0.0,0.0,0.0,0.0,0.0,0.0,0.0,0.0,-0.1076,-0.179,-0.179,-0.2858,-0.3894,-0.459,-0.458,-0.4853,-0.5589,-0.5541,-0.5473,-0.5473,-0.5473,-0.5628,-0.5906,-0.5906,-0.6025,-0.63,-0.63,-0.6141,-0.5867,-0.5079,-0.4569,0.0,0.0,0.0,0.0,0.0,0.0,0.0,0.0,0.0,0.0,0.0,0.0,0.0,0.0,0.0,0.0,0.0,0.0,0.0,0.0,0.0,0.0,0.0,0.0,0.0,0.0,0.0,0.0,0.126,0.2564,0.3915,0.5272,0.6631,0.7939,0.7988,0.7988,0.7889,0.6631,0.5929,0.5777,0.3217,0.1962,0.1862,0.0555,0.0,0.0,0.0,0.0,0.0,0.0,0.0,0.0,0.0,0.0,0.0,0.0,0.0,0.0,0.0,0.0,0.0,0.0,0.0,0.0,0.0,0.0,0.0,0.0,0.0,0.0,0.0,0.0,0.0,0.0,0.0,0.0,0.0,0.0,0.0,0.0,0.0,0.0,0.0,0.0,0.0,0.0,0.0,0.0,0.0,-0.1076,-0.179,-0.179,-0.2858,-0.3541,-0.3426,-0.3437,-0.34,-0.3282,-0.3283,-0.3279,-0.3279,-0.3279,-0.3748,-0.4766,-0.4766,-0.5276,-0.63,-0.63,-0.5786,-0.4766,-0.4727,-0.4139,0.0,0.0,0.0,0.0,0.0,0.0,0.0,0.0,0.0,0.0,0.0,0.0,0.0,0.0,0.0,0.0,0.0,0.0,0.0,0.0,0.0,0.0,0.0,0.0,0.0,0.0,0.0,0.0,0.2063,0.3515,0.3966,0.6074,0.7487,0.7988,0.7988,0.7988,0.7988,0.7537,0.6833,0.5979,0.5024,0.367,0.1963,0.1511,0.0807,0.0,0.0,0.0,0.0,0.0,0.0,0.0,0.0,0.0,0.0,0.0,0.0,0.0,0.0,0.0,0.0,0.0,0.0,0.0,0.0,0.0,0.0,0.0,0.0,0.0,0.0,0.0,0.0,0.0,0.0,0.0,0.0,0.0,0.0,0.0,0.0,0.0,0.0,0.0,0.0,0.0,0.0,0.0,0.0,-0.0359,-0.0628,-0.0628,-0.1031,-0.1554,-0.217,-0.2249,-0.2488,-0.3079,-0.3086,-0.3085,-0.3085,-0.3085,-0.3279,-0.3669,-0.3669,-0.453,-0.63,-0.5589,-0.5079,-0.4686,-0.3322,-0.2504,0.0,0.0,0.0,0.0,0.0,0.0,0.0,0.0,0.0,0.0,0.0,0.0,0.0,0.0,0.0,0.0,0.0,0.0,0.0,0.0,0.0,0.0,0.0,0.0,0.0,0.0,0.0202,0.0656,0.2715,0.4216,0.467,0.6781,0.7988,0.7988,0.7988,0.7988,0.7988,0.7988,0.7537,0.6681,0.6229,0.4822,0.2665,0.2213,0.126,0.0,0.0,0.0,0.0,0.0,0.0,0.0,0.0,0.0,0.0,0.0,0.0,0.0,0.0,0.0,0.0,0.0,0.0,0.0,0.0,0.0,0.0,0.0,0.0,0.0,0.0,0.0,0.0,0.0,0.0,0.0,0.0,0.0,0.0,0.0,0.0,0.0,0.0,0.0,0.0,0.0,0.0,0.0,0.0,0.0,0.0,0.0,0.0,-0.0268,-0.101,-0.1068,-0.1334,-0.2011,-0.207,-0.2072,-0.2072,-0.2072,-0.2228,-0.2579,-0.2579,-0.3476,-0.5237,-0.4491,-0.3984,-0.3634,-0.2232,-0.1411,0.0,0.0,0.0,0.0,0.0,0.0,0.0,0.0,0.0,0.0,0.0,0.0,0.0,0.0,0.0,0.0,0.0,0.0,0.0,0.0,0.0,0.0,0.0,0.0,0.0,0.0,0.0555,0.1913,0.3265,0.4568,0.5929,0.7285,0.7988,0.7988,0.7988,0.7988,0.7988,0.7988,0.7988,0.7988,0.6631,0.5275,0.3966,0.2614,0.126,0.0,0.0,0.0,0.0,0.0,0.0,0.0,0.0,0.0,0.0,0.0,0.0,0.0,0.0,0.0,0.0,0.0,0.0,0.0,0.0,0.0,0.0,0.0,0.0,0.0,0.0,0.0,0.0,0.0,0.0,0.0,0.0,0.0,0.0,0.0,0.0,0.0,0.0,0.0,0.0,0.0,0.0,0.0,0.0,0.0,0.0,0.0,0.0,0.0,0.0,0.0,0.0,0.0,0.0,0.0,0.0,0.0,-0.0471,-0.1528,-0.1568,-0.2035,-0.3007,-0.3046,-0.254,-0.1607,-0.1568,-0.098,0.0,0.0,0.0,0.0,0.0,0.0,0.0,0.0,0.0,0.0,0.0,0.0,0.0,0.0,0.0,0.0,0.0,0.0,0.0,0.0,0.0,0.0,0.0,0.0,0.0,0.0,0.0555,0.1913,0.3265,0.4568,0.5929,0.7285,0.7988,0.7988,0.7988,0.7988,0.7988,0.7988,0.7988,0.7988,0.6631,0.5275,0.3966,0.2614,0.126,0.0,0.0,0.0,0.0,0.0,0.0,0.0,0.0,0.0,0.0,0.0,0.0,0.0,0.0,0.0,0.0,0.0,0.0,0.0,0.0,0.0,0.0,0.0,0.0,0.0,0.0,0.0,0.0,0.0,0.0,0.0,0.0,0.0,0.0,0.0,0.0,0.0,0.0,0.0,0.0,0.0,0.0,0.0,0.0,0.0,0.0,0.0,0.0,0.0,0.0,0.0,0.0,0.0,0.0,0.0,0.0,0.0,-0.0157,-0.0432,-0.0432,-0.0588,-0.0862,-0.1644,-0.188,-0.1568,-0.0824,-0.0275,0.0,0.0,0.0,0.0,0.0,0.0,0.0,0.0,0.0,0.0,0.0,0.0,0.0,0.0,0.0,0.0,0.0,0.0,0.0,0.0,0.0,0.0,0.0,0.0,0.0,0.0,0.0807,0.2715,0.3565,0.482,0.6731,0.7587,0.7988,0.7988,0.7988,0.7988,0.7988,0.7988,0.7988,0.7988,0.6631,0.5275,0.3966,0.2614,0.126,0.0,0.0,0.0,0.0,0.0,0.0,0.0,0.0,0.0,0.0,0.0,0.0,0.0,0.0,0.0,0.0,0.0,0.0,0.0,0.0,0.0,0.0,0.0,0.0,0.0,0.0,0.0,0.0,0.0,0.0,0.0,0.0,0.0,0.0,0.0,0.0,0.0,0.0,0.0,0.0,0.0,0.0,0.0,0.0,0.0,0.0,0.0,0.0,0.0,0.0,0.0,0.0,0.0,0.0,0.0,0.0,0.0,0.0,0.0,0.0,0.0,0.0,-0.0628,-0.0941,-0.0902,-0.0275,0.0,0.0,0.0,0.0,0.0,0.0,0.0,0.0,0.0,0.0,0.0,0.0,0.0,0.0,0.0,0.0,0.0,0.0,0.0,0.0,0.0,0.0,0.0,0.0,0.0,0.0,0.0,0.1109,0.3815,0.4266,0.547,0.7889,0.7988,0.7988,0.7988,0.7988,0.7988,0.7988,0.7988,0.7988,0.7988,0.6478,0.5172,0.3966,0.2464,0.1109,0.0,0.0,0.0,0.0,0.0,0.0,0.0,0.0,0.0,0.0,0.0,0.0,0.0,0.0,0.0,0.0,0.0,0.0,0.0,0.0,0.0,0.0,0.0,0.0,0.0,0.0,0.0,0.0,0.0,0.0,0.0,0.0,0.0,0.0,0.0,0.0,0.0,0.0,0.0,0.0,0.0,0.0,0.0,0.0,0.0,0.0,0.0,0.0,0.0,0.0,0.0,0.0,0.0,0.0,0.0,0.0,0.0,0.0,0.0,0.0,0.0,0.0,0.0,0.0,0.0,0.0,0.0,0.0,0.0,0.0,0.0,0.0,0.0,0.0,0.0,0.0,0.0,0.0,0.0,0.0,0.0,0.0,0.0,0.0,0.0,0.0,0.0,0.0,0.0,0.0,0.0,0.0,0.0,0.1109,0.3815,0.6022,0.7434,0.7988,0.7988,0.7988,0.7988,0.7988,0.7988,0.7988,0.7988,0.7988,0.7988,0.5572,0.4268,0.3915,0.1511,0.0252,0.0,0.0,0.0,0.0,0.0,0.0,0.0,0.0,0.0,0.0,0.0,0.0,0.0,0.0,0.0,0.0,0.0,0.0,0.0,0.0,0.0,0.0,0.0,0.0,0.0,0.0,0.0,0.0,0.0,0.0,0.0,0.0,0.0,0.0,0.0,0.0,0.0,0.0,0.0,0.0,0.0,0.0,0.0,0.0,0.0,0.0,0.0,0.0,0.0,0.0,0.0,0.0,0.0,0.0,0.0,0.0,0.0,0.0,0.0,0.0,0.0,0.0,0.0,0.0,0.0,0.0,0.0,0.0,0.0,0.0,0.0,0.0,0.0,0.0,0.0,0.0,0.0,0.0,0.0,0.0,0.0,0.0,0.0,0.0,0.0,0.0,0.0,0.0,0.0,0.0,0.0,0.0,0.0,0.1109,0.3815,0.5874,0.7285,0.7988,0.7988,0.7988,0.7988,0.7988,0.7988,0.7988,0.7988,0.7988,0.7988,0.5268,0.4016,0.3915,0.1209,0.0,0.0,0.0,0.0,0.0,0.0,0.0,0.0,0.0,0.0,0.0,0.0,0.0,0.0,0.0,0.0,0.0,0.0,0.0,0.0,0.0,0.0,0.0,0.0,0.0,0.0,0.0,0.0,0.0,0.0,0.0,0.0,0.0,0.0,0.0,0.0,0.0,0.0,0.0,0.0,0.0,0.0,0.0,0.0,0.0,0.0,0.0,0.0,0.0,0.0,0.0,0.0,0.0,0.0,0.0,0.0,0.0,0.0,0.0,0.0,0.0,0.0,0.0,0.0,0.0,0.0,0.0,0.0,0.0,0.0,0.0,0.0,0.0,0.0,0.0,0.0,0.0,0.0,0.0,0.0,0.0,0.0,0.0,0.0,0.0,0.0,0.0,0.0,0.0,0.0,0.0,0.0,0.0,0.0252,0.141,0.3815,0.5222,0.6581,0.7939,0.7988,0.7988,0.7988,0.7988,0.7988,0.7988,0.7988,0.7889,0.7587,0.517,0.3865,0.3516,0.1109,0.0,0.0,0.0,0.0,0.0,0.0,0.0,0.0,0.0,0.0,0.0,0.0,0.0,0.0,0.0,0.0,0.0,0.0,0.0,0.0,0.0,0.0,0.0,0.0,0.0,0.0,0.0,0.0,0.0,0.0,0.0,0.0,0.0,0.0,0.0,0.0,0.0,0.0,0.0,0.0,0.0,0.0,0.0,0.0,0.0,0.0,0.0,0.0,0.0,0.0,0.0,0.0,0.0,0.0,0.0,0.0,0.0,0.0,0.0,0.0,0.0,0.0,0.0,0.0,0.0,0.0,0.0,0.0,0.0,0.0,0.0,0.0,0.0,0.0,0.0,0.0,0.0,0.0,0.0,0.0,0.0,0.0,0.0,0.0,0.0,0.0,0.0,0.0,0.0,0.0,0.0,0.0,0.0,0.1058,0.2413,0.3865,0.5222,0.6581,0.7939,0.7988,0.7988,0.7988,0.7988,0.7988,0.7988,0.7988,0.7385,0.6229,0.4718,0.3364,0.2163,0.0706,0.0,0.0,0.0,0.0,0.0,0.0,0.0,0.0,0.0,0.0,0.0,0.0,0.0,0.0,0.0,0.0,0.0,0.0,0.0,0.0,0.0,0.0,0.0,0.0,0.0,0.0,0.0,0.0,0.0,0.0,0.0,0.0,0.0,0.0,0.0,0.0,0.0,0.0,0.0,0.0,0.0,0.0,0.0,0.0,0.0,0.0,0.0,0.0,0.0,0.0,0.0,0.0,0.0,0.0,0.0,0.0,0.0,0.0,0.0,0.0,0.0,0.0,0.0,0.0,0.0,0.0,0.0,0.0,0.0202,0.0,0.0,0.0,0.0,0.0,0.0,0.0,0.0,0.0,0.0,0.0,0.0,0.0,0.0,0.0,0.0,0.0,0.0,0.0,0.0,0.0,0.0,0.0,0.0,0.0504,0.1711,0.3865,0.4518,0.5772,0.7889,0.7988,0.7988,0.7988,0.7988,0.7988,0.7988,0.7988,0.7736,0.7135,0.5018,0.3715,0.3065,0.0958,0.0,0.0,0.0,0.0,0.0,0.0,0.0,0.0,0.0,0.0,0.0,0.0,0.0501,0.1054,0.0294,0.0533,0.1012,0.0236,0.0,0.0,0.0,0.0,0.0,0.0,0.0,0.0,0.0,0.0,0.0,0.0,0.0,0.0,0.0,0.0,0.0,0.0,0.0,0.0,0.0,0.0,0.0,0.0,0.0,0.0,0.0,0.0,0.0,0.0,0.0,0.0,0.0,0.0,0.0,0.0,0.0,0.0,0.0,0.0,0.0,0.0,0.0,0.0,0.0,0.0,0.0,0.0,0.0,0.0,0.0907,0.0555,0.0454,0.0101,0.0,0.0,0.0,0.0,0.0,0.0,0.0,0.0,0.0,0.0,0.0,0.0,0.0,0.0,0.0,0.0,0.0,0.0,0.0,0.0,0.0,0.0,0.0958,0.3265,0.3815,0.5018,0.7335,0.7789,0.7988,0.7988,0.7988,0.7988,0.7988,0.7988,0.7637,0.6877,0.4918,0.3615,0.2815,0.0907,0.0,0.0,0.0,0.0,0.0,0.0,0.0,0.0,0.0,0.0202,0.0555,0.0555,0.1356,0.2292,0.0985,0.0924,0.1295,0.0327,0.0,0.0,0.0,0.0,0.0,0.0,0.0,0.0,0.0,0.0,0.0,0.0,0.0,0.0,0.0,0.0,0.0,0.0,0.0,0.0,0.0,0.0,0.0,0.0,0.0,0.0,0.0,0.0,0.0,0.0,0.0,0.0,0.0,0.0,0.0,0.0,0.0,0.0,0.0,0.0,0.0,0.0,0.0,0.0,0.0,0.0,0.0,0.0,0.0,0.0,0.2314,0.1913,0.1611,0.0303,0.0,0.0,0.0,0.0,0.0,0.0,0.0,0.0,0.0,0.0,0.0,0.0,0.0,0.0,0.0,0.0,0.0,0.0,0.0,0.0,0.0,0.0,0.0555,0.1962,0.3265,0.4618,0.5979,0.7285,0.7988,0.7988,0.7988,0.7988,0.7988,0.7988,0.6678,0.4116,0.4066,0.2665,0.0101,0.0051,0.0,0.0,0.0,0.0,0.0,0.0,0.0,0.0,0.0,0.0807,0.1913,0.1913,0.2685,0.357,0.2347,0.1099,0.0046,0.0,0.0,0.0,0.0,0.0,0.0,0.0,0.0,0.0,0.0,0.0,0.0,0.0,0.0,0.0,0.0,0.0,0.0,0.0,0.0,0.0,0.0,0.0,0.0,0.0,0.0,0.0,0.0,0.0,0.0,0.0,0.0,0.0,0.0,0.0,0.0,0.0,0.0,0.0,0.0,0.0,0.0,0.0,0.0,0.0,0.0,0.0,0.0,0.0,0.0,0.0,0.3667,0.3316,0.3015,0.1661,0.131,0.1109,0.0202,0.0,0.0,0.0,0.0,0.0,0.0,0.0,0.0,0.0,0.0,0.0,0.0,0.0,0.0,0.0,0.0,0.0,0.0,0.0,0.0555,0.1913,0.3265,0.4568,0.5929,0.7285,0.7988,0.7988,0.7988,0.7988,0.7988,0.7988,0.7083,0.5322,0.4418,0.3065,0.131,0.0404,0.0,0.0,0.0,0.0,0.0,0.0,0.0,0.0,0.0,0.0807,0.2013,0.2013,0.3327,0.4922,0.3658,0.1808,0.0,0.0,0.0,0.0,0.0,0.0,0.0,0.0,0.0,0.0,0.0,0.0,0.0,0.0,0.0,0.0,0.0,0.0,0.0,0.0,0.0,0.0269,0.1076,0.121,0.0942,0.0135,0.0,0.0,0.0,0.0,0.0,0.0,0.0,0.0,0.0,0.0,0.0,0.0,0.0,0.0,0.0,0.0,0.0,0.0,0.0,0.0,0.0,0.0,0.0,0.0,0.0,0.0,0.507,0.4718,0.4368,0.3065,0.2715,0.2464,0.1611,0.1058,0.0706,0.0706,0.0353,0.0,0.0,0.0,0.0,0.0,0.0,0.0,0.0,0.0,0.0,0.0,0.0,0.0,0.0,0.0,0.0353,0.1209,0.2514,0.3867,0.5222,0.6578,0.7487,0.7988,0.7988,0.7988,0.7988,0.7988,0.7335,0.5979,0.462,0.3316,0.1962,0.0605,0.0,0.0,0.0,0.0,0.0,0.0,0.0,0.0,0.0,0.0807,0.2063,0.2514,0.3738,0.4967,0.3573,0.173,0.0,0.0,0.0,0.0,0.0,0.0,0.0,0.0,0.0,0.0,0.0,0.0,0.0,0.0,0.0,0.0,0.0,0.0,0.0,0.0,0.0359,0.0897,0.1656,0.2147,0.2191,0.1388,0.1299,0.1299,0.1299,0.0897,0.0628,0.0628,0.0269,0.0,0.0,0.0,0.0,0.0,0.0,0.0,0.0,0.0,0.0,0.0,0.0,0.0,0.0,0.0,0.0,0.0,0.0,0.0]}]]